GFSSGP_prec_cloud_006.txt.gz
Cloud_Cover
100 100 100 100 100 96 97 100 100 88 100 94 34 21 5 6 25 29 4 5 7 9 5 50 100 100 100 100 100 100 100 100 100 100 6 0 7 3 0 0 0 4 100 80 22 5 16 4 4
97 99 100 100 100 100 100 59 100 65 82 100 58 18 58 45 63 5 5 5 3 27 35 100 100 100 100 100 100 100 100 100 69 0 0 0 4 13 13 0 4 7 1 0 5 21 24 2 0
100 100 100 100 97 95 46 97 99 82 13 55 5 5 6 68 5 4 4 5 25 75 100 100 100 100 100 100 97 80 2 5 0 0 1 1 16 0 0 0 0 0 0 2 3 6 2 0 0
100 100 100 100 100 80 96 100 77 82 11 6 5 5 26 5 5 5 11 92 100 100 100 100 100 100 98 5 4 0 0 0 0 0 0 14 37 2 0 0 0 0 0 0 0 0 0 0 0
100 98 95 99 95 99 86 74 18 19 5 5 5 5 6 8 6 12 98 100 100 100 100 100 99 85 61 5 5 0 0 0 0 2 16 7 0 0 0 0 0 0 0 0 0 5 16 4 0
63 97 60 57 100 100 100 100 76 5 5 5 5 44 25 28 89 100 100 100 100 100 100 100 100 100 100 2 0 0 0 0 0 0 6 16 2 0 0 0 0 0 0 0 0 0 0 0 0
98 71 94 82 100 100 100 47 5 5 5 5 16 59 100 100 100 100 100 100 100 100 100 100 68 0 0 0 0 0 0 0 0 0 0 1 0 0 0 0 0 0 0 0 0 0 0 0 0
100 97 100 100 100 100 100 92 6 24 8 47 100 100 100 100 100 100 100 100 100 100 98 31 1 0 0 0 2 0 0 0 0 0 0 0 5 0 0 0 0 0 0 0 0 0 0 0 0
100 100 100 100 100 100 100 100 100 51 100 100 100 100 100 100 100 100 90 100 100 29 5 5 2 0 0 0 1 0 0 0 6 0 0 0 0 0 0 0 0 0 0 0 0 0 0 0 0
100 100 100 100 100 100 100 100 100 100 100 100 100 100 100 100 100 100 100 100 72 44 0 0 0 0 0 0 0 0 0 0 0 0 0 0 0 0 6 0 0 0 0 0 0 0 0 0 0
100 100 100 100 98 100 22 96 100 100 100 100 100 100 100 100 100 96 23 63 1 1 0 0 0 0 0 0 0 0 0 0 0 0 0 0 0 0 0 0 0 0 0 0 0 0 0 0 0
100 100 95 100 100 100 100 100 100 100 100 100 100 100 100 100 91 5 2 2 0 1 0 0 0 0 0 0 0 0 0 0 0 0 0 0 0 0 0 0 0 0 0 0 0 0 0 0 0
100 100 93 87 99 100 100 100 100 100 100 100 100 88 100 53 51 1 0 0 0 0 0 0 0 0 0 0 0 0 0 0 0 0 0 0 0 0 0 0 0 0 0 0 0 0 0 0 0
100 100 100 100 100 100 100 100 100 100 100 100 74 94 86 66 0 0 0 0 0 0 0 0 0 0 0 0 0 0 0 0 0 0 0 0 0 0 0 0 0 0 0 0 0 0 0 0 0
51 91 100 100 100 100 100 100 100 100 89 93 13 1 0 0 0 0 0 0 0 0 0 0 0 5 1 2 5 5 5 5 5 0 0 0 0 0 0 0 0 0 0 0 0 0 0 0 0
0 0 0 4 97 100 96 42 17 79 89 0 0 0 0 0 0 0 0 0 0 0 0 0 0 2 0 1 5 5 5 5 5 1 2 5 1 5 4 5 5 5 5 9 5 5 4 2 4
0 0 0 0 26 52 4 0 0 3 0 0 0 0 0 0 0 0 0 0 0 0 0 1 1 0 1 5 5 5 5 5 5 5 5 4 0 5 5 7 21 5 4 5 4 5 4 5 4
0 0 0 0 0 0 0 0 0 0 0 0 0 0 0 0 0 0 0 0 0 0 0 4 5 2 5 5 5 28 5 38 5 5 5 5 4 1 0 0 2 0 0 1 0 1 3 5 5
0 0 0 0 0 0 0 0 0 0 0 0 0 0 0 0 0 0 0 0 0 0 0 5 5 5 5 80 83 75 65 5 5 5 4 5 5 4 3 4 17 12 6 50 17 5 5 5 5
0 0 0 0 0 0 0 0 0 0 0 0 0 0 0 0 0 0 0 0 0 3 5 5 25 80 92 99 94 99 36 5 5 5 5 5 7 9 10 5 51 96 72 65 94 65 26 5 5
0 0 0 0 0 0 0 0 0 0 0 0 0 0 0 0 0 0 1 0 2 5 30 97 100 100 100 87 90 73 62 36 5 5 5 23 80 9 5 5 5 7 39 78 98 57 12 5 7
0 0 0 0 0 0 0 0 0 0 0 0 0 0 0 0 0 5 3 5 5 59 100 100 98 49 12 99 67 73 22 21 37 84 86 60 60 5 5 5 63 53 21 31 40 7 5 5 5
0 0 0 0 0 0 0 0 0 0 0 0 0 5 0 0 0 0 5 5 15 93 60 21 38 79 89 68 73 30 46 85 86 84 8 21 31 2 5 5 5 6 3 1 3 5 5 5 5
0 0 0 0 0 0 0 0 3 0 0 1 5 0 0 0 0 4 5 6 24 28 31 84 87 72 65 83 38 62 35 82 100 63 35 11 5 5 30 48 80 17 5 5 5 5 6 4 42
0 0 0 2 1 2 0 0 0 0 0 5 1 0 0 5 5 5 5 5 16 28 80 92 100 90 94 100 98 91 100 98 32 35 10 5 54 100 100 69 8 5 5 5 14 61 93 97 90
0 0 0 0 0 0 0 0 3 0 3 2 0 1 5 5 5 5 5 5 55 62 75 22 98 99 96 82 89 81 18 7 5 26 91 100 100 100 94 5 6 39 48 99 100 98 100 100 100
0 0 0 0 2 3 0 0 0 0 0 4 4 4 5 5 5 5 5 68 5 6 31 67 20 43 48 30 13 60 78 92 100 100 100 100 100 36 5 58 59 27 32 77 80 97 99 97 100
0 0 3 0 16 1 0 0 5 2 5 5 5 5 5 5 5 5 22 64 98 62 6 5 14 28 24 5 7 36 17 23 82 100 100 35 6 41 51 24 53 73 74 91 67 90 98 100 100
4 3 0 0 0 1 1 0 0 4 5 5 5 5 5 12 51 98 56 35 10 5 5 5 5 5 29 95 100 100 100 100 100 100 45 31 49 36 51 82 100 100 100 100 100 100 100 100 100
0 0 0 5 4 27 4 1 5 53 10 5 5 5 47 100 94 73 41 5 5 5 5 5 37 100 100 100 100 100 100 100 100 52 74 100 98 100 100 100 88 98 100 100 100 100 100 100 100

GFSSGP_prec_cloud_009.txt.gz
Cloud_Cover
100 100 100 100 100 100 85 100 98 91 78 20 58 83 81 95 50 29 69 3 6 66 8 5 2 47 95 100 100 100 100 100 100 100 5 25 13 2 0 0 0 0 0 0 0 1 0 1 0
100 100 100 100 100 100 79 100 99 99 80 72 89 99 100 30 5 13 5 5 5 78 95 70 86 100 14 98 100 100 100 100 100 11 3 9 5 0 0 0 0 0 0 5 18 11 0 0 0
100 100 100 100 100 90 89 73 97 74 94 99 100 99 90 20 5 5 5 5 5 6 19 47 48 100 100 100 100 100 100 100 19 4 8 19 26 0 0 0 0 0 6 16 14 0 0 0 0
100 100 100 100 92 89 62 100 100 100 100 100 100 96 28 11 35 6 18 10 43 86 100 100 100 100 100 100 100 100 37 4 0 0 0 9 0 0 0 0 0 6 12 0 0 1 0 0 0
100 100 100 100 87 89 100 94 100 98 100 100 100 31 11 5 5 5 56 97 100 100 100 100 100 100 100 100 98 46 2 1 0 10 15 11 2 0 0 0 0 0 0 0 0 0 0 0 0
100 100 100 94 97 100 100 92 51 43 55 4 5 5 7 5 25 100 100 100 100 100 100 100 100 100 100 90 48 4 0 0 0 10 17 14 0 0 0 0 0 0 0 0 0 0 0 0 0
100 100 100 100 100 100 100 100 89 90 6 5 5 5 46 99 100 100 100 100 100 100 100 100 100 100 100 7 0 0 0 0 0 0 0 0 0 0 0 0 0 0 0 0 0 0 0 0 0
100 100 100 100 100 100 100 100 86 9 5 5 20 99 100 100 100 100 100 100 100 100 100 100 100 100 6 0 0 0 0 0 0 0 0 0 0 0 0 0 0 0 0 0 0 0 0 0 0
100 100 100 100 100 100 100 100 36 16 11 100 81 100 100 100 100 100 100 100 100 100 100 100 99 45 2 0 3 0 0 0 2 0 0 0 6 0 1 0 0 0 0 0 0 0 0 0 0
100 100 100 100 100 100 100 100 59 55 92 100 100 100 100 100 100 100 100 100 100 100 100 100 98 5 0 0 0 0 0 0 0 3 0 13 5 0 0 0 0 0 0 0 0 0 0 0 0
100 100 100 100 100 100 100 100 100 100 100 100 100 100 100 100 100 100 100 100 100 100 100 8 0 0 0 0 0 0 0 0 0 0 1 0 0 18 27 32 5 3 0 0 0 0 0 0 0
100 100 100 100 100 100 100 100 100 100 100 100 100 100 100 100 100 100 100 100 100 97 90 3 0 0 0 0 0 0 0 0 0 0 0 0 0 0 0 0 0 0 1 0 0 0 0 0 0
100 100 100 100 100 100 100 100 100 100 100 100 100 100 100 100 100 100 100 100 94 71 52 47 0 0 0 0 0 0 0 0 0 0 0 0 0 0 0 0 0 0 0 0 0 0 0 0 0
100 100 100 100 100 100 83 100 100 100 100 100 100 100 100 100 100 100 100 8 50 25 74 52 51 0 0 0 0 0 0 0 0 0 0 0 0 0 0 0 0 0 4 0 0 0 0 0 0
78 100 100 100 100 100 100 100 100 100 100 100 100 100 100 100 100 100 100 6 35 9 87 60 88 1 0 0 0 3 0 4 0 0 3 5 0 4 10 5 8 18 6 6 5 5 5 5 2
0 2 68 93 66 99 96 35 36 92 45 60 74 1 3 2 7 21 2 3 5 42 39 84 55 0 0 0 5 5 5 5 5 5 5 0 2 5 8 42 38 88 100 89 64 48 63 17 4
0 3 0 0 0 3 31 47 0 0 0 0 0 0 0 0 5 5 0 0 2 5 3 16 17 0 2 5 6 5 5 5 5 5 5 5 5 5 56 99 100 100 73 31 5 6 3 1 4
14 0 0 0 0 0 0 0 0 0 0 0 0 0 0 0 5 5 0 0 0 0 0 0 31 2 5 12 62 56 49 5 32 76 57 29 66 33 34 18 7 6 5 5 5 1 5 28 77
0 0 0 0 0 0 0 0 0 0 0 0 0 0 0 0 1 0 0 0 0 0 0 4 18 5 77 78 81 98 67 94 94 51 11 5 5 5 5 5 5 5 1 3 9 66 55 31 6
0 0 0 0 0 0 0 0 0 0 0 0 0 0 0 0 0 0 0 0 0 1 2 4 5 92 100 71 100 99 82 88 74 77 90 72 6 80 5 5 5 9 40 96 22 5 29 28 5
0 0 0 0 0 0 0 1 0 0 0 0 0 0 0 0 0 0 0 0 1 5 20 46 93 100 100 100 71 77 100 77 70 64 5 6 85 86 60 5 31 53 48 35 37 6 5 5 38
0 0 0 0 0 9 0 66 3 0 0 0 0 0 0 0 0 0 0 4 5 96 100 100 100 100 88 80 66 99 100 100 86 96 87 73 100 99 80 18 5 5 14 5 5 5 59 49 50
0 0 0 0 0 0 0 0 79 2 0 0 0 0 0 0 0 0 5 34 67 12 69 97 5 6 26 82 100 100 97 91 100 100 92 100 66 52 30 5 1 12 89 42 70 100 100 100 97
0 0 0 0 0 0 4 0 97 96 21 1 0 0 0 0 3 5 5 5 5 5 6 47 36 96 100 100 85 91 100 89 47 5 5 5 18 15 35 97 100 100 100 100 100 99 99 89 47
0 0 4 46 26 52 2 0 29 0 0 3 3 0 0 4 5 5 8 24 5 5 29 22 64 80 75 63 74 35 28 25 28 35 94 100 99 100 100 100 100 100 100 92 97 100 100 100 51
0 0 3 2 5 13 0 3 86 0 0 0 0 0 0 0 2 3 5 5 21 78 98 92 64 70 80 59 68 30 24 93 99 100 100 100 100 100 100 6 30 55 96 100 100 99 58 100 96
0 0 0 0 0 0 0 8 3 0 0 5 4 5 59 29 53 45 50 98 99 69 9 10 90 100 100 100 96 98 100 100 100 100 100 100 100 100 80 4 26 100 100 100 100 89 100 88 99
0 0 4 5 22 0 4 2 99 17 30 94 57 88 51 52 90 95 75 18 33 42 98 69 76 100 87 100 100 100 100 100 100 100 100 100 62 10 40 86 100 100 100 100 100 99 97 98 98
4 5 1 0 0 1 4 2 4 6 4 5 5 36 66 57 98 91 65 69 96 100 100 100 100 100 100 100 100 100 100 100 100 50 36 83 88 95 21 33 65 87 88 94 95 97 87 94 99
0 1 0 0 2 5 1 2 5 5 5 53 99 93 70 100 59 90 64 80 99 100 100 100 100 99 100 100 100 100 100 100 64 74 68 100 100 62 49 86 84 94 100 100 100 100 100 100 100

GFSSGP_prec_cloud_012.txt.gz
Cloud_Cover
100 100 100 100 100 100 100 100 96 100 98 100 100 99 53 100 99 38 30 82 17 7 11 18 5 5 5 4 5 4 1 30 97 100 100 100 100 21 0 0 0 0 0 0 1 0 0 0 0
100 100 100 100 100 100 100 100 100 90 100 84 73 61 49 100 100 92 53 80 100 100 77 51 14 5 67 80 20 21 64 100 100 97 100 100 9 0 0 0 0 0 0 0 0 0 0 0 0
100 100 100 100 100 100 100 100 100 100 100 100 100 100 37 98 26 84 74 82 74 56 89 77 67 95 100 71 46 93 100 100 100 100 63 98 14 0 0 0 0 5 8 12 6 0 0 0 0
100 100 100 100 100 100 100 100 100 100 100 81 66 100 73 100 99 67 65 98 72 5 54 96 100 100 100 100 100 100 100 100 100 100 93 7 0 0 0 16 15 2 0 0 0 0 0 0 0
100 100 100 100 100 100 100 100 100 100 97 98 50 100 96 42 38 56 30 18 38 11 52 100 100 100 100 100 100 100 100 100 100 92 37 0 0 0 0 0 0 0 0 0 0 0 0 0 0
100 100 100 100 100 100 100 100 100 100 100 38 62 41 37 24 10 7 28 12 50 99 100 100 100 100 100 100 100 100 100 100 54 4 0 0 0 0 0 0 0 0 0 0 0 0 0 0 0
100 100 100 100 100 100 100 100 100 88 14 87 65 70 38 96 78 5 5 47 57 74 100 100 100 100 100 100 100 100 100 100 5 0 0 0 0 0 0 0 0 0 0 0 0 0 0 0 0
100 100 100 100 100 100 100 65 77 71 100 82 91 100 100 100 62 45 13 98 100 100 100 100 100 100 100 100 100 100 98 5 0 0 0 0 0 0 0 0 0 0 0 0 0 0 0 0 0
100 100 100 100 100 100 100 82 100 100 100 100 100 100 100 100 99 27 80 100 100 100 100 100 100 100 100 100 100 97 9 3 0 0 0 22 9 71 38 0 0 0 0 0 0 0 0 0 0
100 100 100 100 100 99 100 100 89 100 100 100 100 100 100 100 100 100 100 100 100 100 100 100 100 100 100 100 99 54 1 0 0 0 0 36 5 42 9 23 0 0 0 0 0 0 0 0 0
100 100 100 100 100 100 100 100 100 100 100 100 100 100 100 100 100 100 100 100 100 100 100 100 100 100 100 96 11 29 0 0 0 0 0 0 0 2 0 2 0 0 0 0 0 0 0 0 0
100 100 100 100 100 100 100 100 100 100 100 100 100 100 100 100 100 100 100 100 100 100 100 100 100 100 5 4 4 0 0 0 0 0 0 0 0 0 0 0 0 0 0 0 0 0 0 0 0
100 100 100 100 100 100 100 100 100 100 100 100 100 100 100 100 100 100 100 100 100 100 100 100 88 29 0 0 0 0 0 0 0 0 0 0 0 0 0 0 0 0 0 0 0 0 0 1 0
74 100 100 100 100 100 100 100 100 100 100 100 100 100 100 100 100 100 100 100 100 100 70 4 0 0 0 0 0 0 0 0 0 0 0 0 0 0 0 0 0 0 0 0 4 3 2 0 0
0 56 100 68 88 100 100 100 100 100 100 100 100 100 100 100 100 100 100 60 12 10 51 29 94 0 0 0 0 0 0 1 0 0 5 5 2 0 5 0 0 2 5 5 5 5 5 4 0
0 0 6 0 0 5 71 100 100 100 97 100 100 100 100 100 100 98 16 13 97 47 74 100 100 26 0 0 3 0 4 5 5 5 5 0 5 5 5 5 5 5 3 11 36 33 5 9 5
0 5 26 0 0 0 0 27 29 10 3 1 31 69 95 45 92 98 5 0 6 11 94 61 26 0 0 5 0 4 0 5 6 53 5 5 5 5 5 5 5 5 5 5 4 6 5 3 0
22 30 34 0 0 0 0 2 85 0 0 0 2 8 25 15 12 100 90 87 94 19 6 39 54 1 66 5 5 5 5 5 53 71 5 5 5 5 5 5 5 27 5 4 0 4 0 2 5
0 1 0 3 5 5 0 0 0 0 0 0 0 0 0 10 3 16 7 5 0 0 0 0 5 75 42 5 5 72 84 100 83 95 34 13 31 65 97 22 10 65 5 5 2 0 1 5 5
5 4 2 0 0 0 0 1 0 0 0 0 0 0 0 0 0 0 0 0 0 0 0 2 11 61 79 23 66 94 100 77 93 70 60 58 5 10 58 58 51 60 85 51 0 5 0 3 3
0 0 0 0 0 0 0 17 0 0 0 0 0 0 0 0 0 0 0 0 0 0 5 76 100 100 100 52 25 87 79 86 77 84 100 94 87 100 96 66 2 0 0 1 3 6 0 23 100
0 0 0 0 0 21 4 74 100 5 1 0 0 0 0 0 0 0 0 0 4 78 100 100 89 66 78 100 29 56 16 87 100 32 10 5 5 20 45 79 81 44 7 5 5 5 5 5 6
0 0 0 0 0 0 3 0 95 6 13 7 0 0 0 0 0 0 0 5 5 54 100 97 58 5 5 5 76 47 43 11 17 17 50 100 100 100 100 86 42 33 41 76 61 91 100 100 81
0 0 0 0 0 0 24 18 100 98 77 57 0 0 0 0 0 0 2 5 5 17 8 72 6 5 5 8 82 94 100 100 100 100 100 100 100 100 100 100 100 100 100 100 100 89 100 79 94
0 5 27 31 40 4 46 13 2 6 57 24 5 5 2 0 0 16 14 23 5 5 7 5 54 47 75 63 97 100 100 100 100 100 100 100 100 100 100 100 100 76 43 12 88 97 100 100 98
0 0 0 1 7 48 22 1 8 2 1 4 0 0 5 39 5 5 2 5 5 26 11 12 84 100 100 100 75 86 100 100 100 100 100 100 100 100 100 100 98 41 37 35 41 100 100 75 99
1 1 0 0 0 0 0 99 95 6 5 2 0 1 82 74 100 100 94 100 65 56 16 94 95 100 100 100 100 64 72 100 100 100 100 100 98 82 97 100 100 48 5 88 100 100 100 96 88
0 0 0 37 3 4 34 62 81 61 100 100 98 99 57 5 26 97 84 14 53 58 48 100 100 100 100 100 100 100 100 100 100 100 100 100 64 38 20 5 10 36 50 50 70 69 90 95 90
0 23 1 0 0 1 27 67 5 39 23 18 5 22 74 5 41 6 19 60 89 100 100 100 100 100 100 100 100 100 94 36 8 5 5 5 4 0 72 76 7 35 5 16 78 97 100 100 100
0 0 5 5 5 5 4 4 3 3 5 59 52 18 6 5 5 5 99 94 94 99 61 6 9 98 99 45 12 6 40 74 5 5 5 3 5 5 5 25 73 70 91 45 8 5 6 26 29

GFSSGP_prec_cloud_015.txt.gz
Cloud_Cover
100 100 100 100 100 100 100 100 100 100 100 100 70 100 100 98 37 89 64 32 12 5 38 56 13 5 5 4 5 5 3 2 1 5 10 100 100 100 100 100 79 0 0 0 0 0 0 0 0
100 100 100 100 100 100 100 100 100 100 100 66 53 94 100 100 100 11 53 95 63 14 24 26 16 32 5 5 4 4 5 2 5 85 59 100 100 100 92 33 5 0 0 0 0 0 0 0 0
100 100 100 100 100 100 100 100 100 100 100 100 93 100 100 100 100 92 61 100 24 19 93 83 6 13 5 5 5 5 5 7 64 100 100 100 100 100 20 2 4 0 0 0 0 0 0 0 0
100 100 100 100 100 100 100 100 100 100 100 100 99 100 100 100 100 92 100 99 97 99 83 18 23 15 5 61 39 50 95 100 100 100 100 100 100 100 5 3 0 0 0 0 0 0 0 0 0
100 100 100 100 100 100 100 100 100 100 100 100 100 100 100 100 100 100 97 40 97 97 89 76 95 77 99 100 94 100 100 100 100 100 100 100 94 5 0 0 0 0 0 0 0 0 0 0 0
100 100 100 100 100 100 99 100 100 100 100 100 100 100 100 100 100 100 42 48 100 98 76 100 100 89 91 100 100 100 100 100 100 100 100 100 100 0 4 0 0 0 0 0 0 0 0 0 0
100 100 100 100 100 100 100 100 100 100 100 100 100 100 100 99 22 30 21 96 100 99 100 100 99 100 100 100 100 100 100 100 100 100 100 100 40 4 0 0 0 0 0 0 0 0 0 0 0
100 100 100 100 100 100 100 100 100 100 100 100 100 100 100 78 83 42 66 100 100 100 100 100 100 100 100 100 100 100 100 100 100 100 100 57 0 0 0 0 0 0 0 0 0 0 0 0 0
100 100 100 100 100 100 100 100 100 100 100 100 100 100 100 92 49 59 94 100 100 100 100 100 100 100 100 100 100 100 100 100 100 85 18 0 0 0 0 0 0 0 0 0 0 0 0 0 0
100 100 100 100 100 100 100 100 100 100 100 100 100 100 94 88 100 100 100 100 100 100 100 100 100 100 100 100 100 100 100 55 0 0 0 0 0 0 0 0 0 0 0 0 0 0 0 0 0
100 100 100 100 100 100 100 100 100 100 100 100 100 100 100 100 100 100 100 100 100 100 100 100 100 100 100 100 100 100 33 0 0 0 0 0 0 0 0 0 0 0 0 0 0 0 0 0 0
100 100 100 100 100 100 100 100 100 100 100 100 100 100 100 100 100 100 100 100 100 100 100 100 100 100 100 100 100 28 4 0 0 0 0 0 0 0 0 0 0 0 0 0 0 0 0 0 0
100 100 100 100 100 100 100 100 100 100 100 100 100 100 100 100 100 100 100 100 100 100 100 100 100 100 100 100 83 3 0 0 0 0 0 0 0 0 0 0 0 0 0 0 0 0 0 0 0
100 100 100 100 100 100 100 100 100 100 100 100 100 100 100 100 100 100 100 100 100 100 100 100 100 100 100 100 81 42 19 2 0 0 0 0 3 5 4 0 0 0 0 0 0 0 0 0 0
51 100 100 100 100 88 100 100 100 100 100 100 100 100 100 100 100 100 100 100 100 100 100 100 100 100 100 100 100 100 100 5 0 0 0 1 5 5 5 5 0 0 0 0 0 0 0 0 0
0 22 100 100 100 100 100 99 85 38 91 100 100 100 100 100 100 100 99 57 27 99 100 98 68 100 100 100 100 98 87 2 0 0 0 0 3 5 4 5 3 0 0 1 1 1 0 0 0
3 18 7 89 100 21 0 0 0 2 0 1 56 53 71 49 22 12 33 5 68 25 2 39 4 11 100 100 98 53 5 5 5 5 5 5 5 4 5 5 5 5 11 5 5 5 5 3 5
5 55 74 2 0 0 0 1 48 0 0 0 0 2 0 5 17 5 5 5 5 4 0 0 0 0 4 5 4 5 5 5 5 5 23 5 5 5 71 86 40 61 24 69 34 3 4 1 4
99 57 5 0 0 0 0 0 0 2 5 5 5 0 0 0 0 0 0 4 5 5 5 4 2 0 7 0 5 63 16 64 29 5 76 83 83 11 78 6 5 5 4 0 0 1 5 5 5
42 4 5 0 0 0 0 2 0 0 1 1 0 0 0 0 0 0 0 1 4 5 6 60 36 60 6 5 5 19 64 9 82 90 76 83 56 37 5 1 0 0 0 2 5 4 4 5 5
5 2 0 0 0 0 0 0 0 0 0 0 1 0 0 0 0 0 0 0 0 0 4 41 100 99 59 5 25 38 10 5 36 85 61 89 92 92 4 4 3 0 0 0 0 4 3 2 4
0 0 0 0 0 0 0 4 0 0 0 0 1 0 0 0 0 0 0 0 0 4 5 5 17 100 81 71 8 5 34 25 62 89 45 50 74 50 34 9 5 5 3 5 5 5 5 5 5
0 0 0 0 0 0 0 23 100 40 5 0 6 0 3 5 0 0 0 0 0 0 0 5 5 5 14 4 31 88 94 95 54 84 100 71 7 52 41 7 40 93 100 100 97 100 98 68 73
0 0 0 0 0 0 0 16 75 7 79 2 6 98 39 86 0 0 0 0 0 0 4 4 2 0 0 3 4 59 97 98 100 100 100 100 100 100 100 99 75 14 5 5 5 5 4 5 37
0 0 2 5 4 4 15 40 99 68 28 80 5 5 5 0 0 0 0 4 3 3 5 5 64 100 71 38 5 5 7 17 36 38 42 96 89 38 12 6 5 3 0 1 6 23 99 94 100
0 0 0 1 5 4 5 59 52 15 18 35 91 62 5 5 5 5 5 20 65 100 86 63 100 100 100 100 99 92 87 94 100 100 100 98 28 6 5 4 3 4 5 7 11 33 76 100 41
0 0 0 0 0 0 1 5 91 86 96 54 100 100 100 49 98 10 5 5 4 9 13 36 80 88 86 100 99 100 100 100 99 87 21 7 9 4 5 3 3 5 5 5 9 59 42 28 86
0 0 0 0 2 1 1 28 5 47 13 57 100 100 93 31 9 5 5 5 5 5 5 5 6 17 56 23 19 37 88 96 37 5 5 3 1 0 0 0 0 5 5 5 5 14 38 88 100
0 0 0 0 0 5 4 1 5 5 26 51 5 31 5 5 43 55 18 5 5 5 5 5 19 20 17 16 6 20 5 5 5 5 0 0 0 0 0 0 1 5 5 68 59 60 5 3 5
0 0 2 0 2 5 5 1 0 3 35 35 95 59 5 5 43 5 3 5 5 20 5 5 5 5 5 5 5 5 22 41 77 5 5 72 1 18 43 6 5 0 0 5 0 5 5 5 5

GFSSGP_prec_cloud_018.txt.gz
Cloud_Cover
100 100 100 100 100 100 100 100 100 100 100 100 80 99 92 76 37 28 28 5 35 90 5 8 14 10 5 5 5 5 0 6 1 1 4 6 4 7 62 37 21 100 100 14 0 0 0 0 0
100 100 100 100 100 100 100 100 100 100 100 100 100 100 100 100 77 71 81 70 46 71 99 97 18 5 5 5 5 6 5 4 9 14 24 8 9 69 13 90 98 100 2 0 0 0 0 0 0
100 100 100 100 100 100 100 100 100 100 100 100 100 100 100 94 100 100 56 55 100 100 100 89 27 25 16 5 49 9 9 13 32 5 36 60 5 11 100 100 93 62 2 0 0 0 0 0 0
100 100 100 100 100 100 100 100 100 100 100 100 100 100 100 100 100 100 100 100 99 99 99 80 99 91 95 8 99 19 28 5 50 93 96 13 100 100 100 100 100 0 0 0 0 0 0 0 0
100 100 100 100 100 100 100 100 100 100 100 100 100 100 100 100 100 100 100 100 100 98 100 90 97 100 79 92 66 7 100 100 98 100 100 100 100 100 70 100 13 3 0 0 0 0 0 0 0
100 100 100 100 100 100 100 100 100 100 100 100 100 98 83 100 100 100 100 100 100 100 100 100 13 91 92 100 100 80 100 100 100 100 100 100 100 100 100 100 96 3 0 0 0 0 0 0 0
100 100 100 100 100 100 100 100 100 100 100 100 100 93 100 100 100 100 100 100 100 100 100 77 97 100 100 69 92 100 100 100 100 100 100 100 100 100 100 100 55 0 0 0 0 0 0 0 0
100 100 100 100 100 100 100 100 100 100 100 100 100 100 100 100 100 100 100 100 100 100 14 19 33 100 99 100 100 100 100 100 100 100 99 100 100 100 100 80 0 0 0 0 0 0 0 0 0
100 100 100 100 100 100 100 100 100 100 100 100 100 93 100 100 100 100 97 100 90 75 99 71 84 100 100 100 100 100 100 100 100 100 100 100 94 74 17 0 0 0 0 0 0 0 0 0 0
100 100 100 100 100 100 100 100 100 100 100 100 100 100 99 100 100 100 100 98 100 100 100 100 100 100 100 100 100 100 100 100 100 100 100 100 75 77 0 0 0 0 0 0 0 0 0 0 0
100 100 100 100 100 100 100 100 100 100 100 100 100 98 100 99 100 100 100 100 100 100 100 100 100 100 100 100 100 100 100 100 100 100 97 13 0 4 4 0 0 0 0 0 0 0 0 0 0
100 100 100 100 100 100 100 100 100 100 100 100 100 100 100 100 100 100 100 100 100 100 100 100 100 100 100 100 100 100 100 100 97 32 9 34 6 5 0 0 0 0 0 0 0 0 0 0 0
99 100 100 100 100 100 100 100 100 100 100 100 100 100 100 100 100 100 100 100 100 100 100 100 100 100 100 100 100 100 100 100 100 100 100 83 20 4 0 0 0 0 0 0 0 0 0 0 0
78 100 100 100 100 100 100 100 100 100 100 100 100 100 100 100 100 100 100 100 100 100 100 100 100 100 100 100 100 100 94 100 100 100 100 87 60 3 0 1 0 0 0 0 0 0 0 0 0
37 100 100 100 100 100 100 100 100 100 100 100 100 100 100 100 100 100 100 100 100 100 100 100 100 100 83 77 92 100 98 88 47 100 83 5 1 5 5 2 4 5 5 4 1 4 4 0 0
5 5 100 100 100 100 100 100 100 100 100 86 90 98 80 87 91 83 57 99 82 82 80 88 63 65 100 6 90 100 100 100 99 87 53 4 5 5 4 1 5 4 5 5 5 5 0 0 0
5 5 58 89 75 22 99 100 100 100 9 31 30 48 74 2 0 0 5 5 5 5 50 12 100 100 96 70 0 72 8 2 56 39 5 5 5 5 5 5 5 6 11 5 4 0 0 0 2
5 5 5 5 4 1 8 54 19 3 10 31 49 6 0 0 0 2 5 5 5 5 13 12 47 100 100 97 5 5 0 62 38 6 5 5 31 93 82 95 81 68 5 2 0 0 0 4 5
68 5 5 4 0 0 2 0 0 0 0 0 0 0 0 0 1 1 5 0 3 5 5 5 56 18 12 74 69 4 4 37 49 6 21 82 100 53 22 59 26 5 5 0 0 0 0 0 1
34 77 0 0 0 0 0 0 0 0 0 0 0 0 0 2 0 0 0 6 100 68 72 1 0 5 61 21 27 22 28 86 98 100 97 78 97 95 18 62 15 5 2 0 0 0 0 0 1
24 11 2 0 1 0 0 0 0 0 0 0 0 3 50 97 17 20 5 58 66 3 0 0 1 0 12 66 99 98 100 100 69 18 42 87 100 79 29 1 4 5 5 1 0 2 4 0 1
0 5 41 1 0 0 0 0 0 0 0 0 0 0 2 100 54 54 30 8 44 0 0 0 5 24 41 14 21 97 99 100 99 95 8 5 5 18 5 5 5 5 5 5 3 0 2 5 28
0 0 0 0 0 0 0 0 0 3 4 0 4 44 100 100 99 100 100 100 78 0 0 0 0 0 1 5 60 67 100 84 49 57 86 100 100 100 100 98 30 5 5 2 0 0 0 5 5
0 0 0 0 0 0 0 1 5 3 3 17 73 86 77 68 6 81 98 84 3 0 0 0 0 1 3 5 54 100 100 100 100 100 100 100 100 96 46 31 15 5 5 2 2 3 24 24 69
0 0 0 1 0 1 1 4 5 68 30 50 29 8 66 42 5 11 5 6 2 5 5 5 18 17 17 54 20 14 40 83 98 100 93 100 99 89 95 74 40 1 0 0 0 1 5 5 45
0 0 0 1 4 5 5 14 6 14 95 100 97 5 5 11 62 70 5 5 0 0 7 33 100 100 98 100 77 32 51 91 100 100 100 100 77 1 5 5 0 0 0 0 0 0 0 4 5
0 0 0 0 0 2 0 2 5 54 86 79 43 99 100 82 5 5 5 5 5 6 7 47 28 5 5 5 5 4 5 5 5 2 3 5 0 0 4 2 5 9 5 0 0 3 0 0 4
0 0 0 0 0 1 0 4 84 14 83 61 10 4 5 5 16 14 5 11 5 8 5 5 5 20 2 0 2 5 5 4 5 5 3 3 21 8 86 87 79 98 79 48 29 69 60 2 0
0 0 0 0 1 2 4 3 0 4 5 3 7 6 72 79 96 99 100 100 100 23 5 5 4 0 3 5 5 4 2 5 5 5 13 80 60 99 100 100 100 100 100 77 63 100 5 0 4
0 0 0 0 0 0 4 1 0 2 3 18 96 86 44 40 100 99 90 80 5 0 0 5 5 5 5 5 5 5 5 5 5 5 0 11 55 41 100 100 94 24 100 83 99 86 0 5 90

GFSSGP_prec_cloud_021.txt.gz
Cloud_Cover
100 100 100 100 100 100 100 100 100 100 100 100 100 100 100 100 100 100 75 97 68 53 12 47 28 5 20 50 8 5 10 88 3 3 2 0 0 0 0 0 6 2 0 5 4 4 12 0 0
74 100 100 100 100 100 100 100 100 100 100 100 100 100 100 100 100 100 100 78 100 76 82 100 96 16 12 5 5 14 6 4 10 8 1 3 0 0 0 3 5 0 4 5 5 19 6 0 0
100 90 87 100 100 100 100 100 100 100 100 100 100 100 100 100 100 100 100 64 99 96 95 100 100 99 79 97 64 5 4 2 8 5 5 4 3 3 5 4 5 23 22 93 4 92 4 3 0
100 83 94 100 100 100 100 100 100 100 100 100 100 100 100 100 100 100 100 100 100 100 100 99 98 100 46 5 12 31 4 82 20 5 5 5 5 58 5 5 5 77 43 100 88 0 0 0 0
100 93 98 100 100 100 100 100 100 100 100 100 100 100 100 83 100 100 100 80 100 100 90 94 98 100 100 100 100 69 55 5 5 5 13 19 6 10 36 5 28 58 100 19 14 0 0 0 0
100 100 100 100 98 100 100 100 100 100 100 100 100 100 100 100 100 100 100 100 100 100 94 100 100 100 100 100 100 90 86 6 23 34 98 100 53 60 5 53 90 90 79 43 1 0 0 0 0
100 100 100 100 100 100 100 100 100 100 100 100 100 100 100 100 100 100 99 97 100 100 100 99 98 100 100 100 100 100 89 96 100 100 72 57 39 83 61 96 23 100 97 25 0 0 0 0 0
100 100 100 100 100 100 100 100 100 100 100 100 100 100 100 100 100 89 100 100 96 90 100 100 100 100 100 92 84 100 100 100 100 95 100 100 100 100 7 40 31 23 76 0 0 0 0 0 0
89 100 100 100 100 100 100 100 100 100 100 100 100 100 100 100 100 100 100 100 100 100 100 100 100 100 100 100 100 100 100 100 100 100 64 100 100 100 100 62 24 4 0 0 0 0 0 0 0
100 100 100 100 100 100 100 100 100 100 100 100 100 100 100 100 100 100 100 97 100 100 100 100 100 100 100 100 100 100 100 100 100 100 100 100 100 100 100 13 2 0 0 0 0 0 0 0 0
100 100 100 100 100 100 100 100 100 100 100 100 100 100 100 100 100 100 100 100 100 100 100 100 100 100 100 100 100 100 100 100 100 100 100 100 100 100 81 6 4 0 3 3 0 0 0 0 0
100 100 100 100 100 100 100 100 100 100 100 100 100 100 100 100 100 100 100 100 100 100 100 100 100 100 100 100 100 100 100 100 100 100 100 100 71 94 52 2 15 5 6 3 0 0 0 0 0
100 100 100 100 100 100 96 98 100 100 100 100 100 100 100 100 100 96 100 100 100 100 100 100 100 100 100 100 100 100 100 100 100 100 100 60 9 76 27 11 16 8 73 1 4 5 4 0 0
100 100 100 100 100 100 100 100 100 100 100 98 100 100 100 100 100 100 100 100 100 100 100 100 100 100 100 100 100 100 100 100 100 100 100 100 100 60 62 38 8 5 3 0 4 2 0 0 0
100 100 100 100 100 100 100 100 100 100 100 100 100 100 100 100 100 100 100 100 100 100 100 100 100 94 100 68 88 36 35 100 100 100 100 100 100 86 1 25 10 2 0 0 0 0 0 0 0
20 94 100 100 100 100 100 100 100 100 100 100 100 100 100 100 98 83 83 62 50 74 8 82 90 100 100 100 100 69 66 82 8 1 1 30 36 13 5 1 5 4 5 5 1 1 0 0 0
52 89 28 89 100 100 100 100 100 100 100 100 100 73 62 98 100 99 95 64 6 24 37 83 100 100 100 100 100 100 27 11 5 5 3 5 5 9 5 5 5 34 9 6 5 4 0 0 0
62 54 23 9 5 30 75 35 100 100 100 100 100 100 100 89 89 64 36 31 70 86 71 100 100 100 100 100 100 99 80 57 58 26 20 86 84 92 97 93 41 5 5 5 5 0 0 0 0
15 4 5 5 5 41 58 31 31 53 95 100 5 5 1 1 0 4 0 2 5 5 100 100 100 100 100 100 97 80 5 43 14 90 100 100 100 100 93 5 5 11 5 5 0 0 0 0 0
5 4 4 5 5 5 5 4 0 0 1 1 0 0 1 5 8 88 8 25 38 99 82 55 32 100 99 78 6 10 76 78 100 97 79 95 91 86 82 35 5 3 0 2 2 0 0 0 0
0 3 5 4 2 2 2 0 0 0 0 0 0 1 46 30 5 23 98 93 5 5 4 3 2 1 3 5 5 23 25 5 5 34 11 5 5 2 1 5 8 20 5 5 5 0 0 0 0
2 1 0 0 0 0 0 3 0 0 0 1 1 0 5 15 68 66 29 5 75 5 5 5 5 5 4 5 44 68 63 12 5 5 5 5 5 19 24 5 100 76 26 5 5 5 0 0 0
0 0 0 0 0 0 0 0 0 0 0 1 5 5 26 90 22 9 82 60 99 86 7 10 5 1 1 5 8 99 100 100 75 29 24 100 99 76 76 100 98 81 67 3 0 0 5 5 6
0 0 0 0 0 0 0 0 0 0 0 4 29 100 100 92 91 14 28 100 31 84 41 35 13 5 7 5 16 63 91 94 100 100 100 100 100 99 79 25 4 2 0 0 2 9 36 4 5
0 0 0 0 0 0 0 0 0 0 2 10 84 38 74 89 12 5 100 100 100 99 32 26 7 100 91 57 38 45 95 100 100 100 100 88 10 5 5 5 3 1 0 1 3 5 7 42 67
0 0 0 0 0 0 0 0 0 0 5 13 6 2 3 5 88 100 100 100 97 38 5 5 5 15 16 62 93 88 74 100 72 8 5 5 5 4 5 5 5 5 86 90 63 99 100 98 89
0 0 0 0 0 2 0 0 0 0 4 5 4 3 14 99 66 0 0 1 5 5 8 5 5 5 5 1 2 5 5 1 5 5 5 5 1 5 7 13 29 94 66 68 100 62 92 83 3
0 0 0 0 0 0 0 0 0 0 2 5 29 100 32 5 2 4 5 5 19 37 46 30 5 5 5 3 4 5 5 5 5 5 2 3 1 54 100 100 92 100 91 100 100 100 95 49 98
0 0 0 0 2 2 4 0 0 1 2 5 3 0 2 5 5 24 33 22 5 26 34 51 5 28 5 1 5 5 5 5 5 5 2 14 62 100 88 54 91 100 100 100 100 100 100 100 100
0 0 0 0 0 2 4 1 0 0 0 0 3 5 5 5 82 87 93 100 100 100 96 92 100 86 6 5 5 0 4 5 2 2 5 16 4 5 5 5 56 100 100 100 100 79 100 92 35

GFSSGP_prec_cloud_024.txt.gz
Cloud_Cover
5 6 5 4 99 100 100 100 100 100 100 100 100 100 100 100 100 100 100 100 84 43 67 92 76 13 5 5 5 5 45 2 2 0 5 3 2 0 0 0 0 0 0 0 0 0 0 0 0
5 8 26 5 100 97 100 100 100 100 100 100 100 100 100 100 100 100 100 100 100 76 100 76 98 100 19 5 6 27 13 5 2 5 10 3 2 5 0 0 0 0 0 0 0 0 0 0 0
6 71 5 36 99 93 99 100 100 100 100 100 100 100 100 100 100 100 100 100 100 100 99 69 81 43 16 5 54 5 65 5 42 6 52 5 5 2 1 4 2 0 0 0 0 0 14 0 0
6 47 89 6 48 79 100 100 100 100 100 100 100 100 100 100 100 100 100 100 100 100 100 100 90 74 79 75 6 58 100 49 8 79 5 58 14 5 5 5 5 5 2 5 5 5 5 4 0
5 80 65 35 10 93 76 100 100 100 100 100 100 100 100 100 100 100 100 100 100 99 100 86 100 95 67 36 93 100 44 100 82 42 100 32 30 33 20 5 12 8 56 5 5 5 3 0 0
27 82 18 15 99 5 98 100 100 100 100 100 100 100 100 100 100 100 100 100 100 100 100 96 85 46 43 100 100 56 99 95 100 100 86 94 11 8 6 15 68 100 5 5 26 10 16 0 0
8 99 24 84 100 100 88 100 100 100 100 100 100 100 100 100 100 100 100 100 100 100 100 100 90 100 100 100 100 100 90 53 75 99 100 94 43 47 96 100 98 32 5 8 18 5 5 0 0
55 68 85 79 100 100 70 100 100 100 100 100 100 100 100 100 100 100 100 100 100 100 100 100 100 100 100 100 95 100 100 100 99 100 63 88 100 100 88 100 100 39 47 67 5 7 0 0 0
99 85 34 97 100 100 100 98 100 100 100 100 100 100 100 100 100 100 100 100 100 100 100 100 100 100 100 100 91 80 100 100 100 100 100 100 100 100 100 95 99 100 81 71 5 1 3 0 0
95 78 37 100 100 100 100 100 100 100 100 100 100 100 100 100 100 100 100 100 100 100 100 100 99 91 100 100 100 100 100 100 100 100 100 100 100 100 100 99 98 45 47 5 5 4 0 0 0
96 97 60 100 100 100 100 100 100 100 100 100 100 100 100 100 100 100 100 100 100 100 95 95 100 100 100 100 100 100 100 100 100 100 100 100 100 100 100 82 34 24 68 1 2 0 0 4 0
100 95 92 100 100 100 100 100 100 100 100 100 100 100 100 100 100 100 100 100 100 100 100 100 98 100 100 100 100 100 100 100 100 100 100 100 100 83 60 33 31 5 5 5 5 5 0 0 0
97 100 100 100 100 100 100 100 100 100 100 93 100 100 100 100 100 100 100 95 91 42 100 100 100 100 100 100 100 100 100 100 100 99 100 78 95 75 43 8 23 91 20 23 12 5 0 0 0
100 100 100 100 100 100 100 100 100 100 100 100 100 82 95 100 100 100 100 100 97 100 100 100 100 100 100 100 100 100 100 93 92 65 51 6 5 5 8 58 56 20 11 5 6 0 0 2 0
100 100 100 100 100 100 100 100 100 100 100 100 100 100 100 100 100 75 100 75 99 100 100 100 100 100 100 100 100 100 100 100 84 91 94 28 72 37 5 5 5 5 5 8 5 5 5 5 4
100 100 99 100 96 100 100 100 100 100 100 100 100 100 100 74 100 51 30 92 100 97 99 100 94 100 100 100 100 100 100 100 72 92 95 21 82 6 5 5 37 20 100 88 26 5 5 5 0
93 93 98 100 100 100 100 100 100 100 100 100 100 100 100 100 100 99 70 10 51 98 95 100 100 100 100 100 100 100 100 100 98 93 100 100 42 66 100 82 100 88 76 17 5 5 5 2 0
90 74 41 30 97 100 100 100 100 100 100 100 100 100 100 100 100 95 100 100 100 96 54 25 100 100 100 100 100 100 98 100 100 100 100 92 48 100 29 79 40 5 5 5 5 5 1 0 0
100 99 5 76 79 100 100 100 96 100 100 100 100 100 100 59 8 90 100 92 48 53 48 100 100 100 100 100 100 100 100 100 100 32 8 69 9 5 3 5 5 5 5 2 1 5 3 0 0
100 40 3 0 5 15 14 70 84 84 86 100 80 18 5 5 60 46 38 36 20 49 100 42 50 21 30 52 74 34 17 12 10 5 2 0 0 3 13 77 30 5 3 5 5 12 5 5 3
8 0 4 5 5 5 5 5 5 21 62 56 10 5 2 0 5 21 15 30 43 21 27 67 79 45 5 5 2 0 0 0 0 0 0 0 5 5 5 5 5 36 5 5 4 0 0 0 0
0 0 0 2 5 9 7 5 2 0 0 0 0 0 0 3 5 5 55 54 46 69 78 45 8 72 46 0 0 0 0 0 0 0 4 21 44 5 12 59 24 5 3 0 0 0 0 0 4
0 0 0 1 0 1 3 5 5 0 0 0 0 0 2 5 5 5 83 100 100 85 95 90 99 88 86 59 6 0 5 5 5 4 52 99 99 98 85 8 5 4 0 0 0 2 5 1 3
0 0 0 0 0 0 0 0 0 0 0 0 0 2 3 1 5 84 93 99 100 92 100 73 64 92 94 97 95 88 7 2 2 9 57 25 27 5 4 2 5 3 3 4 5 5 5 5 5
0 0 0 0 0 0 0 0 0 0 0 0 0 1 0 4 2 5 59 94 95 100 100 92 48 90 35 5 33 28 5 5 5 4 5 2 4 5 2 4 5 5 5 7 32 5 27 18 5
0 0 0 0 5 3 0 0 0 0 0 0 0 0 2 0 6 95 98 100 10 10 5 5 5 5 5 5 5 5 5 3 5 0 5 5 5 5 5 5 5 60 96 5 5 5 48 98 98
0 0 0 0 0 0 0 0 0 0 0 0 0 0 4 17 97 5 5 0 5 5 5 5 16 81 66 5 5 4 3 5 5 5 7 55 61 7 5 26 77 89 54 17 87 77 100 38 32
0 0 0 0 0 0 0 0 0 0 0 0 0 0 5 8 2 4 4 5 5 5 5 5 63 21 5 14 18 4 5 10 36 88 92 49 6 5 5 29 4 8 65 95 93 98 100 87 7
0 0 0 0 2 1 2 0 0 0 0 0 1 5 5 4 5 5 1 5 5 5 19 86 34 22 49 93 7 57 20 13 23 41 9 0 0 0 0 2 71 89 88 100 99 70 85 89 14
0 0 0 0 0 6 4 1 0 0 0 0 0 0 3 5 2 4 5 5 94 95 100 73 44 87 100 84 99 19 5 5 5 5 0 0 0 0 0 5 100 100 98 23 98 22 59 86 87

GFSSGP_prec_cloud_027.txt.gz
Cloud_Cover
0 0 0 4 0 2 4 72 27 100 100 100 100 100 45 94 100 100 100 100 100 100 100 100 100 100 71 17 5 5 5 5 4 5 5 2 1 4 48 0 0 0 0 0 0 0 0 0 4
0 0 0 1 0 0 2 1 43 100 100 100 100 100 100 100 100 100 100 100 100 100 100 100 100 100 97 45 93 90 5 5 5 5 14 15 4 0 5 1 0 0 4 2 2 0 1 5 5
0 0 3 1 1 2 5 5 100 82 98 100 100 100 100 100 100 100 100 100 100 100 100 100 100 75 95 76 5 5 5 12 5 5 38 3 0 4 7 4 2 2 2 1 0 0 5 5 5
0 4 4 0 1 0 46 98 5 84 91 100 100 100 100 100 100 100 100 100 100 100 100 100 97 50 29 89 21 5 5 6 40 96 3 5 34 81 2 5 64 64 4 15 2 5 27 25 34
0 4 4 2 2 5 4 22 56 82 100 100 100 100 100 100 100 100 100 100 100 100 100 94 100 91 93 96 100 100 100 92 53 5 33 90 5 5 5 96 5 9 7 73 13 52 86 74 80
5 5 5 0 18 5 12 19 54 100 100 100 100 100 100 100 100 100 100 100 100 100 100 100 100 100 100 100 100 100 100 10 76 68 65 5 5 53 82 94 5 14 5 100 99 95 58 6 32
44 61 12 5 50 53 26 88 100 100 100 100 100 100 100 100 100 100 100 100 100 100 100 100 100 100 100 100 100 57 90 100 97 27 92 70 100 100 94 48 86 17 100 59 56 68 5 5 5
44 6 5 26 100 73 98 100 100 100 100 100 100 100 100 100 100 100 100 100 100 100 100 100 100 100 72 100 78 69 100 100 48 81 99 100 100 100 100 60 100 55 18 48 5 60 5 5 6
99 70 66 98 100 100 100 100 100 100 100 100 100 100 100 100 100 100 100 100 100 100 100 100 100 95 100 100 100 100 100 47 100 100 100 100 100 75 92 86 67 100 75 5 16 4 5 4 0
84 100 86 100 68 100 100 100 100 100 100 100 100 100 100 100 100 100 100 100 100 100 100 100 100 100 100 100 100 97 98 96 100 100 100 100 100 100 87 100 55 34 5 5 5 0 1 0 0
96 100 100 100 100 100 100 100 100 100 100 88 100 100 100 100 100 100 100 100 100 100 100 100 100 100 100 100 68 98 100 99 100 100 100 100 100 100 100 54 8 22 5 0 2 2 5 75 3
100 100 88 100 100 100 100 100 100 100 98 100 100 100 100 100 100 100 100 100 100 100 100 99 100 100 97 100 100 100 100 100 100 100 96 52 73 63 100 69 6 12 5 5 5 5 4 0 0
100 100 100 100 100 100 100 100 100 100 100 100 100 100 100 100 100 100 100 100 100 100 100 100 100 100 100 100 100 100 100 100 100 100 72 88 66 55 47 5 5 5 5 5 4 5 5 5 0
100 100 100 100 100 100 100 100 100 100 100 100 100 100 100 99 100 100 100 100 100 99 100 100 96 100 100 98 100 100 100 100 100 100 98 6 8 5 5 5 5 5 5 5 4 2 5 0 0
100 100 100 100 100 100 100 100 100 100 100 100 100 100 100 100 100 99 100 100 88 84 100 92 97 45 100 100 100 100 100 100 100 100 100 100 93 49 19 6 46 92 22 5 82 5 6 0 0
100 100 100 100 100 100 100 100 100 100 100 100 100 100 100 100 100 100 58 27 51 29 88 96 100 100 100 100 100 100 100 100 100 100 100 100 100 100 99 100 89 89 48 100 17 4 1 5 5
100 100 100 100 100 100 100 100 100 100 100 100 100 100 100 100 100 99 67 38 100 100 94 100 100 100 100 100 100 100 100 100 100 100 100 100 100 100 77 35 50 26 3 3 5 14 26 56 65
100 100 100 100 100 100 100 100 100 100 100 100 100 100 100 100 100 100 100 100 100 100 100 93 100 98 100 100 100 100 100 100 100 100 100 100 100 82 5 3 0 3 5 6 74 84 70 11 5
99 100 100 100 100 67 89 100 100 100 100 100 100 100 100 100 98 100 100 100 91 90 85 100 66 100 100 100 100 100 100 100 100 100 100 98 2 0 0 4 5 5 4 2 1 3 1 1 2
99 100 100 100 98 93 57 8 5 14 18 8 5 5 7 77 100 91 82 84 47 23 40 68 70 76 100 100 100 80 36 60 100 93 28 0 0 0 0 2 1 5 5 5 4 0 0 0 0
85 55 79 91 99 58 25 11 5 8 6 5 22 85 90 89 99 76 69 42 18 5 5 28 27 12 30 70 22 0 0 0 0 0 0 2 5 2 37 65 11 5 4 4 4 5 5 1 2
100 100 99 35 3 8 52 71 94 45 6 5 6 21 54 59 33 19 17 5 5 30 5 35 8 22 69 5 3 5 5 45 19 5 0 2 15 4 5 5 5 5 5 5 3 0 0 3 0
63 11 4 5 26 35 5 5 5 5 5 5 2 2 0 0 0 0 1 5 32 34 5 5 28 26 25 87 20 14 5 5 2 0 0 0 4 28 10 5 5 3 0 0 5 5 5 5 2
0 0 2 5 5 4 3 1 0 0 0 0 0 0 0 0 0 3 5 5 16 5 83 97 96 82 95 84 29 5 5 5 5 5 4 4 1 0 0 0 0 0 5 5 5 5 44 5 5
0 2 2 0 0 0 0 0 0 0 0 0 0 0 0 0 5 5 22 57 93 25 20 21 5 22 48 5 5 5 5 35 5 1 2 0 0 0 0 4 5 7 6 83 5 5 5 5 5
0 0 0 0 0 0 0 0 0 0 0 0 0 0 0 0 5 5 84 100 90 3 5 53 5 5 30 52 12 12 93 72 5 3 5 0 5 8 44 30 24 5 58 3 5 5 6 62 56
0 0 0 0 0 0 0 0 0 0 0 0 0 0 0 0 5 81 69 5 1 0 2 5 5 73 76 83 15 8 32 35 5 5 5 5 21 76 7 5 5 0 0 9 96 5 37 50 75
0 0 0 0 0 0 0 0 0 0 0 0 3 0 0 3 5 5 1 4 0 2 5 5 60 97 97 11 6 42 98 17 5 5 8 55 16 5 5 4 3 5 5 79 94 27 75 25 30
0 0 0 0 0 0 0 0 0 0 0 1 0 0 0 5 4 0 5 0 5 5 5 7 56 92 8 48 98 69 5 6 12 5 5 5 5 5 5 5 5 3 5 41 14 21 13 63 48
0 0 0 0 0 1 0 0 0 0 0 0 5 5 2 0 1 3 2 5 5 51 76 73 98 11 81 100 93 41 16 6 5 5 5 5 5 3 5 5 5 5 78 25 44 5 52 99 15

GFSSGP_prec_cloud_030.txt.gz
Cloud_Cover
0 0 0 0 0 1 20 27 5 5 10 49 99 100 100 100 100 96 100 99 97 100 100 100 100 100 100 100 100 100 76 93 80 42 4 5 0 0 6 4 5 0 0 2 4 1 0 0 0
4 0 0 0 0 1 76 2 39 86 31 19 87 100 100 100 100 100 100 100 100 100 100 100 100 100 100 100 100 100 100 71 21 5 5 3 4 23 14 24 5 5 20 5 5 0 0 0 3
5 0 0 0 1 3 50 54 25 36 73 29 80 98 94 100 100 100 100 100 100 100 100 100 100 100 100 90 89 100 100 12 5 5 5 5 45 98 98 61 21 13 5 2 2 28 15 3 8
2 5 0 3 5 5 16 100 22 4 10 75 100 100 100 100 100 100 100 100 100 100 100 100 100 100 100 89 100 100 90 42 5 5 9 73 100 24 5 7 8 5 5 5 5 7 50 5 5
0 0 0 5 5 0 2 61 42 36 35 100 81 100 100 100 100 100 100 100 100 100 100 100 96 97 75 99 24 79 83 15 100 98 98 40 5 11 5 5 5 23 5 40 8 7 62 5 88
35 58 5 82 95 5 2 8 100 100 97 100 100 98 100 100 100 100 100 100 100 100 100 100 100 100 100 100 76 99 92 100 95 100 75 77 91 9 5 87 31 54 99 88 62 82 13 82 30
45 22 85 83 100 5 34 22 100 93 100 100 100 100 100 100 100 100 100 100 100 100 100 100 100 100 80 89 100 100 100 100 100 100 100 90 20 6 66 100 84 53 100 100 100 52 76 49 81
100 67 25 100 98 68 69 76 97 100 100 100 100 100 100 100 100 96 100 100 100 100 100 100 100 100 100 100 100 100 100 100 100 100 54 24 18 87 100 100 100 100 100 93 87 100 56 25 99
10 23 14 100 85 100 93 96 98 100 100 100 100 94 100 100 100 100 100 100 100 100 100 100 100 100 100 100 100 100 100 100 100 89 100 100 100 97 100 100 100 99 85 98 89 30 81 46 14
73 51 84 95 78 100 100 100 100 100 100 100 100 91 100 100 100 100 100 100 100 100 100 100 100 100 100 100 100 100 100 100 100 100 100 100 100 100 100 100 94 5 5 5 11 5 5 2 0
100 99 27 100 100 100 100 100 100 100 100 100 100 100 100 100 100 100 100 100 100 100 100 100 100 100 100 100 100 100 100 100 100 100 100 100 100 100 12 5 5 7 5 18 5 7 0 0 0
89 100 100 100 95 100 100 100 100 100 100 100 100 100 89 100 100 100 100 100 100 100 100 100 100 100 100 100 100 100 100 100 100 100 100 100 72 6 5 4 5 2 0 5 5 0 4 0 0
100 100 100 100 100 100 100 90 100 100 100 100 100 100 100 100 100 100 100 100 100 100 100 100 100 100 100 100 100 100 100 100 100 100 100 100 95 36 67 10 52 100 91 12 7 40 5 5 2
100 100 100 100 100 100 90 88 99 100 100 100 100 100 100 100 100 100 100 100 100 100 100 100 100 100 100 100 95 81 82 100 100 100 100 100 100 100 100 100 100 66 5 46 100 71 41 22 2
100 100 100 100 100 95 99 100 100 100 100 100 100 100 100 100 100 100 100 100 100 100 100 100 98 84 80 59 69 100 100 100 100 100 100 100 100 100 100 100 100 100 100 100 100 85 5 3 0
100 100 100 100 100 100 100 100 100 100 100 100 100 100 100 100 100 85 98 85 94 80 97 100 68 98 61 99 100 100 100 100 100 100 100 100 100 100 100 100 100 100 98 100 100 100 19 0 2
100 100 100 100 100 100 99 100 100 100 100 100 100 100 100 92 100 100 100 99 100 100 100 79 79 78 99 100 100 100 100 100 100 100 100 100 100 100 100 100 100 100 100 100 100 21 0 0 0
100 100 100 100 100 100 100 100 100 100 100 100 100 100 100 100 100 100 100 100 100 95 88 97 100 96 100 100 100 100 100 100 100 100 100 100 100 100 100 100 100 100 100 76 14 0 0 0 0
100 100 100 100 100 100 100 100 100 100 100 100 100 100 100 100 100 100 100 32 12 62 98 100 99 100 100 100 100 100 100 100 100 100 100 100 100 100 100 98 24 1 0 2 2 0 0 0 3
100 100 100 100 100 98 100 100 100 100 100 100 94 69 96 85 92 47 15 83 88 41 85 67 57 90 18 73 93 97 90 100 100 96 99 100 100 78 0 0 2 0 0 1 3 6 10 5 5
100 100 100 100 100 100 100 90 8 5 5 5 22 99 100 100 75 36 75 89 80 97 100 97 53 20 29 90 93 91 63 23 70 45 11 5 3 0 1 0 0 4 16 44 20 12 5 5 5
100 100 100 100 92 80 26 91 5 3 1 5 24 82 78 61 87 40 44 52 19 21 92 35 5 5 32 77 70 5 5 5 5 5 5 5 5 4 0 1 1 1 1 0 0 4 5 5 5
100 100 100 45 40 26 6 0 1 5 6 46 22 5 1 2 2 4 1 5 5 5 5 5 40 68 28 6 5 5 5 5 5 5 80 87 63 5 4 0 0 0 0 0 4 5 6 5 6
100 94 91 28 2 0 3 4 5 5 2 0 3 3 15 0 0 4 4 5 5 5 5 5 5 5 5 5 5 5 5 17 5 28 100 98 18 5 3 0 0 2 5 3 30 71 76 100 93
89 12 4 0 0 3 3 0 0 0 0 0 0 0 0 0 0 3 5 5 5 5 5 5 5 5 5 5 6 54 63 72 81 75 71 68 8 5 4 3 5 5 5 6 57 82 36 81 86
0 2 0 0 0 0 4 4 0 0 0 0 0 0 0 0 0 2 5 5 5 52 5 1 1 5 5 5 5 56 44 45 93 93 92 0 0 4 5 5 5 5 24 85 84 91 34 99 88
0 0 1 4 5 1 0 0 0 0 0 0 0 0 1 5 5 1 5 5 5 5 0 0 5 5 14 30 94 95 97 93 93 45 5 5 27 21 5 5 5 5 5 36 89 46 70 84 100
0 3 4 1 0 0 0 0 0 0 0 0 5 5 4 5 1 4 5 5 5 0 2 5 5 7 11 100 100 91 30 81 96 56 42 58 8 5 5 5 6 5 5 46 34 88 95 87 100
0 0 0 0 0 0 0 0 0 0 5 5 5 5 5 5 3 5 5 5 5 5 5 5 26 93 91 100 97 51 82 96 79 51 27 5 5 5 5 5 5 5 13 90 99 85 82 100 100
0 0 0 0 0 0 0 0 0 2 5 5 5 5 5 5 5 5 5 5 5 6 55 89 67 62 67 96 27 90 95 50 5 5 5 5 5 10 5 5 5 38 100 98 92 86 100 99 100

GFSSGP_prec_cloud_033.txt.gz
Cloud_Cover
5 34 0 0 0 0 1 24 100 31 15 49 64 100 55 98 62 100 99 100 91 76 40 91 100 100 90 62 88 100 99 98 100 100 100 71 34 7 47 76 5 5 5 5 6 5 6 0 2
88 61 23 5 0 1 12 98 4 0 64 92 64 42 8 65 86 60 92 100 100 100 88 99 100 100 95 5 16 94 94 100 100 61 100 90 26 5 5 99 72 9 46 5 5 16 5 1 2
75 96 84 6 5 5 90 100 4 2 10 63 45 13 9 99 98 98 93 97 100 100 100 100 100 100 99 100 5 24 28 99 71 52 7 67 13 5 5 16 59 5 10 56 9 10 4 5 3
100 51 75 5 5 98 45 23 5 64 4 31 46 62 65 19 70 38 81 95 100 100 100 100 100 100 100 100 100 91 38 55 13 5 5 5 86 98 5 8 5 5 5 5 5 5 8 80 100
19 57 5 5 45 89 44 84 62 17 70 86 48 63 100 100 90 68 64 90 79 100 100 100 100 100 100 100 100 92 100 76 18 12 97 100 100 100 100 88 64 5 5 5 6 99 93 5 34
0 2 4 36 100 66 56 12 53 1 19 40 58 85 56 100 100 100 100 100 100 100 100 100 100 100 100 100 100 100 100 100 98 99 100 100 100 100 100 89 91 100 5 5 63 94 100 100 74
5 31 78 97 53 71 100 37 82 93 64 38 80 99 62 97 87 99 100 100 100 100 100 100 100 100 100 100 100 100 100 100 100 100 100 100 100 100 79 58 100 100 100 100 100 86 100 83 27
12 97 44 94 96 68 97 11 19 28 51 100 50 100 45 44 100 93 100 100 100 100 100 100 100 100 100 100 100 100 100 100 100 100 100 100 100 100 100 100 100 100 61 76 100 100 8 14 47
55 100 100 100 100 61 80 15 24 40 98 100 93 100 98 74 73 88 97 100 100 100 100 100 100 100 100 100 100 100 100 100 100 100 100 100 100 100 100 100 100 100 100 99 6 34 8 5 5
100 100 100 65 74 100 100 22 73 100 99 97 99 100 100 100 100 100 100 100 100 100 100 100 100 100 100 100 100 100 98 100 100 100 100 100 100 100 100 100 100 100 100 98 5 6 4 0 0
7 100 86 98 100 99 32 63 100 100 100 100 100 100 100 100 100 100 100 100 100 100 100 100 100 100 100 100 100 100 100 100 100 99 100 100 100 100 100 100 100 100 99 9 4 0 5 22 3
100 100 100 100 100 100 42 82 100 100 100 100 100 100 100 58 93 100 100 100 100 100 100 100 100 100 100 100 100 100 100 100 100 100 100 100 100 92 100 100 76 13 47 22 92 8 5 9 59
100 100 100 100 100 100 53 66 100 100 100 100 100 100 100 89 10 100 100 100 100 100 100 100 100 100 100 100 100 100 100 100 100 100 100 100 100 100 100 100 78 69 88 41 6 56 95 100 98
100 100 100 100 100 100 94 100 76 78 100 100 100 100 100 94 100 91 97 100 100 100 100 100 100 100 100 100 100 100 100 100 97 100 100 100 100 100 100 100 86 88 100 100 100 84 100 100 87
100 100 100 100 98 43 100 100 100 100 96 94 100 100 100 100 100 100 100 100 100 100 100 100 100 100 100 100 100 100 100 100 100 100 96 99 100 100 100 100 100 100 100 100 100 100 100 100 100
100 100 100 100 100 100 100 100 100 100 100 100 100 100 100 100 100 100 78 100 77 14 99 99 100 100 100 100 99 100 100 100 100 100 100 100 100 100 100 100 100 100 100 100 100 91 99 96 100
100 100 100 100 100 100 100 90 100 100 100 100 100 100 100 100 100 100 100 56 70 100 100 91 73 84 80 98 100 100 100 100 100 100 100 100 100 100 100 89 71 88 58 47 100 86 63 98 46
100 100 100 100 96 100 100 97 100 100 100 98 100 100 100 100 100 100 100 100 100 100 99 100 100 100 98 86 94 94 100 100 100 100 100 100 100 100 100 100 100 85 94 99 79 56 6 2 0
100 100 100 100 100 95 100 100 100 100 100 100 100 100 100 100 100 100 100 100 100 100 100 100 100 84 32 77 76 95 44 82 100 100 40 57 68 100 100 100 100 100 100 100 100 7 0 0 0
100 100 100 100 100 100 95 100 100 100 100 100 100 100 100 100 100 100 100 100 100 97 100 100 97 73 97 83 22 5 13 46 76 4 49 62 62 2 5 5 4 25 3 0 0 2 3 0 3
100 100 100 100 100 100 100 100 100 100 100 100 100 100 100 100 100 100 100 81 61 97 100 100 100 41 98 78 24 47 80 57 5 14 61 71 5 5 5 5 5 5 0 0 4 5 4 5 5
100 100 100 100 100 100 100 100 100 100 91 94 100 100 100 65 13 21 24 70 100 100 100 80 56 55 9 5 5 5 5 82 38 5 14 5 5 15 20 5 2 0 3 1 5 5 5 5 9
100 100 100 100 100 100 100 94 100 85 37 63 23 5 5 12 64 63 24 52 64 4 7 78 14 5 5 5 5 5 5 5 5 10 17 16 35 7 5 4 4 2 5 5 5 8 54 5 27
100 90 61 91 100 100 83 100 100 73 29 52 16 37 14 4 2 26 16 2 0 2 5 25 5 6 2 5 5 5 5 5 10 76 5 47 56 38 16 5 4 5 5 5 5 62 5 96 20
99 90 100 100 100 32 44 1 7 88 14 4 1 0 0 0 3 0 0 0 0 4 5 7 5 5 1 2 5 5 5 5 44 36 76 70 73 42 77 5 5 5 5 5 5 20 11 38 35
100 100 100 90 100 46 14 5 22 4 2 0 0 0 1 0 0 0 0 0 3 5 5 5 5 0 0 2 5 21 50 25 59 94 60 68 95 100 6 5 5 5 5 5 5 62 93 54 15
100 86 3 0 5 5 4 11 2 0 0 0 0 0 0 0 0 0 0 0 1 5 5 5 6 21 32 5 5 5 5 43 100 60 14 82 59 5 5 5 5 5 5 5 5 38 78 96 98
20 3 5 5 4 0 86 1 72 0 0 0 0 0 0 0 0 0 1 5 5 5 10 14 27 40 5 5 5 9 65 100 62 5 42 99 28 7 5 5 5 5 5 5 5 53 21 66 67
5 0 0 1 1 0 1 15 0 0 0 0 0 5 1 1 5 5 5 5 5 15 19 5 5 5 5 5 10 32 90 100 44 14 97 60 5 5 5 5 5 5 5 5 5 5 21 36 78
5 4 5 0 0 0 0 0 0 0 0 0 5 5 5 5 5 15 13 5 5 25 15 5 5 5 42 92 62 94 100 37 15 62 87 5 5 5 5 5 5 5 7 5 55 95 100 78 83

GFSSGP_prec_cloud_036.txt.gz
Cloud_Cover
3 5 5 5 0 0 0 0 95 5 68 100 2 2 55 4 80 68 88 98 99 100 100 91 92 64 98 100 100 100 81 15 75 100 91 6 5 68 45 9 12 5 2 5 4 4 0 1 0
4 4 5 5 5 4 3 50 100 0 1 98 2 40 8 41 92 59 95 77 13 48 77 100 82 100 100 100 100 100 100 84 82 75 50 39 18 5 4 19 5 5 11 10 5 4 3 3 0
84 16 66 58 34 5 74 77 95 33 11 0 1 99 71 80 100 76 70 94 45 64 78 89 69 100 100 100 100 100 100 94 79 69 100 98 82 11 9 5 5 92 96 99 50 31 5 2 13
100 100 94 100 100 100 100 27 0 29 4 0 10 5 13 100 98 91 99 100 23 28 70 67 45 100 100 76 99 100 100 84 100 100 100 100 86 10 5 100 100 100 100 100 100 100 100 26 7
34 80 100 100 72 100 100 6 0 1 6 9 22 1 0 5 32 67 66 75 95 96 100 77 100 100 100 100 100 100 97 100 100 100 100 100 100 100 100 100 100 100 100 57 100 100 74 100 98
97 100 100 100 100 100 100 0 3 0 98 82 29 29 8 0 5 97 72 100 100 100 100 100 100 100 100 100 100 100 99 100 100 100 100 100 100 100 100 100 100 100 100 100 100 100 100 100 100
100 51 6 78 100 29 23 3 4 49 100 99 100 85 70 0 12 100 96 100 100 100 100 100 100 100 100 100 100 100 100 100 100 100 100 100 100 100 100 100 100 100 100 100 100 100 100 100 100
26 4 29 62 56 64 89 78 5 77 100 100 5 8 38 3 30 76 100 100 100 100 100 100 100 100 100 100 100 100 100 100 100 100 100 100 100 100 100 100 100 100 100 100 100 100 100 98 100
98 5 80 100 99 84 42 100 61 99 100 100 6 97 62 23 52 90 100 100 100 100 100 100 100 100 99 100 100 100 100 100 100 100 100 100 100 100 100 100 100 100 100 100 100 61 94 100 48
5 8 66 100 98 94 100 100 100 74 39 5 0 64 100 100 86 100 100 100 100 100 100 100 100 100 100 100 100 100 100 100 100 100 100 100 100 100 100 100 100 100 99 90 100 100 35 4 8
28 83 100 100 99 100 100 100 100 10 4 74 24 10 99 99 97 96 98 99 100 100 100 100 100 100 100 100 100 100 100 100 100 100 100 100 100 100 100 100 100 100 100 100 100 96 31 5 5
6 62 100 100 100 100 100 100 100 37 95 94 100 98 79 99 100 100 100 100 100 100 100 100 100 100 100 100 100 100 100 100 100 100 99 73 98 100 100 100 100 100 100 100 100 61 8 37 74
58 86 66 50 100 80 100 94 100 100 100 100 100 100 96 100 80 100 100 100 100 100 100 100 100 100 100 100 100 100 100 100 100 100 100 100 99 100 100 100 79 96 79 46 5 10 55 86 100
100 100 98 100 100 99 68 87 100 100 100 100 100 100 100 100 99 86 100 100 100 100 100 100 100 100 100 100 100 100 100 100 100 100 100 100 100 100 100 100 99 95 100 71 63 100 100 80 100
99 100 100 100 100 100 100 100 97 84 100 64 100 100 100 100 100 100 70 100 100 100 100 100 100 100 100 100 100 100 100 100 100 100 100 100 100 100 100 100 92 90 100 100 100 100 100 100 100
100 100 100 100 100 100 100 100 98 100 9 98 90 91 100 100 100 100 100 100 99 100 100 100 100 100 100 100 100 100 100 100 100 100 100 100 99 70 88 87 100 100 100 100 100 100 87 18 87
100 100 100 100 100 100 100 98 99 100 100 100 96 100 100 100 100 100 100 100 100 100 100 100 100 100 100 100 100 100 100 100 100 100 100 100 93 100 100 100 100 98 81 100 100 100 100 100 100
100 100 100 100 100 100 100 96 82 100 100 67 92 97 100 100 100 100 100 100 100 97 31 58 47 33 68 52 69 69 99 99 81 39 5 6 49 93 94 100 98 58 71 84 97 50 32 19 0
100 100 100 100 98 100 100 80 87 98 100 100 100 100 64 100 100 100 97 50 100 100 100 100 100 100 100 100 100 100 93 45 21 5 5 2 0 0 0 0 0 0 0 0 0 0 0 0 0
100 100 100 100 100 100 100 100 100 100 99 100 100 100 100 100 100 91 100 100 100 95 100 100 100 87 100 100 38 7 5 5 5 2 0 1 5 5 5 0 3 1 5 3 0 0 0 0 0
100 100 100 100 98 100 100 100 100 100 100 100 100 100 100 100 100 100 100 100 100 100 100 100 100 100 76 100 30 6 3 0 0 3 5 5 5 5 0 4 5 5 5 4 0 0 0 3 0
100 64 100 95 95 100 100 100 100 100 100 68 100 100 100 100 100 100 100 100 100 100 100 100 78 73 27 100 5 4 0 0 0 0 0 5 5 2 5 5 5 5 5 0 0 0 2 0 3
65 100 30 100 100 100 100 72 100 100 87 100 99 97 74 6 7 24 6 40 100 100 100 94 22 6 92 29 2 0 57 98 83 5 18 54 19 5 5 3 5 5 5 2 3 2 21 78 34
64 88 100 100 100 100 100 99 100 73 100 100 100 3 7 35 11 31 83 35 26 21 1 0 16 80 11 5 6 4 3 5 5 5 5 23 15 74 6 5 5 5 0 0 1 3 6 5 4
100 100 100 100 100 100 100 100 100 62 100 93 100 19 13 24 5 4 90 62 76 53 85 43 41 4 5 5 0 0 0 2 5 5 5 73 97 89 5 5 29 4 0 0 2 5 5 5 10
83 100 100 100 100 97 99 100 82 0 1 71 68 15 4 0 1 6 46 91 31 0 8 5 1 2 5 5 4 5 5 5 5 5 72 82 100 37 5 41 8 5 5 5 5 5 5 81 71
77 95 100 96 100 100 11 4 5 5 9 5 4 1 0 0 19 6 0 0 0 0 0 0 3 5 5 5 5 5 5 5 5 34 70 100 100 86 5 5 12 40 5 5 5 5 5 36 32
100 100 100 96 54 10 71 81 96 67 5 2 0 0 0 0 31 0 0 0 0 0 0 3 5 5 27 5 5 5 5 67 48 63 100 100 92 15 10 60 100 78 45 7 5 5 13 5 8
100 100 98 64 59 48 5 82 17 1 0 0 0 1 0 0 0 0 0 0 0 0 4 5 6 60 20 5 8 5 5 45 84 98 100 100 99 69 39 99 100 100 100 51 20 78 5 5 31
100 98 26 6 5 0 0 0 0 0 0 0 0 1 2 0 0 0 0 0 4 19 38 71 47 52 6 5 5 19 100 100 100 100 100 100 85 94 100 100 100 100 98 79 100 64 62 74 100

GFSSGP_prec_cloud_039.txt.gz
Cloud_Cover
33 42 0 0 0 0 2 0 0 0 0 4 100 94 98 99 76 49 33 3 29 87 59 99 100 100 100 100 100 84 81 59 82 100 74 89 100 95 91 89 18 5 4 2 0 4 4 8 89
18 29 5 0 0 4 5 3 2 2 1 49 3 100 77 90 22 100 79 26 59 97 80 62 78 100 84 95 100 99 100 100 100 100 99 100 98 100 100 100 100 99 73 9 2 5 5 57 6
81 75 4 0 0 26 17 7 5 5 50 97 5 15 99 89 77 100 93 47 36 43 56 85 100 97 74 100 100 100 90 100 100 99 100 100 100 100 100 100 98 100 100 6 60 58 82 57 5
100 45 4 5 5 100 88 69 5 41 0 91 5 2 0 7 11 83 88 50 50 98 96 100 100 100 100 100 100 100 100 100 78 100 100 100 100 100 100 100 100 98 79 89 97 96 100 94 91
98 68 100 100 100 100 61 84 9 5 0 1 0 5 0 0 1 4 72 100 100 100 100 100 100 100 100 100 100 100 100 100 100 100 100 100 100 100 100 91 92 98 83 100 100 100 100 100 82
11 99 100 100 100 100 100 100 45 63 2 0 0 0 26 1 4 47 98 100 100 100 100 100 100 100 100 100 100 100 99 99 100 100 100 100 100 100 100 100 100 100 100 100 100 100 77 100 100
100 100 97 100 100 100 26 9 22 100 87 0 0 88 9 5 79 98 99 100 100 100 100 100 100 100 100 100 100 100 100 100 100 100 100 100 100 100 100 100 100 100 100 99 99 100 86 98 80
100 100 100 100 100 98 83 98 100 100 100 100 0 100 5 55 60 85 99 100 100 100 100 100 100 100 100 100 100 100 100 100 100 100 100 100 100 100 100 100 100 100 100 100 100 99 72 86 51
100 100 100 100 98 100 100 100 100 100 100 42 88 12 68 97 62 82 98 100 100 100 100 100 100 100 100 100 100 100 100 100 100 100 100 100 100 100 100 100 100 100 100 100 100 100 100 45 80
100 100 100 69 100 98 92 100 100 100 100 98 43 5 87 100 100 69 93 100 100 100 100 100 100 100 100 100 100 100 100 100 100 100 100 100 100 100 100 100 100 100 100 100 100 68 99 100 100
100 100 82 86 60 72 47 100 100 100 99 99 17 80 82 100 100 100 96 100 100 100 100 100 100 100 100 100 100 100 100 100 100 100 100 100 100 100 100 100 100 100 100 100 100 94 100 100 100
100 87 86 100 98 66 100 100 100 98 100 100 41 52 100 100 100 100 100 100 100 100 100 100 100 100 100 100 100 100 100 100 100 100 100 100 100 100 100 100 100 100 94 95 100 100 17 99 95
100 98 100 98 93 100 100 100 100 100 100 98 66 99 100 100 100 100 100 100 100 100 100 100 100 100 100 100 100 100 100 100 100 100 100 100 100 100 100 100 100 100 100 100 100 95 78 100 100
83 100 52 98 90 100 100 92 100 99 100 100 100 100 100 36 66 100 100 100 100 100 100 100 100 100 100 100 100 100 100 100 100 100 100 100 100 100 100 100 100 100 85 100 100 38 63 98 93
100 100 100 65 25 100 100 100 100 100 100 100 100 100 100 100 80 88 86 100 100 100 100 100 100 100 100 100 100 100 100 100 100 100 100 100 100 100 100 100 100 100 100 100 100 97 80 95 8
29 100 100 100 86 100 100 100 100 100 100 100 100 100 100 100 100 100 100 100 100 100 100 100 100 100 100 100 100 100 100 100 100 100 100 100 100 88 98 100 94 36 10 26 4 37 4 2 4
78 98 100 100 57 100 100 91 100 100 100 41 100 91 100 100 100 100 100 100 100 100 100 100 100 100 100 100 100 100 100 100 100 100 99 100 100 79 65 63 5 5 4 0 1 0 0 0 0
100 100 100 100 95 100 100 75 66 59 38 100 100 81 88 100 100 100 100 100 100 100 100 100 100 100 100 100 100 100 100 100 100 83 67 76 81 95 100 17 5 5 1 0 0 0 0 0 0
99 100 100 100 100 100 99 76 100 58 25 42 70 100 94 100 100 100 100 100 100 100 100 100 36 75 93 100 100 100 92 100 100 100 100 100 100 100 88 5 0 0 0 0 0 0 0 0 0
100 69 83 100 100 100 98 100 80 66 98 100 100 100 100 100 100 100 100 100 100 100 100 100 71 100 93 90 100 100 100 100 63 43 31 7 5 5 5 5 0 0 0 0 1 0 0 0 0
72 87 100 100 100 69 74 90 64 100 100 100 100 100 100 100 100 100 76 100 89 86 52 92 100 100 100 48 52 73 100 100 38 6 5 3 5 2 5 5 0 0 0 0 5 0 0 0 0
60 70 97 100 100 98 12 69 100 55 67 95 94 100 100 100 100 100 100 100 100 100 100 100 100 100 100 100 100 100 87 17 4 0 0 5 5 4 5 4 4 5 0 0 3 0 0 0 0
100 92 100 99 100 99 93 92 17 100 95 99 100 90 100 100 75 12 5 29 11 71 64 88 100 92 79 20 59 11 0 0 0 0 0 0 0 3 5 24 91 75 5 2 3 5 5 1 5
100 97 95 100 100 100 100 100 81 95 98 98 100 17 51 44 70 54 8 3 5 5 96 100 98 5 3 1 76 10 1 0 0 0 14 58 97 75 66 22 17 11 7 0 0 0 0 0 1
97 100 94 100 100 100 100 57 98 100 96 100 100 96 25 96 9 5 7 5 43 9 0 15 0 0 2 100 100 6 4 0 0 13 27 22 81 58 70 92 90 94 39 4 4 4 6 5 4
77 67 89 100 100 100 100 77 100 100 100 100 38 66 76 88 11 5 6 0 0 0 0 0 2 0 0 68 71 6 5 0 4 5 43 56 80 100 60 100 100 85 84 45 34 54 80 74 8
92 74 100 100 100 100 99 34 7 56 54 21 0 28 100 100 14 0 0 0 0 0 11 47 100 100 57 1 18 92 10 5 42 84 84 70 100 100 100 99 100 100 47 71 98 75 80 84 100
100 63 19 75 100 100 100 89 100 14 96 16 0 5 5 1 0 0 0 0 0 2 83 14 51 64 5 5 18 97 88 40 66 97 74 98 94 100 100 100 79 100 48 100 96 100 99 100 96
100 90 9 66 91 100 100 95 96 36 20 0 0 0 0 0 0 0 0 0 0 0 0 0 20 43 29 10 5 28 6 27 100 100 99 100 100 100 100 100 100 90 88 100 36 98 91 86 42
58 29 99 70 73 100 15 0 2 95 5 1 5 0 0 0 0 0 0 0 0 0 0 0 0 2 67 100 97 81 69 92 100 100 98 100 100 100 100 97 97 98 70 100 72 81 100 100 100

GFSSGP_prec_cloud_042.txt.gz
Cloud_Cover
0 0 2 2 0 0 0 0 0 0 0 0 0 5 91 39 12 52 40 5 55 100 95 35 27 60 100 100 100 100 82 75 75 58 68 100 81 100 100 98 100 94 94 26 8 11 5 3 0
0 0 5 2 0 0 0 0 5 2 3 3 1 28 73 97 59 86 49 40 100 100 99 56 12 66 29 96 95 96 100 96 100 90 93 100 100 100 100 100 100 100 100 100 98 100 76 4 0
0 0 14 62 52 41 57 12 35 5 5 5 5 5 67 97 100 54 27 68 100 100 65 70 99 94 66 100 100 100 100 97 99 98 100 100 100 99 100 100 100 100 99 100 100 100 5 5 0
0 0 6 99 100 100 48 8 5 5 12 5 5 5 6 100 100 100 93 63 100 100 90 97 100 46 49 100 100 100 100 96 100 100 100 100 100 100 100 100 100 100 88 100 100 39 5 78 43
0 0 12 100 100 100 79 8 2 55 63 19 2 4 52 99 76 79 100 99 100 98 99 100 100 100 100 100 100 100 100 100 100 100 100 100 100 100 100 100 100 100 100 100 100 24 63 87 83
2 0 37 100 100 62 7 57 96 100 71 39 1 0 20 100 100 100 100 100 100 100 100 100 100 100 100 100 100 100 100 100 100 100 100 100 100 100 100 100 100 100 100 99 67 69 100 100 100
72 1 100 100 100 88 20 7 21 100 100 100 100 100 83 100 100 100 100 100 100 100 100 100 100 100 100 100 100 100 100 100 100 100 100 100 100 99 100 100 100 100 100 66 100 100 100 100 100
17 8 99 100 100 100 76 3 23 75 100 100 100 100 51 100 100 99 76 100 100 100 100 100 100 100 100 100 100 100 100 100 100 100 87 100 100 100 100 100 100 100 100 100 100 99 100 100 100
100 94 100 100 100 5 6 4 82 91 100 100 60 100 72 100 100 93 100 100 100 100 100 100 100 100 100 100 100 100 100 100 100 100 100 100 85 100 100 100 100 100 99 87 100 100 100 100 100
100 100 100 100 56 33 4 5 38 98 100 92 100 100 100 100 100 100 100 100 100 100 100 100 100 100 100 100 100 100 100 100 100 100 100 100 100 100 100 100 100 100 100 100 100 100 100 100 100
100 100 100 81 15 81 73 6 99 100 100 100 80 100 100 100 100 100 100 100 100 100 100 100 100 100 100 100 100 100 100 100 100 100 100 100 100 100 100 100 100 73 100 100 100 100 100 100 100
100 100 100 77 100 100 96 28 100 100 75 99 33 82 82 100 100 100 100 100 100 100 100 100 100 100 100 100 100 100 100 100 100 100 100 100 100 100 100 100 100 100 100 100 94 100 100 100 100
100 100 100 100 100 100 38 66 100 100 90 100 61 98 100 100 100 100 100 100 100 100 100 100 100 100 100 100 100 100 100 100 100 98 100 100 100 100 100 93 100 100 88 100 100 100 100 100 100
100 100 62 98 100 100 55 94 100 89 98 100 44 100 100 100 100 100 100 100 100 100 100 100 100 100 100 100 100 100 100 100 100 100 100 100 100 100 100 100 98 100 100 100 100 100 100 100 81
100 100 100 100 100 100 94 100 100 96 100 100 100 100 100 100 100 100 100 100 100 100 100 100 100 100 100 100 100 100 100 100 100 100 100 100 100 100 100 100 100 100 100 100 100 100 26 12 13
100 96 100 100 76 100 100 100 100 100 100 100 100 100 100 100 100 100 100 100 100 100 100 100 100 100 100 100 100 100 100 100 100 100 100 100 100 100 100 100 100 100 100 100 93 76 6 18 5
100 100 94 100 100 100 100 100 100 100 100 100 87 65 100 100 100 100 100 100 100 100 100 100 100 100 100 100 100 100 100 100 100 100 100 100 100 100 100 100 100 100 100 100 100 17 5 3 1
100 92 100 100 100 100 100 100 100 100 94 22 67 51 94 100 100 100 100 100 100 100 100 100 100 100 100 100 100 100 100 100 100 100 100 100 100 100 100 100 100 84 66 41 6 5 0 0 0
100 100 100 100 100 100 89 100 100 100 100 100 78 96 100 100 100 100 74 30 100 99 100 100 100 100 100 100 100 100 100 100 100 100 100 100 86 100 100 94 100 71 5 4 2 0 0 0 0
80 48 100 100 91 93 99 100 100 88 94 63 36 76 100 100 100 100 100 100 100 46 12 25 93 100 94 100 100 100 100 95 57 66 64 100 78 65 32 21 31 5 5 0 2 0 0 2 0
64 92 90 97 100 100 97 99 94 99 14 100 97 100 100 100 100 100 100 100 100 76 69 96 100 100 100 100 100 95 100 86 100 100 100 94 96 44 90 24 1 4 6 49 76 14 5 5 0
100 71 73 100 100 100 100 90 11 8 98 90 100 100 100 100 100 100 100 100 100 100 100 100 100 100 60 100 98 98 100 100 100 100 100 100 76 12 0 5 5 5 66 10 59 97 60 81 8
97 93 97 99 99 100 90 84 100 79 100 100 100 98 98 71 86 100 100 100 99 99 99 100 58 78 100 100 99 70 56 39 5 5 2 0 0 1 5 5 5 16 70 91 100 100 98 95 59
62 100 100 100 100 100 67 88 100 84 98 100 100 100 100 90 47 88 100 99 97 70 76 61 91 100 100 100 48 34 5 5 5 0 0 4 5 5 5 5 7 98 15 88 75 46 82 85 18
99 100 96 84 99 25 60 8 100 69 66 64 62 87 58 100 100 68 7 5 6 5 5 9 12 99 100 76 0 5 36 6 5 5 5 5 5 11 100 100 100 72 93 97 90 26 6 12 41
92 95 96 100 89 5 5 5 5 81 52 89 6 15 8 38 100 97 6 1 2 0 11 7 36 100 58 1 0 17 90 26 78 69 94 100 100 100 100 100 100 100 100 99 100 99 56 55 51
92 52 50 72 100 37 5 38 100 31 25 5 10 2 4 0 4 14 5 6 74 4 4 0 0 27 0 0 2 74 100 100 100 100 100 100 100 100 100 100 100 100 92 100 100 88 59 5 6
95 100 98 80 80 71 5 100 98 52 100 48 4 0 0 0 1 2 10 57 0 1 0 0 0 1 4 0 45 100 100 100 100 100 100 100 100 100 87 100 100 100 99 100 80 92 12 85 59
60 96 100 98 92 59 5 5 15 100 16 25 3 5 5 3 0 0 0 0 0 0 0 0 0 94 67 87 83 71 88 84 97 100 100 100 92 100 100 100 94 84 67 44 94 86 88 65 46
100 62 69 100 77 50 15 6 15 4 2 5 5 1 0 0 0 0 0 0 0 0 0 0 0 5 5 5 49 70 95 99 100 100 100 100 100 100 100 100 95 95 99 100 98 99 68 100 100

GFSSGP_prec_cloud_045.txt.gz
Cloud_Cover
0 0 0 0 0 0 2 1 4 58 0 0 6 100 6 52 39 41 45 8 45 100 69 24 3 5 6 70 17 96 83 46 78 93 100 94 50 7 6 5 11 90 28 5 5 5 20 5 5
0 0 0 0 0 4 35 6 5 1 0 1 4 5 3 81 86 100 100 67 84 95 81 49 69 14 34 69 30 100 84 83 98 100 96 98 91 99 100 96 84 83 34 11 5 5 4 5 8
0 0 0 0 1 55 46 5 5 1 2 0 0 5 30 88 77 100 76 50 100 100 94 34 5 16 6 100 90 91 100 100 100 100 100 100 100 100 100 100 95 64 98 34 5 5 5 14 85
0 0 0 0 96 100 9 5 5 5 5 73 5 6 50 100 95 93 64 43 100 100 94 80 26 24 58 90 100 100 100 100 100 100 100 100 100 99 100 95 95 98 80 82 5 5 5 6 91
0 1 2 6 98 100 100 100 64 29 4 88 16 20 73 100 100 100 90 100 100 100 100 91 100 100 100 100 100 100 100 100 100 100 100 100 100 98 90 52 99 100 100 6 7 5 61 16 5
0 66 23 89 96 46 100 100 100 38 71 100 100 5 100 100 90 100 93 96 98 94 100 100 100 100 100 100 100 100 100 100 100 100 100 100 100 100 82 100 100 90 92 85 100 90 13 5 5
0 86 92 45 11 99 100 87 19 88 94 100 100 97 92 100 100 100 100 100 100 100 100 100 100 100 100 100 100 100 100 100 100 100 100 100 100 100 99 99 100 100 94 96 100 100 16 5 70
39 100 100 100 63 99 89 99 5 37 100 100 100 100 98 100 100 100 100 89 99 100 100 100 100 100 100 100 100 100 100 100 100 100 100 100 92 100 100 100 100 98 81 92 100 47 99 100 100
100 100 100 56 48 100 100 100 30 92 100 100 100 100 100 100 100 88 96 97 100 98 100 100 100 100 100 100 100 100 100 100 100 100 100 100 100 100 100 100 100 100 100 100 100 91 100 100 100
100 100 97 76 59 99 92 100 5 96 100 100 100 100 100 100 100 100 100 100 100 96 100 100 100 100 100 100 100 100 100 100 100 99 100 100 100 100 100 100 100 100 100 100 100 100 100 100 62
100 100 93 60 90 100 100 97 100 100 100 100 100 100 100 100 100 100 100 100 99 100 100 100 100 100 100 100 100 100 100 100 100 100 100 100 100 100 100 100 99 100 100 100 86 100 38 87 48
100 90 93 90 92 100 100 100 100 100 100 100 92 100 100 100 100 100 100 100 100 100 100 100 100 100 100 100 100 100 100 100 100 100 100 100 100 100 100 100 100 100 96 100 97 100 96 89 6
100 93 80 88 100 100 100 100 100 100 100 66 80 100 100 100 100 100 100 83 100 100 100 100 100 100 100 100 100 100 100 100 100 100 100 100 100 100 100 99 100 100 100 100 90 100 10 14 17
98 53 96 100 100 100 100 100 37 100 100 94 100 100 100 100 100 100 100 100 99 94 100 100 100 100 100 100 100 100 100 100 100 100 100 100 100 100 100 100 34 95 61 26 76 100 100 100 100
100 100 100 100 100 100 100 87 92 100 100 100 100 100 100 100 100 100 100 100 100 100 100 100 100 100 100 100 100 100 100 100 100 100 100 100 100 100 100 100 100 100 63 100 97 100 100 100 100
82 100 100 100 100 100 72 100 100 100 100 100 100 100 100 100 100 100 100 100 100 100 93 100 100 100 100 100 100 100 100 100 100 100 100 100 100 100 100 100 100 100 100 100 100 100 100 94 100
100 99 94 100 100 100 100 100 100 100 100 100 100 100 100 96 100 100 100 100 100 100 100 100 100 100 100 100 100 100 100 100 100 100 100 100 100 100 100 100 100 100 100 100 100 100 89 27 23
99 100 100 99 85 100 100 100 100 100 100 100 100 100 100 90 100 100 100 100 100 100 100 100 65 100 100 100 100 100 100 100 100 100 100 100 100 100 100 100 100 100 100 100 66 36 52 18 28
100 100 100 100 100 100 100 100 100 100 100 100 92 100 100 52 100 100 100 100 100 100 100 100 100 100 100 100 100 100 100 100 100 100 100 100 100 100 100 100 100 100 16 97 100 100 85 5 0
100 100 100 100 98 72 100 100 100 100 100 100 100 100 100 100 100 100 100 100 100 100 100 100 100 100 100 100 100 100 100 100 100 100 100 100 100 99 99 74 42 46 100 100 100 34 2 5 5
100 97 100 100 100 100 100 100 100 100 91 100 100 100 100 100 100 100 100 100 100 100 100 100 100 100 100 100 100 100 100 100 100 100 100 89 83 96 72 99 97 100 55 14 3 4 7 5 5
10 100 84 98 100 99 96 100 100 61 99 98 89 71 76 100 100 100 100 100 100 100 100 100 100 100 100 100 70 97 92 100 97 98 98 100 100 100 100 61 12 5 5 5 23 5 6 5 54
75 100 100 95 100 100 100 100 100 100 100 90 99 100 100 100 100 100 87 15 26 96 98 88 98 86 100 100 99 94 60 67 65 52 59 45 5 5 5 5 5 15 58 55 81 99 100 81 100
100 100 99 12 87 93 100 13 56 97 100 74 100 100 98 84 88 99 91 39 34 14 5 9 11 84 96 90 68 30 96 31 21 77 5 5 4 4 5 40 88 97 58 100 100 29 31 96 92
58 100 100 100 71 69 69 60 67 94 38 84 100 100 87 92 32 96 100 96 100 98 100 76 70 40 83 80 100 39 26 5 2 6 5 5 56 10 35 90 98 96 86 100 99 41 99 84 62
21 96 96 100 91 28 50 27 97 16 16 17 23 74 99 25 5 5 5 48 70 66 100 100 100 100 100 100 100 38 0 6 38 99 100 100 100 87 99 80 78 100 100 99 100 100 98 78 93
78 39 99 13 5 51 87 80 29 45 43 12 41 76 99 28 6 5 5 5 5 10 100 100 99 96 100 87 51 1 0 25 4 42 79 100 100 100 100 100 95 100 98 100 100 100 68 73 84
22 53 39 8 32 9 88 100 100 50 53 53 75 79 88 98 28 4 1 4 5 7 58 29 7 70 60 2 0 0 2 3 94 100 100 100 100 100 81 92 100 100 100 100 100 97 99 92 99
49 91 45 10 31 59 60 97 50 8 30 14 14 5 5 4 0 2 5 4 4 2 14 15 3 3 0 0 0 0 3 26 82 76 54 51 94 90 93 100 100 100 100 92 94 100 99 100 100
10 7 99 92 100 18 5 30 5 23 8 98 54 4 1 0 0 0 0 0 0 0 0 0 0 0 2 5 14 54 69 11 41 92 99 100 100 96 30 98 97 99 100 99 100 89 100 100 86

GFSSGP_prec_cloud_048.txt.gz
Cloud_Cover
0 0 0 0 0 0 0 3 5 38 4 85 96 87 45 82 16 14 78 62 38 100 83 66 5 29 0 2 5 5 5 5 100 100 95 42 44 84 14 5 5 6 6 5 5 2 4 5 0
0 0 0 0 0 0 0 5 0 0 0 3 68 99 44 82 99 100 100 85 46 95 81 27 6 67 9 5 37 41 88 65 100 100 91 5 40 5 92 66 11 62 25 16 39 6 6 6 6
0 0 0 0 0 0 0 1 5 4 0 2 4 2 9 72 100 100 93 97 93 99 93 12 12 100 26 62 100 100 100 94 89 89 98 63 42 26 71 70 99 14 6 16 6 5 21 49 8
0 0 0 0 0 0 2 4 5 5 2 5 0 5 38 83 98 100 99 98 87 100 100 98 100 100 98 100 100 100 91 100 91 32 7 91 79 100 97 25 5 26 5 5 4 5 5 5 5
0 0 0 0 0 1 13 100 5 31 5 21 10 62 90 96 100 68 92 62 92 100 100 100 100 100 100 99 100 82 100 100 100 100 99 100 100 100 88 23 98 5 27 5 5 11 5 5 5
0 0 0 0 2 5 11 100 100 11 19 20 100 100 100 93 100 100 95 100 100 100 100 100 100 100 100 100 100 98 100 100 99 100 100 100 100 100 88 100 99 14 13 6 98 10 5 5 7
0 0 3 3 5 48 65 100 100 96 100 89 100 100 100 100 100 100 78 95 80 100 100 100 100 100 100 100 100 100 100 100 100 100 100 100 100 100 100 100 58 57 55 100 24 28 5 5 5
0 0 36 7 99 100 93 61 100 100 97 83 100 100 100 100 100 100 100 100 84 100 100 82 100 100 100 100 100 100 100 100 100 100 100 100 100 100 100 100 61 11 73 65 5 5 5 5 9
0 0 100 65 82 77 80 100 100 94 98 100 100 100 100 100 100 100 100 100 100 100 100 100 100 100 100 100 100 100 100 100 100 100 100 100 100 100 100 100 100 100 100 79 54 12 100 100 100
0 8 100 91 100 70 90 100 100 92 100 100 100 100 100 100 100 100 100 100 100 92 100 100 100 100 100 100 100 100 100 100 100 100 100 100 100 100 100 99 100 100 100 90 86 100 91 100 13
2 79 99 5 68 100 100 100 99 100 100 100 100 100 100 100 100 100 100 100 100 99 100 100 100 100 100 100 100 100 100 100 100 100 100 100 100 100 100 100 100 100 100 100 100 100 100 77 42
7 78 100 100 86 100 100 100 100 100 100 100 100 100 100 100 100 100 100 100 100 100 100 100 100 100 100 100 100 100 100 100 100 100 100 100 100 100 100 100 100 100 100 100 94 75 8 100 28
6 100 100 100 100 80 99 100 100 100 100 100 100 98 100 100 100 100 100 100 100 100 100 100 100 100 100 100 100 100 100 100 100 100 100 100 100 100 100 100 100 100 100 100 100 100 94 13 53
100 49 45 100 100 100 100 100 100 94 100 93 100 100 100 100 100 100 100 100 100 100 100 100 100 100 100 100 100 100 100 100 100 100 100 100 100 100 100 100 97 68 100 81 95 98 100 62 100
81 76 100 100 100 100 100 69 100 80 100 100 100 100 100 100 100 100 100 100 100 100 100 100 100 100 100 100 100 100 100 100 100 100 100 100 100 100 100 100 100 100 100 100 99 71 76 7 65
84 84 96 96 91 91 100 100 68 100 100 100 100 100 100 100 100 100 100 98 100 100 100 100 100 100 100 100 100 100 100 100 100 100 100 100 100 100 100 100 100 100 100 100 19 52 100 100 100
47 40 50 100 100 100 100 100 100 100 100 100 100 100 100 100 100 100 100 100 100 82 96 87 100 100 100 100 100 100 100 100 100 100 100 100 99 100 100 100 100 100 100 100 100 100 100 100 90
100 100 94 100 89 100 100 100 100 100 100 100 100 100 100 100 100 94 100 71 81 39 65 95 100 100 100 100 100 100 100 100 100 100 100 100 100 100 100 100 98 49 94 95 100 98 25 88 25
95 100 100 100 100 99 100 99 100 100 100 100 100 100 100 100 100 100 100 100 100 99 24 50 98 100 100 100 100 100 100 100 100 100 100 100 100 100 100 100 100 100 100 100 96 100 74 7 42
44 55 100 100 100 94 97 53 100 100 100 100 100 100 100 100 100 98 99 100 100 100 100 100 29 30 5 61 98 97 100 94 100 100 100 99 100 100 100 100 100 100 88 65 31 6 6 5 5
17 70 94 90 92 100 85 89 100 100 100 100 100 100 100 100 100 100 100 100 100 100 100 100 100 100 100 100 72 66 100 100 100 100 100 100 100 99 100 90 99 67 85 58 7 5 0 5 5
97 82 87 52 100 100 100 100 100 98 100 86 91 70 92 100 100 100 100 100 100 100 100 100 100 100 100 100 92 98 89 100 100 99 97 100 100 100 100 99 96 26 18 5 5 5 60 96 76
100 93 98 84 75 100 80 92 100 98 84 100 100 100 76 24 19 7 59 88 99 100 100 100 100 100 100 100 100 100 100 100 99 98 76 96 100 100 100 44 4 2 5 16 10 100 88 99 100
94 100 100 100 96 100 94 100 100 99 76 86 90 97 100 100 100 100 67 86 96 100 100 100 100 100 100 100 100 100 100 92 8 32 85 93 95 47 5 18 36 50 97 80 70 100 100 100 66
5 94 99 55 100 100 98 100 100 42 84 96 100 95 100 100 100 100 90 100 100 84 30 19 89 100 100 100 100 100 100 100 100 93 100 7 28 13 10 45 96 68 100 100 100 84 98 94 84
96 46 63 99 100 98 100 100 100 100 100 100 99 100 97 100 100 70 49 31 35 44 13 100 100 100 100 100 100 100 90 100 100 94 65 31 65 76 99 96 100 100 100 36 100 100 90 82 100
5 6 32 10 81 98 100 98 91 100 91 94 86 44 89 99 100 88 100 26 68 33 5 64 100 100 100 100 99 72 100 88 100 84 99 100 100 96 100 98 99 28 24 100 100 100 100 93 48
12 5 5 5 30 75 100 100 92 99 100 91 100 84 69 41 39 30 5 6 33 54 7 38 96 99 90 42 24 13 100 100 86 64 16 100 100 86 77 64 31 99 100 100 100 100 77 91 70
49 5 5 5 61 78 100 100 92 65 99 98 100 100 100 100 90 98 5 4 5 5 5 5 58 99 47 76 100 100 98 98 71 88 100 100 100 95 100 84 100 100 100 100 100 68 100 89 86
5 5 5 27 48 45 98 100 98 100 86 83 99 100 100 47 5 2 5 5 5 5 6 18 56 46 66 100 100 100 99 100 100 99 99 100 100 100 94 100 100 100 100 99 81 100 100 95 65

GFSSGP_prec_cloud_051.txt.gz
Cloud_Cover
0 0 0 0 0 0 0 0 0 4 4 78 41 92 89 50 15 90 100 100 100 89 94 25 54 20 5 4 2 4 5 5 58 83 65 8 5 5 5 4 5 5 5 5 5 5 1 2 0
0 0 0 0 0 0 0 0 0 0 0 0 0 11 36 85 99 41 99 100 100 92 84 40 54 37 5 5 5 5 45 85 49 14 69 31 5 8 5 5 5 12 27 5 5 5 2 0 0
0 0 0 0 0 0 0 0 0 3 2 0 0 12 100 100 100 100 65 94 100 90 68 46 99 100 81 100 70 97 98 71 5 58 64 5 5 11 11 5 73 78 5 5 5 5 5 2 0
0 0 0 0 0 0 0 0 0 0 5 5 5 6 35 83 100 98 91 100 100 83 78 13 74 100 100 82 95 100 100 72 62 92 25 5 76 41 75 50 98 61 38 10 24 5 5 3 0
0 0 0 0 0 0 0 1 5 70 100 67 37 85 6 60 100 79 85 91 57 100 100 100 99 100 100 100 100 100 36 95 100 99 100 100 100 85 57 39 99 95 48 5 5 8 3 7 5
0 0 0 0 1 8 83 15 11 100 100 90 98 14 55 64 96 100 100 100 100 100 100 100 100 100 100 100 100 100 96 100 100 100 100 100 100 100 82 77 94 91 5 24 3 5 5 5 3
0 0 0 2 25 76 56 6 99 75 100 91 40 48 98 100 100 100 100 100 100 100 100 100 100 100 100 100 100 100 100 100 100 100 100 100 100 100 99 76 85 95 24 1 1 5 5 11 5
0 0 2 5 100 97 100 67 99 100 100 100 88 100 100 100 100 100 100 100 100 100 100 100 100 100 100 100 100 100 100 100 100 100 100 100 100 100 100 100 80 100 58 39 100 75 48 6 5
0 0 58 97 100 100 100 94 100 100 86 100 100 100 100 100 100 100 100 100 100 100 100 100 100 100 100 100 100 100 100 100 100 100 100 100 100 100 100 100 100 100 5 15 72 20 5 100 98
0 0 99 100 100 100 100 78 98 99 99 98 100 100 100 100 100 100 100 100 100 98 100 100 100 100 100 100 100 100 100 100 100 100 100 100 100 100 100 100 100 100 46 100 64 97 77 99 100
0 11 40 100 100 100 99 100 100 100 100 100 100 100 100 100 100 100 100 100 100 100 100 100 100 100 100 100 100 100 100 100 100 100 100 100 100 100 100 100 100 100 54 79 100 100 100 100 100
0 19 20 100 100 96 100 100 100 88 99 100 100 100 100 99 100 99 100 100 100 100 100 100 100 100 100 100 100 100 100 100 100 100 100 100 100 100 100 100 100 100 100 51 87 100 100 48 24
0 10 73 100 70 93 97 100 100 100 100 100 100 100 100 87 53 83 98 100 96 98 100 100 100 100 100 100 100 100 100 100 100 100 100 100 100 100 100 100 100 96 100 100 100 79 93 99 90
5 63 93 99 98 100 98 90 100 100 100 99 100 100 100 100 100 92 95 100 100 94 89 100 100 100 100 100 100 100 100 100 100 100 100 100 100 100 100 100 100 100 100 94 100 99 100 88 61
5 5 17 18 67 100 99 88 50 100 100 100 100 98 100 100 100 99 100 100 100 99 100 100 100 100 100 100 100 100 100 100 100 100 100 100 100 100 100 100 100 98 84 100 100 66 61 73 100
2 9 76 6 95 100 98 82 87 100 100 100 96 100 100 100 100 100 100 100 100 100 100 100 100 100 100 100 100 100 100 100 100 100 100 100 100 100 100 100 100 100 100 100 100 100 100 91 92
0 5 45 77 100 100 99 85 100 79 100 100 100 100 100 100 100 100 100 100 100 100 100 100 100 100 100 100 100 100 100 100 100 100 100 100 100 100 56 100 100 100 100 100 100 76 56 79 33
5 71 60 65 90 100 99 36 96 98 100 100 96 100 100 100 100 96 99 92 73 100 100 100 100 100 100 100 100 100 100 100 100 100 100 100 100 100 100 100 97 100 100 100 68 61 87 98 63
5 7 100 99 100 100 97 100 100 99 100 100 100 100 100 100 100 100 93 66 89 92 53 96 97 100 100 100 100 100 100 100 100 100 100 100 100 100 100 100 100 100 95 100 69 6 20 46 91
5 24 100 100 100 100 100 100 100 100 100 100 100 100 100 100 100 62 100 100 100 100 100 28 59 58 100 100 100 100 100 100 100 100 100 100 100 100 100 93 37 64 100 100 27 38 5 5 11
5 46 100 21 77 100 100 100 100 100 100 100 100 100 100 100 100 100 100 100 100 100 100 100 20 5 12 64 84 79 92 100 100 99 100 100 100 63 96 96 50 99 70 11 9 5 5 23 29
1 41 83 84 74 97 100 100 100 100 100 100 73 100 100 100 100 100 100 100 100 100 78 21 86 100 82 52 66 100 91 97 93 100 100 100 100 100 94 99 100 98 67 14 5 5 37 52 75
6 51 25 95 68 67 100 100 100 100 100 100 100 100 78 100 84 74 100 100 100 100 100 90 100 100 100 100 73 70 94 17 85 100 100 100 98 100 100 97 75 31 5 30 53 65 97 100 98
4 17 35 47 47 98 88 100 100 100 100 100 84 68 97 100 100 100 100 98 100 100 100 100 100 100 100 83 66 97 100 100 100 97 82 56 100 99 92 74 26 74 93 82 96 99 100 100 100
5 71 26 12 38 100 100 100 100 100 99 51 99 98 100 84 96 96 100 100 89 100 97 100 100 93 99 96 92 100 100 100 100 100 100 100 100 87 73 63 100 99 98 100 100 100 100 100 95
5 21 72 65 5 39 100 100 94 85 100 100 100 100 100 100 96 27 65 58 75 72 64 69 36 95 98 100 100 100 100 100 100 100 100 100 100 100 100 95 92 98 96 99 100 100 100 100 71
5 5 51 51 79 100 100 100 58 89 100 100 100 100 100 100 70 79 55 96 11 5 5 22 37 96 100 100 100 100 100 100 96 37 100 100 100 100 100 100 100 100 86 100 100 100 100 100 74
5 21 95 33 85 100 100 100 29 100 90 100 100 100 100 90 97 20 60 94 86 5 5 5 5 19 79 100 100 97 62 74 90 100 100 100 100 100 100 100 100 100 100 100 100 100 100 100 100
50 59 100 29 24 65 100 100 100 64 100 96 100 100 100 100 100 100 95 7 5 5 4 4 2 5 5 6 42 100 100 100 100 100 100 100 100 100 100 100 100 100 100 100 100 100 100 84 94
5 38 81 10 5 18 100 100 99 100 100 100 100 98 95 100 99 100 100 73 68 4 0 0 5 5 8 23 72 100 100 100 100 100 100 100 100 100 100 100 100 100 100 100 100 100 100 100 100

GFSSGP_prec_cloud_054.txt.gz
Cloud_Cover
0 0 0 0 0 0 0 4 0 0 1 0 7 100 100 100 64 52 31 93 94 88 48 16 7 97 95 2 0 3 4 2 5 5 5 5 5 5 5 5 2 0 0 5 0 0 0 0 0
0 0 0 0 0 0 5 4 0 0 0 4 100 100 100 100 100 100 100 100 96 74 89 59 70 5 18 5 5 5 5 5 5 4 5 5 26 5 5 5 0 0 0 39 4 3 0 0 1
0 0 0 0 0 0 78 8 0 0 0 0 81 100 99 96 100 94 64 57 75 100 100 100 86 99 6 36 26 5 5 13 5 5 5 28 83 5 5 5 22 4 5 5 5 4 4 3 4
0 0 0 0 0 2 0 0 0 0 0 3 11 16 19 86 100 100 99 59 90 43 93 100 100 100 83 55 72 5 65 96 91 8 26 74 77 79 11 83 80 60 28 6 50 5 6 5 5
0 0 0 0 0 0 0 0 0 5 2 2 78 5 5 79 63 99 98 50 100 64 100 78 100 100 100 100 96 66 86 100 100 100 100 100 99 100 100 97 74 98 70 66 88 27 5 6 2
0 0 0 3 1 0 3 3 5 71 5 6 100 61 10 81 60 100 98 79 100 100 97 84 100 100 100 100 100 100 100 100 100 100 100 100 100 100 100 100 88 100 100 90 100 67 71 7 1
0 0 0 0 4 59 80 67 100 100 74 97 100 43 68 78 100 100 100 100 100 100 100 100 100 100 100 100 100 100 100 99 100 100 100 100 100 100 100 100 98 100 90 100 96 100 53 5 27
0 0 0 19 100 100 96 100 94 57 38 60 67 90 26 99 100 100 100 100 100 100 100 100 100 100 100 100 100 100 100 100 100 100 100 100 100 100 100 100 100 100 100 100 100 100 83 88 8
0 0 46 100 100 100 100 99 7 19 100 100 96 99 91 100 100 100 100 100 100 100 100 100 100 100 100 100 100 100 100 100 100 100 100 100 100 100 100 100 100 100 100 100 100 100 100 100 96
0 0 100 96 100 100 100 77 51 80 100 100 100 100 100 100 100 100 100 100 100 100 100 100 100 100 100 100 100 100 100 100 100 100 100 100 100 100 100 100 100 100 100 100 100 100 100 100 100
0 0 5 99 100 100 100 100 96 91 100 100 100 100 100 100 100 100 100 100 100 100 100 100 100 100 100 100 100 100 100 100 100 100 100 100 100 100 100 100 100 100 100 100 100 48 100 100 73
0 0 3 97 100 40 100 100 99 8 16 100 100 100 100 100 100 99 99 100 100 100 100 100 100 100 100 100 100 100 100 100 100 100 100 100 100 100 100 100 100 100 100 100 100 100 100 100 100
0 1 18 91 100 41 93 84 40 97 36 93 100 100 100 100 93 99 100 100 100 100 100 100 100 100 100 100 100 100 100 100 100 100 100 100 100 100 100 100 100 100 100 100 100 100 100 100 98
0 0 100 5 95 90 100 100 80 100 100 100 100 100 100 100 97 96 100 87 100 100 100 100 100 100 100 100 100 100 100 100 100 100 100 100 100 100 100 100 100 100 100 100 100 100 100 100 100
0 1 7 28 54 86 89 49 5 91 17 100 100 100 100 100 97 99 84 78 72 82 64 100 100 100 100 100 100 100 100 100 100 100 100 100 100 100 100 100 100 100 100 100 100 100 100 100 9
3 4 100 6 42 92 95 100 100 100 100 100 100 100 97 100 100 100 100 95 93 71 100 100 94 100 100 100 100 100 100 100 100 100 100 100 100 100 100 100 100 100 100 39 100 100 90 5 51
0 100 88 54 100 96 96 98 100 99 100 100 100 100 100 100 100 100 89 100 100 100 100 100 100 100 100 100 100 100 100 100 100 100 100 100 100 100 100 100 94 100 100 99 72 100 70 97 100
18 83 96 100 100 100 100 100 100 20 100 100 70 100 100 100 100 100 100 100 100 100 100 100 100 100 100 100 100 100 100 100 100 100 100 100 100 100 96 100 100 100 90 100 100 100 100 100 31
0 2 100 54 71 76 100 100 100 100 100 100 100 100 100 100 100 100 100 100 100 100 100 100 95 100 100 100 100 100 100 100 100 100 100 100 100 100 100 100 100 100 100 100 100 100 39 33 38
0 2 8 78 94 95 100 91 95 91 100 100 100 100 100 100 100 100 91 98 100 100 100 99 81 80 96 100 100 100 100 100 100 100 100 100 100 100 100 100 100 100 100 99 100 100 7 5 5
2 2 13 89 92 100 86 91 92 82 100 100 66 73 100 100 100 100 17 74 100 100 100 100 96 60 70 96 100 100 100 100 100 100 100 100 100 100 100 100 100 85 43 58 100 82 6 38 5
5 1 5 6 5 100 100 100 85 68 69 45 30 73 87 100 100 100 100 39 76 100 100 90 76 69 100 100 93 99 62 42 82 100 100 100 100 100 100 100 100 99 92 100 99 25 8 5 5
5 0 0 5 92 95 100 67 100 100 68 96 100 100 40 75 85 100 100 100 100 100 100 99 55 29 97 100 100 100 100 99 71 79 97 100 100 100 100 100 100 100 100 90 88 21 5 42 100
0 0 4 9 21 100 100 97 100 98 40 88 100 100 100 87 100 92 95 100 100 100 100 100 100 38 69 57 98 94 92 97 60 100 100 100 100 100 100 100 100 100 100 100 100 65 100 91 98
0 8 95 100 95 100 100 95 99 99 48 50 82 100 83 100 100 100 100 100 100 100 100 100 100 91 86 5 5 93 100 100 100 100 100 96 100 100 100 100 100 100 100 100 100 100 100 98 100
5 51 100 100 97 99 90 100 98 100 98 68 70 76 27 68 80 84 100 100 100 100 100 100 98 92 100 83 32 100 100 100 100 100 100 100 100 100 100 100 100 100 100 100 100 100 100 100 100
12 4 70 83 14 10 42 64 28 99 100 82 96 21 18 76 30 45 68 66 45 59 90 98 100 100 77 96 99 100 100 100 100 100 100 100 89 100 100 100 100 100 100 100 100 100 100 100 100
5 66 49 89 96 99 74 96 89 96 100 100 100 100 100 97 8 26 5 5 5 5 16 15 65 100 71 45 100 100 100 100 100 100 100 100 100 100 100 100 100 100 100 100 100 100 100 100 100
8 5 8 96 97 100 98 62 5 25 66 100 100 100 100 100 90 60 5 5 5 5 5 5 5 8 2 13 54 99 99 100 100 100 100 100 100 100 100 100 100 100 100 100 100 100 100 100 100
96 98 32 100 100 28 100 100 6 52 91 100 100 100 100 100 97 74 97 100 76 37 44 10 6 0 2 19 50 97 100 100 100 100 100 100 100 100 100 100 100 100 100 100 100 100 100 100 100

GFSSGP_prec_cloud_057.txt.gz
Cloud_Cover
0 0 0 0 0 0 0 18 21 100 12 60 29 100 23 95 72 100 100 100 98 100 100 58 100 100 40 76 16 5 5 4 4 5 5 5 5 5 4 0 0 0 0 4 2 0 0 0 0
0 0 0 0 0 3 100 42 100 92 3 96 100 2 26 78 93 100 100 100 100 91 69 24 100 100 100 33 20 0 5 5 5 5 5 5 5 5 5 4 4 0 0 0 0 3 3 5 4
0 0 0 0 0 1 100 92 100 70 18 0 18 0 90 27 29 100 100 100 88 91 100 72 100 100 100 81 5 5 5 5 5 87 6 5 5 5 5 5 5 5 5 5 5 5 5 5 5
0 0 0 0 1 78 62 100 99 91 30 1 15 100 0 4 44 100 100 99 71 100 100 60 75 100 66 88 5 5 5 5 87 64 5 5 5 5 20 5 5 5 25 14 65 100 5 94 21
0 0 0 18 62 100 13 10 5 58 72 80 0 71 100 56 62 100 100 82 30 49 100 100 97 100 92 93 100 5 12 78 81 100 94 86 88 100 72 76 96 100 95 100 87 100 21 100 43
0 0 2 83 100 98 100 75 65 0 100 4 1 99 100 100 77 100 82 100 64 100 100 100 100 100 100 99 49 78 100 100 100 100 100 100 100 100 100 98 100 99 97 100 100 55 100 72 29
0 4 31 100 100 64 73 25 82 97 98 82 37 26 45 28 100 100 100 100 68 100 100 100 100 100 100 100 100 100 100 100 100 100 95 100 100 100 100 100 100 100 100 100 100 100 100 72 79
0 0 56 100 100 100 69 5 15 7 100 97 69 71 68 92 100 100 100 100 100 100 100 100 100 100 100 100 100 100 100 100 100 100 100 100 100 100 100 100 100 100 100 100 100 100 98 100 100
0 0 100 100 83 99 64 52 100 5 32 36 94 23 91 79 100 100 96 100 100 100 100 100 100 100 100 100 100 100 100 100 100 100 100 100 100 100 100 100 99 100 100 100 100 100 100 100 100
0 80 100 47 42 61 25 100 88 68 84 98 98 94 100 100 100 100 99 100 100 100 100 100 100 100 100 100 100 100 100 100 100 100 100 100 100 100 100 100 100 100 100 100 100 100 100 100 100
4 9 92 89 71 48 50 100 100 2 71 53 100 100 100 100 100 100 100 100 100 100 100 100 100 100 100 100 100 100 100 100 100 100 100 100 100 100 100 100 100 98 100 100 100 94 100 100 66
0 54 5 61 5 84 98 29 100 97 97 100 98 97 100 100 100 100 100 100 100 100 100 100 100 100 100 100 100 100 100 100 100 100 100 100 100 100 100 100 100 100 100 100 81 100 97 100 100
3 7 7 13 7 100 5 26 93 97 0 7 100 100 100 100 100 100 100 100 100 100 100 100 100 100 100 100 100 100 100 100 100 100 100 100 100 100 100 100 100 100 97 100 100 100 100 68 84
27 0 47 11 4 44 97 95 76 28 29 67 100 100 100 100 100 100 100 100 100 100 100 100 100 100 100 100 100 100 100 100 100 100 100 100 100 100 100 100 100 100 100 100 100 100 100 100 100
0 0 99 100 23 87 54 100 96 89 100 100 100 100 100 100 99 72 72 100 96 100 100 100 100 100 100 100 100 100 100 100 100 100 100 100 100 100 100 100 100 100 100 100 100 100 100 100 100
0 68 100 100 81 98 41 100 100 12 48 48 100 100 100 100 96 100 57 99 100 97 100 100 100 100 100 100 100 100 100 100 100 100 100 100 100 100 100 100 100 100 100 100 100 100 100 100 100
14 77 90 87 79 35 92 100 100 100 100 100 84 100 100 100 98 94 61 77 95 46 27 13 74 93 100 100 100 100 100 100 100 100 100 100 100 100 100 100 100 100 100 100 100 100 100 98 66
100 100 69 44 100 52 100 100 100 98 100 100 56 96 91 100 94 93 40 52 13 96 67 97 100 100 100 100 100 100 100 100 100 100 100 100 100 100 100 100 100 100 100 100 100 96 100 100 99
0 54 98 6 100 36 92 100 100 100 83 100 79 100 100 100 100 100 100 100 95 97 100 100 100 100 100 100 100 100 100 100 100 100 100 100 100 100 100 100 100 100 100 100 100 100 100 100 98
0 16 72 98 12 5 72 100 100 100 100 100 94 92 100 100 100 100 100 100 100 100 100 99 100 100 53 100 100 100 100 100 100 100 100 100 100 100 100 100 100 100 100 100 100 100 100 100 80
2 7 100 82 100 5 94 96 97 99 100 100 72 96 100 100 100 100 100 100 100 99 100 100 99 97 100 100 100 100 100 100 100 100 100 100 100 100 100 100 100 100 100 100 100 71 83 100 91
92 50 19 13 69 100 94 100 100 100 70 99 80 100 100 100 100 100 100 100 20 44 100 100 100 100 100 100 98 92 59 100 100 100 100 100 100 100 100 100 100 100 100 93 99 100 100 98 94
8 42 5 5 99 100 100 72 100 94 25 85 97 66 99 100 100 100 92 100 100 52 91 100 66 100 42 61 35 23 58 76 74 26 66 99 99 98 95 100 100 100 100 100 100 100 99 100 100
5 2 7 5 31 87 100 63 100 100 82 100 93 100 80 82 100 100 53 57 91 100 87 26 100 32 58 12 8 15 94 100 100 100 100 100 100 100 100 98 98 100 100 100 100 100 100 100 100
5 11 90 97 100 75 84 62 99 100 70 24 71 100 100 100 100 100 92 78 100 92 100 91 72 100 77 99 100 98 64 85 89 73 100 100 96 100 100 90 92 100 100 100 100 100 100 100 97
42 76 94 82 100 99 70 67 100 99 77 100 38 13 41 64 40 6 7 99 100 100 100 100 100 72 62 35 94 100 100 95 100 100 100 100 100 100 100 100 100 100 100 100 100 100 100 100 100
51 97 67 100 11 25 62 29 16 50 47 75 37 26 50 80 78 49 15 6 46 54 95 95 94 93 100 100 100 95 100 100 100 100 100 100 100 100 100 100 100 100 100 100 100 100 100 100 100
65 99 92 69 23 39 92 100 100 34 6 25 67 5 34 78 52 72 86 98 89 88 62 24 77 83 94 71 99 87 90 98 100 100 100 100 100 100 100 100 100 100 100 100 100 100 100 100 100
78 68 98 100 89 49 79 100 100 88 6 63 43 66 22 82 82 62 6 50 12 5 10 29 50 34 35 27 100 100 100 99 64 98 100 100 100 100 100 100 100 100 100 100 100 100 100 100 100
100 74 80 100 99 99 76 35 74 45 9 65 6 9 11 74 38 34 38 32 5 5 13 54 85 43 66 72 100 100 100 100 100 100 100 100 100 100 100 100 100 100 100 100 100 100 100 100 100

GFSSGP_prec_cloud_060.txt.gz
Cloud_Cover
0 0 0 0 0 0 0 1 0 17 91 37 33 42 70 48 9 1 1 99 100 100 100 100 100 100 100 100 40 25 10 53 76 63 37 5 4 0 0 0 0 0 0 0 0 0 0 0 0
0 0 0 0 0 0 1 98 4 100 23 32 2 70 100 75 0 0 99 100 100 100 100 100 100 100 100 94 100 99 50 3 4 5 5 5 3 0 0 0 3 0 0 0 0 0 1 4 5
0 0 0 0 2 0 2 83 48 97 28 89 80 7 34 32 84 25 55 100 100 100 100 100 100 100 74 5 3 4 4 4 5 5 5 45 5 4 0 0 5 4 0 4 4 5 5 5 8
0 0 0 0 0 2 81 100 0 4 100 84 4 85 72 100 100 99 87 100 100 100 100 100 100 100 100 91 85 82 5 5 5 5 27 95 5 5 5 4 5 5 5 5 12 30 50 90 82
0 0 0 1 24 70 93 16 3 0 18 50 16 38 90 100 100 100 100 100 100 100 100 100 100 100 98 42 98 100 85 88 15 63 92 100 56 98 7 5 72 8 5 60 100 91 92 95 79
0 1 2 72 100 13 46 0 0 34 100 92 80 100 100 100 100 100 100 92 100 100 100 100 100 100 100 100 100 100 100 100 85 100 100 98 100 87 5 97 100 62 99 100 100 100 100 100 98
0 2 12 2 15 66 12 0 0 94 100 100 100 100 100 100 100 100 100 74 100 100 100 100 100 100 100 100 100 100 100 100 100 100 100 100 100 100 98 100 100 100 98 100 100 100 100 100 100
0 0 0 85 6 0 0 12 22 80 100 100 100 100 100 100 100 100 100 100 98 95 100 100 100 100 100 100 100 100 100 100 100 100 100 100 100 100 100 100 100 100 100 100 100 100 100 94 93
0 0 71 52 31 23 0 0 86 51 87 100 100 99 100 100 100 100 100 100 100 100 100 100 100 100 100 100 100 100 100 100 100 100 100 100 100 100 100 100 100 100 100 100 97 100 100 100 100
0 3 70 100 2 28 0 81 4 14 95 100 100 98 100 100 100 100 100 100 100 100 100 100 100 100 100 100 100 100 100 100 100 100 100 100 100 100 100 100 100 100 100 100 100 100 94 93 46
0 21 10 10 32 0 0 56 24 100 100 100 100 100 100 100 97 99 100 100 100 100 100 100 100 100 100 100 100 100 100 100 100 100 100 100 100 100 100 100 100 100 100 100 100 100 99 63 96
11 2 4 5 32 2 0 26 41 100 100 100 100 100 100 100 99 100 100 100 100 100 100 100 100 100 100 100 100 100 100 100 100 100 100 100 100 100 100 100 100 100 100 100 100 93 78 11 92
6 62 3 9 69 0 0 12 100 100 100 100 100 97 98 100 89 99 99 100 100 100 100 100 100 100 100 100 100 100 100 100 100 100 100 100 100 100 100 100 100 100 100 100 99 100 30 36 23
18 13 2 38 58 34 46 100 100 100 100 100 100 100 97 98 100 97 100 100 100 100 100 100 100 100 100 100 100 100 100 100 100 100 100 100 100 100 100 100 100 100 100 100 100 68 16 86 100
5 0 3 41 57 100 84 100 100 100 100 100 5 9 100 100 100 97 100 100 100 100 100 100 100 100 100 100 100 100 100 100 100 100 98 100 100 100 100 100 100 100 100 99 100 100 100 100 100
32 0 53 50 7 5 100 100 100 100 100 99 0 86 100 100 100 100 96 99 94 59 100 100 100 100 100 100 100 100 100 100 100 100 100 100 100 100 100 100 100 100 100 100 100 100 100 100 100
100 23 91 54 44 57 61 95 100 99 88 72 2 100 100 100 83 95 7 30 40 20 26 65 100 100 100 100 100 100 100 100 100 100 100 100 100 100 100 100 100 100 100 100 100 100 100 100 100
100 100 43 100 6 6 5 27 44 100 100 100 5 98 100 19 44 35 5 11 13 5 6 87 5 15 99 100 100 100 100 100 100 100 100 100 100 100 100 100 100 100 100 100 100 100 100 100 100
100 8 46 3 93 4 10 19 68 34 100 77 47 5 65 75 50 8 75 64 5 5 5 5 5 5 98 100 100 100 100 100 100 100 100 100 100 100 100 100 100 100 100 100 100 100 100 100 100
100 17 0 79 29 1 1 8 76 49 100 60 99 5 74 68 28 62 93 98 77 38 42 97 61 5 17 87 7 66 100 100 100 100 100 100 100 100 100 100 100 100 100 100 100 100 100 100 100
100 30 8 98 77 61 0 4 60 58 10 85 99 62 80 89 98 100 100 98 88 80 92 34 21 62 12 59 55 99 100 100 100 100 100 100 100 100 100 100 100 100 100 100 100 100 100 100 100
100 99 13 83 53 50 29 30 5 19 26 88 97 100 41 100 97 100 100 100 100 100 100 100 100 100 98 99 96 19 91 96 100 100 100 77 100 100 100 100 100 100 100 100 100 100 100 100 100
100 100 5 5 1 0 81 37 99 70 96 96 32 100 8 100 100 100 100 100 100 100 94 87 100 100 100 100 100 100 100 100 100 87 85 100 100 100 100 100 100 100 100 100 100 100 100 100 100
100 100 5 2 0 2 0 64 70 91 97 100 6 26 88 100 100 78 79 100 100 99 99 91 93 73 96 100 100 99 100 94 46 63 98 100 100 99 100 100 100 100 100 100 100 100 100 100 100
100 100 60 56 78 3 47 94 96 93 100 94 100 56 52 74 100 100 42 42 5 37 34 75 58 76 13 32 100 100 60 94 86 79 47 100 93 100 93 98 90 95 98 100 100 100 100 100 100
100 100 100 19 99 97 14 65 7 27 98 76 5 66 54 70 100 100 100 100 31 36 67 26 38 6 55 25 33 90 100 96 78 100 91 58 96 100 100 100 100 100 100 100 100 100 100 100 100
100 100 100 99 16 94 61 89 95 4 31 98 59 75 84 49 8 25 65 26 11 10 68 19 52 100 100 100 96 97 100 100 60 5 52 46 78 100 100 100 100 95 100 100 100 100 100 100 100
94 100 100 45 54 97 5 2 100 93 77 49 13 39 82 41 25 56 34 89 13 5 44 30 5 5 5 6 70 44 98 94 52 92 100 100 92 100 100 100 100 100 100 100 100 100 100 100 100
99 100 100 78 41 58 5 91 9 100 91 5 2 55 60 55 34 16 6 8 42 71 6 5 5 5 48 79 99 70 33 22 100 100 100 95 89 100 100 100 100 100 100 100 100 100 100 100 100
66 100 100 100 52 49 22 58 59 98 93 18 0 0 11 5 42 60 68 42 22 98 61 95 12 5 5 100 100 100 100 100 100 87 52 100 99 100 100 100 100 100 100 100 100 100 100 100 100

GFSSGP_prec_cloud_063.txt.gz
Cloud_Cover
0 0 0 0 0 0 0 0 0 6 100 94 100 80 66 98 78 83 22 59 72 4 65 100 100 100 100 100 92 12 5 12 66 14 10 100 98 98 69 8 1 0 0 0 0 0 0 0 0
0 0 0 0 0 0 0 0 5 92 100 100 4 100 100 99 79 100 100 96 6 100 100 100 100 100 100 100 100 100 100 86 52 81 64 1 16 5 0 0 0 0 0 0 0 0 0 0 0
0 0 0 0 0 0 0 2 80 98 95 31 8 33 99 95 99 100 100 100 100 100 100 100 100 100 100 100 100 100 100 100 99 11 5 5 15 5 5 0 0 0 0 0 0 0 0 2 5
0 0 0 0 0 0 0 3 100 32 27 5 99 2 83 95 97 100 100 100 100 100 100 100 100 72 100 100 100 100 100 100 100 70 84 55 8 5 5 5 0 4 3 5 0 5 5 5 78
0 0 0 0 0 1 0 98 64 98 31 0 28 100 92 100 67 100 100 100 100 100 100 61 99 100 100 100 100 100 100 83 7 5 27 37 94 48 14 8 5 5 5 26 5 99 96 100 100
0 5 0 0 0 23 54 2 74 100 78 100 98 32 93 100 100 100 100 100 100 100 100 100 100 100 100 100 100 100 100 100 100 100 100 100 93 96 100 49 5 5 50 100 100 100 100 100 95
40 33 0 0 0 2 5 4 98 100 100 100 84 100 100 100 100 100 90 100 100 100 100 100 100 100 100 100 100 100 100 84 100 100 100 100 100 100 100 100 100 100 100 100 100 100 100 100 95
99 0 0 2 5 8 4 0 100 100 74 100 100 100 100 100 100 97 100 100 100 100 100 100 100 100 100 100 100 100 100 100 100 100 100 100 100 100 100 100 100 100 100 100 100 100 100 100 100
0 0 0 5 90 24 90 60 99 100 98 100 100 100 100 100 100 100 100 100 100 100 100 100 100 100 100 100 100 100 100 100 100 100 100 100 100 100 100 100 100 100 100 100 100 100 100 100 95
99 0 0 2 94 5 11 35 88 90 23 100 100 100 100 100 100 98 100 100 100 100 100 100 100 100 100 100 100 100 100 100 100 100 100 100 100 100 100 100 100 100 100 100 100 100 100 91 71
0 0 0 0 21 4 0 85 100 100 60 100 100 100 100 100 100 99 100 100 100 100 100 100 100 100 100 100 100 100 100 100 100 100 100 100 100 100 100 100 100 100 100 100 100 94 100 54 38
4 5 3 0 0 0 32 100 100 100 100 100 100 100 100 100 100 100 100 100 100 100 100 100 100 100 100 100 100 100 100 100 100 100 100 100 100 100 100 100 98 100 100 100 98 96 99 92 87
94 5 5 92 1 8 43 73 96 100 100 100 100 100 100 100 22 99 100 100 100 100 100 100 100 100 100 100 100 100 100 100 100 100 100 100 100 100 99 100 100 100 100 81 100 95 38 68 15
5 5 5 1 0 5 3 10 79 100 100 100 100 100 85 100 94 98 100 100 100 100 100 100 100 100 100 100 100 100 100 100 100 100 100 100 99 100 100 95 100 100 100 100 100 98 90 57 89
1 9 93 2 3 5 75 97 100 91 82 97 100 100 61 86 100 100 100 100 100 100 100 100 100 100 100 100 100 100 100 100 100 100 100 100 88 83 100 95 100 100 100 100 100 72 86 100 100
5 45 100 19 5 4 26 100 19 100 100 100 100 100 100 99 100 100 100 100 100 100 100 100 100 100 100 100 100 100 100 100 100 100 100 94 77 83 100 100 98 100 100 100 100 100 100 100 100
5 99 100 100 89 74 22 7 5 98 100 100 100 100 100 89 100 100 98 93 85 100 100 100 100 100 100 100 100 100 100 100 100 100 100 100 100 100 100 100 100 100 100 100 100 100 100 100 100
32 92 100 100 97 21 11 2 5 18 71 100 100 100 43 72 100 100 100 100 87 75 58 55 100 100 100 100 100 100 100 100 100 100 100 100 100 100 100 100 100 100 100 100 100 100 100 100 100
66 100 100 100 6 2 4 1 100 11 100 100 99 100 3 20 100 90 74 100 100 100 19 35 98 100 100 100 100 100 100 100 100 100 100 100 100 100 100 100 100 100 100 100 100 100 100 100 100
97 81 100 100 78 9 67 0 8 52 4 100 100 94 24 5 100 99 100 53 40 91 85 44 6 100 100 100 100 100 100 100 100 100 100 100 100 100 100 100 100 100 100 100 100 100 100 100 100
97 4 100 100 100 36 100 13 70 7 45 83 99 57 92 5 100 93 95 74 7 32 30 50 92 98 98 88 90 100 100 100 100 100 100 100 100 100 100 100 100 100 100 100 100 100 100 100 100
87 8 100 100 100 22 15 1 100 100 9 3 2 10 5 5 32 100 100 100 5 46 22 40 28 4 3 5 44 98 100 7 44 92 100 100 100 100 98 100 100 100 92 100 100 100 100 100 100
97 73 100 100 100 71 3 3 94 100 97 5 8 95 96 100 60 94 100 33 100 89 100 100 97 80 100 99 100 100 100 79 44 16 8 5 82 100 100 100 100 100 100 100 100 100 100 100 100
100 50 100 100 100 100 0 0 19 70 70 100 63 35 67 100 100 61 100 100 5 89 100 100 100 100 100 100 100 100 100 100 91 80 71 79 58 73 65 65 95 100 100 100 100 100 100 100 100
100 91 100 100 100 100 16 1 0 14 37 25 84 40 100 98 98 5 96 100 100 100 100 25 37 41 86 82 97 98 100 100 100 100 15 38 18 60 83 93 100 100 93 77 62 100 100 100 100
100 89 100 100 99 100 93 14 4 97 7 2 5 4 4 12 5 5 52 99 91 19 20 5 5 5 5 5 5 5 46 44 5 6 18 83 100 86 100 100 100 100 74 27 37 98 100 100 100
100 87 100 100 100 100 100 95 10 89 100 9 5 28 4 5 5 5 5 5 5 5 5 5 3 5 5 5 5 5 12 20 99 100 100 100 100 100 100 100 100 100 100 100 99 100 100 100 100
84 97 50 100 100 100 100 47 5 69 93 76 9 1 0 0 3 5 6 4 5 5 5 5 5 5 5 5 8 74 100 100 100 100 100 100 100 100 100 100 100 100 100 100 100 100 100 100 100
26 97 36 15 86 100 100 92 5 10 30 79 14 5 3 0 0 0 2 5 6 5 5 5 24 91 100 100 47 93 100 98 98 100 100 100 100 100 100 100 100 100 100 100 98 94 100 100 100
98 100 77 100 100 100 100 100 5 41 99 84 6 6 8 7 66 0 0 1 32 5 4 3 100 100 100 100 100 100 100 100 100 100 100 100 100 100 100 100 100 100 100 100 100 100 100 100 100

GFSSGP_prec_cloud_066.txt.gz
Cloud_Cover
0 0 0 0 0 0 0 0 0 0 1 58 52 74 26 62 99 98 100 100 52 52 59 71 100 79 100 100 100 100 100 100 100 100 100 100 56 99 36 6 11 40 72 8 0 0 0 0 0
0 0 0 0 0 0 0 0 0 0 0 6 21 43 2 86 91 100 100 91 21 100 37 83 100 49 100 100 100 100 100 100 100 100 100 100 57 6 4 74 23 4 5 4 0 2 0 0 0
0 0 0 0 0 0 0 0 0 0 0 4 0 46 71 92 100 100 100 100 100 100 15 100 86 100 100 100 100 100 100 100 100 100 100 100 100 85 100 86 5 20 84 5 4 0 0 0 0
0 0 0 0 0 0 0 0 0 0 4 4 0 100 100 100 79 98 100 100 100 10 72 100 100 100 100 100 100 100 100 100 100 100 100 100 100 100 100 100 100 100 15 5 0 5 0 0 5
0 60 2 10 44 0 0 0 17 96 76 13 54 3 2 61 67 98 100 100 98 87 100 100 100 100 100 100 100 100 100 100 100 97 100 100 100 92 77 29 30 96 40 3 33 2 1 94 100
0 2 4 10 0 0 3 46 99 86 62 95 84 51 25 21 20 100 100 100 100 99 100 100 100 100 100 100 100 100 100 100 100 100 100 100 100 100 100 43 7 34 69 62 51 2 93 100 100
0 0 0 0 2 1 13 100 44 69 99 100 100 100 100 100 79 100 100 100 100 100 100 100 100 100 100 100 100 100 100 100 100 100 100 100 100 100 100 97 100 100 100 64 97 100 100 100 100
0 0 2 5 0 4 66 100 6 100 100 100 100 100 100 99 100 100 100 100 100 100 100 100 100 100 100 100 100 100 100 100 100 100 100 100 100 100 100 100 100 100 100 100 100 100 100 100 100
0 4 32 0 0 2 78 98 8 100 100 100 100 100 90 100 89 92 100 100 100 100 100 100 100 100 100 100 100 100 100 100 100 100 99 100 100 93 100 100 100 100 100 100 99 100 100 93 100
4 2 2 0 0 5 5 4 2 100 100 100 100 33 13 48 78 88 100 100 100 100 100 100 100 100 100 100 100 100 100 100 100 100 100 100 100 100 100 100 98 97 100 100 100 76 97 87 96
3 0 4 0 1 4 1 81 12 100 100 100 100 98 65 57 69 45 100 100 100 100 100 100 100 100 100 100 100 100 100 100 100 100 100 100 100 100 100 100 100 100 100 100 100 98 86 58 84
0 0 0 0 5 0 0 74 10 97 100 67 100 99 28 95 89 97 100 100 100 100 100 100 100 100 100 100 100 100 100 100 100 100 100 100 100 100 100 100 100 100 98 50 94 100 100 10 77
0 0 0 0 5 4 3 5 100 94 100 100 100 92 6 7 83 78 82 100 100 100 100 100 100 100 100 100 100 100 100 100 100 100 100 100 100 100 100 100 90 100 69 40 83 99 98 94 74
0 4 0 0 29 14 14 5 1 97 47 99 86 34 1 2 16 60 71 100 100 100 100 100 100 100 100 100 100 100 100 100 100 100 100 100 100 100 100 100 99 90 70 55 97 100 100 100 100
0 21 0 3 92 7 5 4 0 5 100 58 18 27 66 7 3 1 80 100 100 100 100 100 100 100 100 100 100 100 100 100 100 100 100 100 100 100 100 100 88 6 6 66 84 18 60 100 100
0 41 5 5 5 10 33 17 0 1 78 100 96 83 75 7 1 41 97 100 100 100 100 100 100 100 100 100 100 100 100 100 100 100 100 100 100 100 100 100 95 69 96 62 76 93 90 63 81
5 5 69 73 5 6 58 4 0 0 4 23 93 74 46 21 63 4 56 97 100 100 100 100 100 100 100 100 100 100 100 100 100 100 100 100 100 100 100 100 100 100 88 100 100 99 80 79 100
1 4 72 13 39 58 90 33 0 1 5 5 4 45 12 5 54 5 48 53 100 100 100 100 100 100 100 100 100 100 100 100 100 100 100 100 100 100 100 100 100 100 95 100 100 100 100 100 100
14 4 11 57 7 5 25 74 7 0 9 80 100 52 84 15 4 2 4 20 93 100 100 100 100 100 97 100 100 100 100 100 100 100 100 100 100 100 85 97 100 100 100 100 100 100 100 100 100
6 7 6 14 11 2 6 23 6 0 5 88 90 4 20 83 4 36 26 45 33 93 97 91 77 18 45 100 100 100 100 100 100 100 100 100 100 100 100 100 100 100 100 100 100 100 100 100 100
49 37 6 88 57 5 4 5 65 0 0 25 70 51 84 6 5 6 63 59 61 38 47 34 5 2 1 9 90 100 100 100 100 100 100 100 100 100 100 100 100 100 100 100 100 100 100 100 100
95 5 6 69 97 12 2 1 70 1 1 2 0 2 39 100 5 0 58 61 96 35 20 33 48 19 34 100 10 100 100 100 100 100 100 100 100 100 100 100 100 100 100 100 100 100 100 100 80
97 14 47 21 100 42 2 2 12 0 1 5 39 8 95 98 84 6 30 83 21 3 46 100 100 100 100 100 100 26 100 100 100 100 100 100 100 100 100 100 100 100 100 100 100 83 99 75 100
97 46 20 100 100 23 6 2 76 2 1 5 0 9 33 5 6 53 50 50 94 5 13 89 100 100 100 100 97 81 100 97 100 100 100 100 100 100 98 70 100 100 100 100 62 100 70 95 95
100 65 20 47 88 76 6 5 5 26 0 0 1 10 5 5 28 5 76 77 100 97 6 5 86 100 100 100 65 82 72 100 98 36 31 53 95 40 100 75 78 80 97 99 88 70 71 60 95
100 86 8 64 71 86 5 18 5 98 0 0 0 0 0 5 5 26 100 72 18 100 22 5 7 6 9 5 90 98 93 99 95 100 96 100 71 87 59 99 100 100 100 95 87 91 54 100 100
100 100 38 5 99 47 9 32 5 100 5 0 0 0 6 5 1 4 20 5 4 48 98 25 4 5 5 5 5 5 5 14 100 83 14 85 86 99 100 100 100 100 100 95 55 100 99 100 100
100 100 64 45 5 65 48 9 5 70 95 3 0 0 1 1 5 20 1 5 5 27 14 5 10 70 100 100 99 99 79 87 100 59 98 100 100 100 100 100 100 100 100 100 100 100 100 100 100
100 100 99 20 12 99 5 5 5 9 100 65 5 5 3 1 7 84 5 5 5 5 38 13 33 100 100 100 100 100 100 100 100 99 100 100 100 100 100 100 100 100 100 100 100 100 100 100 100
86 100 93 91 96 42 15 38 6 15 100 50 5 5 5 1 0 0 1 0 0 0 5 98 100 100 100 100 100 100 100 100 100 100 100 100 100 100 100 100 100 100 100 100 100 100 100 100 100

GFSSGP_prec_cloud_069.txt.gz
Cloud_Cover
3 0 3 0 0 0 0 0 0 0 0 0 0 0 0 5 4 9 42 96 100 84 22 98 90 93 21 99 69 100 100 100 99 100 97 100 100 89 82 18 5 6 100 100 87 99 100 35 0
5 5 0 0 0 0 0 0 0 0 0 0 0 0 1 64 40 92 61 5 100 86 75 100 40 32 95 100 100 100 100 100 100 100 100 100 100 100 100 74 56 98 100 100 100 100 99 100 20
5 1 0 0 0 0 0 0 0 0 0 0 0 0 0 3 64 100 99 48 17 68 100 90 23 92 96 100 99 99 100 100 100 100 100 100 100 100 100 100 100 100 100 100 100 100 100 80 22
5 3 0 0 0 0 0 0 0 0 0 0 0 2 1 0 9 87 97 100 100 94 100 100 100 100 100 100 100 100 100 100 100 100 100 100 100 100 78 79 98 67 73 100 100 100 99 6 2
0 0 0 0 0 0 0 0 0 0 1 5 8 48 100 12 0 3 15 99 63 38 64 36 84 100 100 100 100 100 100 100 100 100 100 100 99 100 87 65 40 67 29 99 85 74 7 4 5
0 0 0 0 0 0 0 0 3 0 0 3 99 92 100 96 100 27 46 92 96 82 64 71 93 100 100 100 100 100 100 100 100 100 94 100 55 66 100 92 74 100 38 75 87 62 7 5 4
0 0 0 0 0 1 0 0 1 0 0 5 100 100 20 97 100 94 100 100 100 100 100 100 100 100 100 100 100 100 100 100 100 100 100 100 94 58 85 93 66 41 99 100 100 100 95 96 98
5 0 0 0 0 0 0 0 0 4 0 6 100 77 9 98 100 100 100 100 100 100 100 100 100 100 100 100 100 100 100 100 100 100 100 100 100 88 100 100 94 7 82 100 100 56 51 84 5
0 0 0 0 0 0 0 0 2 0 0 5 100 91 7 52 100 100 100 100 100 100 100 100 100 100 100 100 100 100 100 100 100 100 100 100 100 99 100 100 100 99 78 15 100 100 93 100 100
0 0 0 0 0 0 0 0 0 1 8 59 100 100 20 100 100 100 100 100 100 100 100 100 100 100 100 100 100 100 100 100 100 100 100 100 100 100 100 100 100 96 32 96 100 100 99 40 47
5 0 0 0 0 0 0 0 0 4 68 33 100 100 88 69 100 100 100 100 100 100 100 100 100 100 100 100 100 100 100 100 100 100 100 100 100 100 100 100 100 100 74 70 92 94 100 85 94
0 0 0 0 0 0 0 4 4 1 100 30 100 100 100 99 52 100 100 100 100 100 100 100 100 100 100 100 100 100 100 100 100 100 100 100 100 100 100 100 96 100 94 100 100 24 100 99 95
0 0 0 0 0 0 0 4 3 0 68 100 58 100 98 98 80 96 100 100 100 100 100 100 100 100 100 100 100 100 100 100 100 100 100 100 100 100 100 99 100 91 100 89 36 5 76 98 78
0 0 0 0 0 0 1 3 4 2 0 31 100 100 90 29 97 100 100 100 100 100 100 100 100 100 100 100 100 100 100 100 100 100 100 100 100 100 100 100 100 100 100 5 38 22 29 100 96
5 1 2 0 3 5 3 5 2 0 0 0 0 40 100 100 97 63 99 100 100 100 100 100 100 100 100 100 100 100 100 100 100 100 100 100 100 100 100 100 100 100 100 98 98 66 66 100 99
5 5 4 0 0 0 2 0 0 4 0 0 8 8 95 100 96 90 100 100 100 100 100 100 100 100 100 100 100 100 100 100 100 100 100 100 100 100 100 100 100 100 100 100 85 78 60 100 100
12 5 16 1 0 0 0 2 0 16 0 0 0 17 97 55 21 28 94 74 100 100 100 100 100 100 100 100 100 100 100 100 100 100 100 100 100 100 100 100 100 100 100 100 100 100 100 100 100
6 88 33 32 1 3 0 6 5 54 0 0 0 8 47 37 18 2 25 62 100 100 100 100 100 100 100 100 100 100 100 100 100 100 100 100 100 100 100 100 100 100 100 100 100 100 100 100 100
93 100 97 9 4 24 0 53 5 4 0 0 0 6 77 54 99 5 39 93 100 100 100 100 100 100 100 100 100 100 100 100 100 100 100 100 100 100 100 100 100 100 100 100 100 100 100 100 100
47 70 100 52 3 0 0 5 5 0 0 0 0 0 0 0 32 18 68 72 99 100 100 100 100 100 100 100 100 100 100 100 100 100 100 100 100 100 100 100 100 100 100 100 100 100 100 100 100
100 99 100 37 5 1 3 19 5 2 0 0 0 0 0 0 10 40 89 100 94 100 99 83 100 100 100 100 100 100 100 100 100 100 100 100 100 100 100 100 100 100 100 100 100 100 100 100 100
100 32 100 7 5 2 0 82 5 9 0 2 0 0 0 0 0 10 54 100 100 90 96 45 65 61 61 100 100 100 100 100 100 100 100 100 100 100 100 100 100 100 100 100 100 100 100 100 100
100 5 96 91 24 21 3 13 5 82 4 3 0 0 0 0 2 1 10 36 100 84 36 23 50 7 14 93 99 100 100 100 100 100 100 100 100 100 100 100 100 100 100 100 100 100 100 100 100
97 7 92 100 90 77 4 5 8 24 39 0 0 0 0 0 1 5 27 3 61 16 9 38 98 12 4 5 5 5 5 13 12 68 60 70 59 100 100 100 100 100 100 100 100 100 100 100 100
100 100 52 99 20 99 10 6 36 82 73 0 2 0 4 5 0 0 5 5 5 9 5 24 38 66 100 92 99 76 67 33 5 7 6 5 14 100 100 100 100 100 100 83 98 84 91 92 7
94 45 95 100 6 60 82 5 7 18 100 7 5 0 0 0 0 0 0 5 5 5 5 41 6 2 19 100 42 0 0 3 5 5 30 5 5 90 100 100 100 100 100 100 100 100 100 98 67
34 87 100 100 48 14 58 34 5 70 38 5 5 0 0 0 0 0 2 0 0 5 5 91 100 72 5 5 4 5 1 0 3 27 5 78 34 93 100 100 100 100 100 100 100 100 100 100 100
48 100 100 97 100 93 100 33 10 78 63 5 5 2 0 1 0 1 1 3 0 5 13 100 91 63 47 49 5 25 20 13 46 55 67 77 100 100 100 100 100 100 100 100 100 100 100 100 100
100 84 100 89 40 100 98 5 8 49 81 20 6 10 4 1 4 17 100 6 0 0 2 100 100 91 62 95 100 100 100 100 100 100 100 100 100 100 100 100 100 100 100 100 100 100 100 100 100
95 58 99 85 98 100 99 100 5 8 100 11 5 41 5 0 0 4 5 5 0 0 5 10 100 100 100 100 100 100 100 100 100 100 100 100 100 100 100 100 100 100 100 100 100 100 100 100 100

GFSSGP_prec_cloud_072.txt.gz
Cloud_Cover
0 0 0 0 0 0 0 0 0 0 0 0 0 0 0 0 0 0 0 1 100 100 97 99 8 57 90 99 99 99 45 53 100 97 100 93 10 10 5 5 60 69 94 71 96 9 59 13 92
0 0 4 2 0 0 0 0 0 0 0 0 0 0 0 0 0 3 13 62 70 100 100 73 57 56 91 98 76 32 12 4 9 100 89 58 20 68 100 100 100 100 100 100 100 97 94 83 100
0 0 0 0 0 0 0 0 0 0 0 0 0 0 0 0 0 0 46 99 96 99 76 100 96 100 100 100 100 100 93 91 72 87 83 100 91 100 100 100 100 100 96 100 100 100 100 92 100
5 1 0 0 0 0 0 0 0 0 0 0 0 0 0 30 4 4 0 4 100 100 95 65 48 100 100 100 83 100 100 100 99 100 100 100 100 100 100 100 100 100 100 100 100 100 70 69 10
9 5 8 0 0 0 0 0 0 0 0 0 0 0 29 72 6 100 57 10 3 81 100 100 100 100 100 100 99 100 63 100 100 100 100 100 100 100 100 100 100 100 67 80 88 59 35 5 5
49 2 0 0 0 0 0 0 0 0 0 0 0 0 96 100 7 99 100 87 93 53 66 100 94 100 100 100 100 100 100 100 100 100 100 100 100 100 100 100 100 100 99 100 45 6 5 5 5
5 0 0 0 0 0 0 0 0 0 0 0 0 1 100 94 10 100 100 100 100 97 64 94 98 100 100 100 100 100 100 100 100 100 100 100 100 100 100 100 100 100 100 67 62 61 68 96 34
0 0 0 0 0 0 0 0 0 0 0 0 0 9 100 15 92 100 100 100 100 100 100 100 100 100 100 100 100 100 100 100 100 100 100 100 100 100 100 100 100 100 100 59 63 32 100 100 5
0 4 1 0 0 0 0 0 0 0 0 0 0 5 100 44 55 100 100 100 100 100 100 100 100 100 100 100 100 100 100 100 100 100 100 100 100 100 100 100 100 100 100 100 57 96 100 100 100
5 5 3 0 0 0 0 0 0 0 0 0 24 19 100 100 100 100 100 100 100 100 100 100 100 100 100 100 100 100 100 100 100 100 100 100 100 100 100 100 100 100 100 100 100 100 97 100 89
5 5 3 0 0 0 0 0 0 0 0 0 2 6 96 100 100 100 100 100 100 100 100 100 100 100 100 100 100 100 100 100 100 100 100 100 100 100 100 100 100 100 100 100 84 100 100 79 35
20 3 4 0 0 0 0 0 0 0 0 0 5 25 83 100 100 100 100 100 100 100 100 100 100 100 100 100 100 100 100 100 100 100 100 100 100 100 100 100 100 100 100 100 97 96 100 99 35
7 5 0 0 0 0 0 0 0 0 0 0 3 5 68 100 100 100 100 100 100 100 100 100 100 100 100 100 100 100 100 100 100 100 100 100 100 100 100 100 100 100 100 100 100 100 99 91 88
51 9 4 5 2 0 0 0 0 0 0 0 2 5 6 94 100 100 100 100 100 100 100 100 100 100 100 100 100 100 100 100 100 100 100 100 100 100 100 100 100 100 100 100 100 86 77 92 55
86 55 70 5 3 0 0 0 0 0 0 0 0 1 5 62 88 100 100 100 100 100 100 100 100 100 100 100 100 100 100 100 100 100 100 100 100 100 100 100 100 100 100 100 100 100 100 99 86
100 100 5 5 3 4 1 0 0 0 0 0 0 0 3 36 31 7 85 100 100 100 100 100 100 100 100 100 100 100 100 100 100 100 100 100 100 100 100 100 100 100 100 100 100 100 100 100 96
100 100 24 5 5 0 0 0 0 0 0 0 0 0 14 57 96 69 58 98 100 100 100 100 100 100 100 100 100 100 100 100 100 100 100 100 100 100 100 100 100 100 100 100 100 100 98 100 99
26 5 5 5 3 5 3 0 4 0 0 0 0 0 86 100 73 41 94 42 97 100 100 100 100 100 100 100 100 100 100 100 100 100 100 100 100 100 100 100 100 100 100 100 100 100 100 100 100
5 5 5 5 6 67 3 0 3 0 0 0 2 0 60 70 2 12 75 100 100 100 100 100 100 100 100 100 100 100 100 100 100 100 100 100 100 100 100 100 100 100 100 100 100 100 100 100 100
21 6 60 57 22 100 29 2 0 0 0 0 0 4 2 14 50 90 97 100 99 100 86 98 100 100 100 100 100 100 100 100 100 100 100 100 100 100 100 100 100 100 100 100 99 100 100 100 100
99 7 15 61 7 100 25 42 4 0 0 0 0 5 0 0 82 100 100 100 100 95 70 62 100 100 100 100 100 100 100 100 100 100 100 100 100 100 100 100 100 100 100 100 100 100 100 100 100
57 14 5 6 27 100 96 64 7 1 0 5 5 1 1 0 0 73 100 100 100 98 69 100 100 90 90 100 100 100 100 100 100 100 100 100 100 100 100 100 100 100 100 100 100 100 100 100 100
94 5 8 5 70 78 16 85 10 43 2 5 5 5 4 0 0 37 96 100 100 100 100 73 90 53 27 94 100 100 100 100 100 100 100 100 100 100 100 100 100 100 100 100 100 100 100 100 100
50 28 5 5 4 56 63 85 10 5 5 5 5 5 5 0 0 0 26 54 100 100 100 95 34 74 82 60 99 100 100 100 100 100 99 100 100 100 100 100 100 100 100 100 100 100 100 100 100
72 87 1 6 71 100 20 97 46 100 5 5 5 5 0 1 5 3 44 62 100 100 100 100 79 25 37 5 41 65 100 100 100 100 100 100 100 100 100 100 100 100 100 100 100 55 96 58 90
100 56 3 94 8 35 67 100 100 100 88 5 5 5 4 2 5 1 0 2 37 59 71 76 79 13 76 100 91 87 100 99 100 100 100 100 100 100 100 100 100 100 100 98 21 36 30 76 97
100 38 66 5 81 100 100 100 100 94 98 5 5 5 5 5 5 5 0 0 0 0 10 35 48 34 5 4 50 100 100 65 5 5 53 93 97 39 5 5 6 21 86 72 71 100 100 100 100
39 84 41 54 100 99 78 100 100 94 98 28 66 5 18 5 35 1 4 0 0 0 0 4 62 14 7 5 4 22 6 4 5 5 15 62 48 82 88 94 26 88 50 100 100 96 100 100 91
100 100 100 100 21 85 100 100 100 100 100 100 39 5 11 5 5 4 0 3 5 4 0 0 36 76 87 27 9 77 100 100 100 100 100 77 100 100 100 100 100 100 100 100 100 100 100 100 100
100 100 100 41 99 100 100 100 100 100 100 100 10 5 51 14 6 6 3 5 5 0 0 0 4 7 100 99 44 75 100 99 100 100 100 77 94 99 100 100 100 100 100 100 100 100 100 100 100

GFSSGP_prec_cloud_075.txt.gz
Cloud_Cover
0 0 1 0 0 0 0 0 0 0 0 0 0 0 0 0 0 0 14 69 73 49 52 8 5 2 4 14 42 36 80 30 18 77 99 100 57 100 100 100 100 100 97 86 86 100 99 100 16
14 14 0 2 1 0 0 0 0 0 0 0 0 0 0 0 0 0 59 70 97 93 67 53 4 4 0 4 22 85 42 10 5 5 71 99 79 80 100 100 67 72 12 91 100 100 94 100 100
0 18 21 5 3 11 0 0 0 0 0 0 0 0 0 0 0 0 9 99 93 100 99 67 83 78 100 5 50 63 51 25 5 5 17 100 100 66 100 100 100 100 100 44 81 23 35 10 5
0 3 78 9 5 5 0 0 0 0 0 0 0 0 0 0 0 4 14 4 84 100 79 57 27 100 100 100 60 100 78 98 100 66 6 17 100 100 100 100 100 100 100 100 88 87 68 11 73
0 0 4 36 100 5 0 0 0 0 0 0 0 0 0 0 4 0 63 11 55 57 98 77 28 68 48 100 100 84 90 99 98 93 6 58 90 100 100 100 100 100 63 63 90 88 55 71 81
0 0 0 2 16 2 0 0 0 0 0 0 0 0 0 0 5 1 37 54 93 96 100 100 100 85 100 100 100 100 94 100 100 100 97 100 98 100 100 100 100 100 100 94 100 99 100 48 29
0 0 0 0 0 0 0 0 0 0 0 0 0 0 0 5 5 61 95 100 100 100 96 98 100 100 100 100 100 100 100 100 100 100 100 100 100 100 100 100 100 100 100 95 100 87 41 92 37
0 0 0 0 3 3 0 0 0 0 0 0 0 0 0 7 73 66 100 100 100 100 100 100 100 100 100 100 100 100 100 100 100 100 100 100 100 100 100 100 100 100 99 5 5 98 43 7 90
0 5 5 5 5 2 0 0 0 0 0 0 0 0 0 20 100 94 100 100 100 100 100 100 100 100 100 100 100 100 100 100 94 100 100 100 100 100 100 100 100 100 100 5 5 41 53 84 72
0 5 5 5 3 0 0 0 0 0 0 0 0 17 68 37 95 100 100 100 100 100 100 100 100 100 100 100 100 91 98 100 100 100 100 100 100 100 100 100 96 100 59 61 64 97 67 97 78
0 5 18 15 6 5 0 0 0 0 0 0 0 0 83 100 49 100 100 100 100 100 100 100 100 100 100 100 100 99 100 100 100 100 100 100 100 100 100 100 100 38 6 67 62 89 69 18 87
0 3 13 5 48 40 0 0 0 0 0 0 0 0 31 60 7 70 100 100 100 100 100 100 100 100 100 100 100 100 100 100 100 100 100 100 100 100 100 100 100 100 93 97 49 70 96 90 100
2 1 23 5 9 67 4 0 0 0 0 0 0 0 27 68 11 99 76 100 100 100 100 100 100 100 100 100 100 100 100 100 100 100 100 100 100 100 100 100 100 100 100 66 74 93 70 100 79
1 5 5 23 6 5 5 0 0 0 0 0 0 0 83 79 4 99 100 99 94 100 100 100 100 100 100 100 100 100 100 100 100 100 100 100 100 100 100 100 100 100 100 98 100 100 78 98 98
0 5 76 95 81 6 6 0 0 0 0 0 0 0 62 99 23 100 100 100 100 100 100 100 100 100 97 100 100 100 100 100 100 100 100 100 100 100 100 100 100 100 100 99 100 97 79 82 78
0 7 100 100 100 80 52 1 4 0 0 0 0 0 32 100 87 88 96 100 99 97 100 100 100 100 100 100 100 100 100 100 100 100 100 100 100 100 100 100 100 100 100 100 100 100 100 100 100
0 4 100 86 58 57 26 10 18 1 0 0 0 0 2 53 100 74 52 61 58 100 94 100 100 100 100 100 100 100 100 100 100 100 100 100 100 100 100 100 100 100 100 100 100 100 100 100 100
0 75 55 3 12 5 5 22 12 4 0 0 0 0 0 26 97 96 58 34 100 100 97 100 100 100 100 100 100 100 100 100 100 100 100 100 100 100 100 100 100 100 100 100 100 100 100 100 100
5 95 15 0 5 39 30 64 5 72 0 0 0 0 5 1 47 96 97 52 100 100 100 100 100 100 100 100 100 100 100 100 100 100 100 100 100 100 100 100 100 100 100 100 100 100 100 100 100
6 100 38 0 5 17 12 96 5 5 9 5 0 0 2 15 86 84 100 100 94 100 100 100 100 100 100 100 100 100 100 100 100 100 100 100 100 100 100 100 100 100 100 100 100 100 100 100 100
5 100 60 3 5 55 5 83 5 5 74 12 2 1 0 2 39 100 100 100 93 100 100 100 100 100 100 100 100 100 100 100 100 100 100 100 100 100 100 100 100 100 100 100 100 100 100 100 100
8 100 23 5 73 43 44 100 8 36 100 11 0 4 5 2 5 61 100 100 100 96 100 80 100 100 100 100 100 94 100 100 100 100 100 100 100 100 100 100 100 100 100 100 100 100 100 100 100
9 65 88 67 10 31 20 94 100 5 98 6 10 5 2 4 3 21 86 96 100 100 100 100 89 100 100 100 98 100 100 100 100 100 100 100 100 100 100 100 100 100 100 100 100 100 100 100 100
80 100 100 100 5 43 63 58 100 2 46 9 99 5 5 5 5 14 0 40 98 100 97 100 98 95 69 100 98 97 100 100 100 100 100 100 100 100 100 100 100 100 100 100 100 100 100 100 100
99 100 100 51 5 70 30 30 100 2 90 5 90 100 5 3 5 5 7 39 98 100 100 100 76 65 90 100 100 100 100 100 100 100 100 100 100 100 100 100 100 100 100 100 100 100 100 100 100
100 100 60 59 47 7 26 94 100 33 50 99 100 100 5 5 5 5 24 21 20 100 100 100 100 52 61 45 100 100 100 100 100 100 100 100 100 100 100 100 100 100 100 100 100 100 100 100 100
74 30 89 62 5 57 100 100 100 80 29 100 18 100 19 5 2 2 5 93 4 12 22 71 66 21 35 35 20 100 100 100 100 100 100 100 100 100 100 100 100 100 100 100 100 97 85 94 99
44 98 77 40 5 25 90 100 100 100 53 100 60 35 100 5 5 5 1 5 72 1 0 14 0 0 8 23 57 13 50 100 100 100 90 73 68 66 58 88 90 95 54 10 8 29 50 94 100
100 100 98 33 4 26 32 100 100 100 100 100 100 100 100 100 5 6 5 5 7 5 5 2 0 1 56 5 49 56 34 47 65 100 100 100 100 100 48 55 100 98 100 99 100 100 100 99 100
97 18 58 7 5 68 100 100 100 100 100 100 100 100 70 99 5 5 20 5 5 5 5 5 5 0 1 100 100 98 67 98 82 100 99 66 63 58 79 9 84 100 67 93 100 100 100 100 100

GFSSGP_prec_cloud_078.txt.gz
Cloud_Cover
0 0 0 0 2 0 0 0 0 0 0 0 0 0 0 0 0 2 0 18 20 62 39 6 0 5 5 4 2 4 94 75 70 91 96 96 100 100 100 96 100 35 99 100 100 100 100 100 100
0 0 0 0 87 5 5 0 0 0 0 0 0 0 0 0 0 0 0 14 34 83 85 80 11 0 0 0 0 2 2 94 99 5 47 100 100 100 100 100 100 45 100 100 100 100 100 100 81
0 0 0 0 27 100 67 9 4 0 0 0 0 0 0 0 0 0 1 3 49 95 99 78 0 0 2 63 49 8 18 7 67 5 10 45 96 100 100 100 100 100 100 100 98 67 28 16 5
0 0 0 0 0 15 6 47 7 5 0 0 0 0 0 0 0 0 22 22 2 92 82 65 52 99 33 100 99 100 100 94 30 53 71 69 100 100 100 94 98 100 100 100 100 35 59 5 5
0 0 0 0 0 1 4 13 15 1 0 0 0 0 0 0 0 0 13 3 17 51 98 17 100 100 100 100 99 100 100 100 95 52 8 98 100 99 96 100 100 100 100 94 21 96 58 48 95
0 0 0 0 0 0 0 0 0 0 0 0 0 0 0 0 0 3 31 30 73 99 100 100 100 97 100 100 100 100 100 100 100 100 100 75 100 100 100 63 100 100 100 69 88 86 98 49 93
0 0 0 0 0 0 0 4 0 0 0 0 0 0 0 0 0 16 91 93 79 99 100 100 100 100 100 100 100 82 100 97 100 100 100 100 100 100 100 100 100 100 43 95 100 100 100 90 83
0 0 0 0 3 0 14 42 0 0 0 0 0 0 0 0 0 2 60 72 99 100 100 100 100 100 100 100 100 100 74 100 100 100 100 100 100 100 100 100 100 100 100 100 100 95 98 78 12
5 0 0 0 0 0 5 3 0 0 0 0 0 0 0 0 0 1 51 99 100 100 100 100 100 100 100 100 100 100 100 71 100 100 100 100 100 100 100 100 93 100 100 100 100 74 100 98 97
5 0 0 0 1 5 5 2 0 0 0 0 0 0 0 0 0 0 49 100 89 100 100 100 100 100 100 100 100 86 100 100 100 100 100 100 100 100 100 100 100 100 100 100 100 100 81 63 36
38 0 0 0 5 5 9 5 5 0 0 4 0 0 0 0 0 0 25 55 100 96 100 100 100 100 100 100 100 100 100 100 100 100 100 100 100 100 100 100 100 100 100 100 100 100 51 20 9
88 1 2 0 66 11 5 5 1 0 0 0 0 0 0 0 0 0 10 64 97 100 100 100 100 100 100 100 100 100 100 100 100 100 100 100 100 100 100 100 100 100 100 100 96 35 49 63 6
86 3 5 5 52 12 43 13 6 2 0 0 0 0 0 0 0 0 5 94 82 76 87 100 100 100 100 100 100 100 100 100 100 100 100 100 100 100 100 100 100 100 100 100 81 98 98 94 50
75 5 5 5 4 37 35 4 100 5 3 0 0 0 0 0 0 0 0 80 41 70 56 99 100 100 100 100 100 100 100 100 100 100 100 100 100 100 100 100 100 100 100 100 92 100 50 100 82
100 87 5 2 0 6 62 38 100 8 5 0 0 0 0 0 0 0 0 13 42 33 74 66 100 100 100 100 100 100 100 100 100 100 100 100 100 100 100 100 100 100 100 100 100 71 96 95 99
100 100 5 3 3 6 100 73 100 16 0 0 0 0 0 0 0 0 0 23 70 67 46 48 81 100 100 100 100 100 100 100 100 100 100 100 100 100 100 100 100 100 100 100 100 100 100 100 100
100 98 5 5 0 4 100 13 0 5 1 0 0 0 0 0 0 0 8 23 46 19 66 62 100 100 100 100 100 100 100 100 100 100 100 100 100 100 100 100 100 100 100 100 100 100 100 100 100
87 40 75 5 5 20 32 1 1 1 3 0 0 0 0 0 0 0 3 33 20 12 85 95 100 100 100 100 100 100 100 100 100 100 100 100 100 100 100 100 100 100 100 100 100 100 100 100 100
5 90 100 34 5 6 11 5 59 0 2 0 0 0 0 0 0 0 4 40 30 41 86 78 100 100 100 100 100 100 100 100 100 100 100 100 100 100 100 100 100 100 100 100 100 100 100 100 99
6 100 100 34 5 22 32 53 5 2 5 0 5 0 0 0 0 0 18 30 30 54 86 87 100 100 100 100 100 100 100 100 100 100 100 100 100 100 100 100 100 100 100 90 100 92 80 95 98
98 85 100 91 5 5 37 42 5 3 28 2 70 0 0 0 0 0 21 17 32 72 99 100 100 100 100 100 100 100 100 100 100 100 100 100 100 100 100 100 100 100 100 100 100 100 100 100 100
94 64 100 100 5 43 73 94 6 2 7 2 4 0 3 0 0 0 5 3 8 5 93 100 100 100 100 100 100 100 100 100 100 100 100 100 100 100 100 100 100 100 100 100 100 100 100 100 100
100 5 100 100 99 71 23 66 23 0 56 0 0 1 96 2 0 0 0 5 0 3 97 99 98 94 100 100 100 100 100 100 100 100 100 100 100 100 100 100 100 100 100 100 100 100 100 100 100
100 8 99 100 100 100 100 26 94 52 35 1 0 1 80 4 0 0 0 3 5 0 35 96 100 100 100 100 100 86 92 100 100 100 100 100 100 100 100 100 100 100 100 100 100 100 100 100 100
100 79 42 100 100 100 100 66 79 100 100 3 0 0 100 94 0 0 0 0 7 7 0 30 95 100 99 100 100 100 96 40 100 100 100 100 100 100 100 100 100 100 100 100 100 100 100 100 100
100 100 42 30 64 100 100 77 73 100 83 5 3 0 25 8 4 0 0 0 0 72 19 6 2 29 93 100 100 100 100 100 100 100 99 100 100 100 100 100 100 100 100 100 100 100 100 99 100
100 100 89 48 6 21 83 100 100 100 28 7 77 0 3 0 74 48 0 0 0 0 86 51 0 0 7 44 91 99 100 100 100 100 98 98 100 100 100 100 100 100 100 100 92 73 7 56 80
100 100 97 37 99 100 100 100 100 100 97 5 18 8 5 4 11 100 21 0 0 0 5 98 38 0 0 16 31 23 27 77 100 100 100 100 100 100 100 100 100 100 100 100 100 93 62 84 98
100 100 79 66 87 98 100 99 100 100 96 5 46 100 19 5 8 63 75 6 0 0 0 6 100 31 0 0 5 1 1 21 36 98 100 100 100 100 100 100 100 100 62 50 38 30 22 56 100
100 100 73 91 100 37 80 100 100 100 100 29 100 100 88 5 0 5 5 100 28 0 2 5 9 91 35 0 0 76 37 25 14 10 42 100 100 100 100 83 49 8 35 95 6 72 85 100 100

GFSSGP_prec_cloud_081.txt.gz
Cloud_Cover
0 0 0 0 0 0 0 0 0 0 0 0 0 0 0 0 0 16 46 6 0 0 92 8 2 0 4 4 0 0 0 2 99 96 95 69 79 5 53 98 93 19 52 100 100 100 100 57 90
0 0 0 0 0 0 73 0 5 4 2 0 0 0 0 4 11 0 0 0 0 0 61 64 5 0 0 0 0 0 0 0 3 41 93 72 100 75 66 36 33 50 100 100 91 83 100 100 100
0 0 0 0 0 0 12 0 3 13 4 2 0 0 1 4 0 0 0 0 3 20 18 36 0 0 0 0 0 0 5 2 5 82 100 52 100 79 91 100 100 100 100 96 100 100 81 38 85
0 0 0 0 0 0 0 0 0 5 1 0 0 1 1 0 0 0 0 0 0 7 38 40 4 5 3 5 90 9 57 100 100 100 100 100 71 100 100 100 98 95 51 96 53 100 100 100 100
0 0 0 0 0 0 0 0 0 0 0 0 0 1 4 0 0 0 0 0 0 18 11 61 19 98 19 81 100 100 100 100 100 100 100 100 72 93 100 100 100 99 40 50 100 100 100 97 97
0 2 0 0 2 0 0 0 0 0 0 0 0 1 1 0 0 0 0 0 6 18 29 28 59 98 98 100 100 100 100 100 100 100 100 100 100 77 97 100 100 100 99 36 100 100 100 46 98
0 2 1 0 0 0 0 0 0 0 0 2 3 0 4 0 0 0 0 1 3 6 52 100 79 97 99 100 100 100 100 100 100 100 100 100 100 100 100 100 100 90 98 89 95 96 63 72 96
0 0 1 5 0 3 0 0 0 5 0 0 0 0 19 8 0 0 0 12 59 60 52 99 68 100 100 100 100 100 100 100 100 100 100 100 100 100 100 100 100 100 89 100 100 82 100 100 100
0 0 2 5 4 5 0 0 3 4 0 0 0 0 0 0 0 0 15 83 80 92 100 95 96 100 100 100 100 100 100 100 100 100 100 100 100 100 100 100 100 100 76 100 100 100 100 100 100
0 2 5 5 5 8 4 0 0 5 0 0 0 0 0 0 0 0 0 21 96 85 97 88 82 100 100 100 96 78 100 100 100 100 100 100 100 100 100 100 98 100 100 100 100 100 100 100 100
0 0 5 10 30 5 5 0 0 6 3 3 5 1 0 0 0 0 0 23 75 96 71 100 100 100 100 100 100 100 100 100 100 100 100 100 100 100 100 100 100 99 52 100 100 100 100 100 100
5 1 3 5 75 15 5 1 0 13 5 5 5 0 0 0 0 0 0 40 3 97 93 76 65 100 100 100 89 94 94 100 100 100 100 100 100 100 100 100 100 100 100 100 100 100 100 100 55
6 8 0 8 100 68 5 4 0 1 2 16 14 0 0 0 0 0 0 0 61 56 96 82 80 81 100 100 100 94 100 100 100 100 100 100 100 100 100 100 100 100 100 100 100 100 100 100 100
84 5 2 60 100 73 5 5 0 0 0 38 98 4 0 0 0 0 0 0 0 5 31 100 98 100 98 100 97 68 100 100 100 100 100 100 100 100 100 100 100 100 100 100 100 100 92 98 65
100 100 5 93 100 98 5 5 5 0 2 100 100 4 0 0 0 0 0 0 0 1 6 88 77 100 75 93 100 100 100 100 100 100 100 100 100 100 100 100 100 100 100 99 100 99 100 100 59
100 68 84 68 86 100 6 4 4 37 100 58 1 0 0 0 0 0 0 0 0 0 0 86 100 67 100 100 100 100 100 100 100 100 100 100 100 100 100 100 100 100 100 100 100 100 100 100 100
92 100 100 100 58 100 15 5 46 65 4 0 0 3 0 0 0 0 0 0 0 0 1 97 85 79 91 100 97 100 100 100 100 100 100 100 100 100 100 100 100 100 100 100 100 100 100 100 100
100 100 100 50 85 100 18 5 5 5 5 2 0 1 1 0 0 0 0 0 0 0 1 99 56 44 66 100 100 100 100 100 100 100 100 100 100 100 100 100 100 100 100 100 100 100 100 100 100
100 100 100 100 100 100 95 6 5 5 5 2 0 1 1 0 0 0 0 0 0 0 11 100 68 99 100 100 100 100 100 100 100 100 100 100 100 100 100 100 100 100 100 100 100 100 100 100 100
100 100 100 100 100 100 94 93 100 5 0 1 0 5 2 5 0 0 0 0 0 0 20 98 95 99 100 100 100 100 100 100 100 100 100 100 100 100 100 100 100 100 100 100 100 100 100 100 100
100 100 100 100 100 100 99 94 100 6 5 5 0 5 1 0 3 0 0 0 0 1 9 89 90 100 100 100 100 100 100 100 100 100 100 100 100 100 100 100 100 100 100 100 100 100 100 100 100
100 100 100 100 100 100 100 100 100 5 0 5 5 0 0 0 5 0 0 0 0 0 2 52 63 100 100 100 100 100 100 100 100 100 100 100 100 100 100 100 100 100 100 100 100 100 100 100 100
100 100 100 100 100 100 100 100 100 6 5 5 5 2 2 0 0 1 0 0 0 0 0 73 97 100 100 100 100 91 100 100 100 100 100 100 100 100 100 100 100 100 100 100 100 100 100 100 100
100 100 100 100 100 100 100 100 100 92 12 28 8 1 3 0 10 93 0 0 0 0 0 5 83 75 100 97 100 38 99 100 100 100 100 100 100 100 100 100 100 100 100 100 100 100 100 100 100
100 100 100 100 100 100 100 100 100 100 60 92 82 5 0 0 7 19 0 0 0 0 0 0 20 100 100 88 100 100 100 100 100 100 100 100 100 100 100 100 100 100 100 100 100 100 100 100 100
100 100 100 100 100 100 100 100 100 100 100 100 99 5 0 0 0 0 0 22 2 0 0 0 0 38 99 85 98 100 100 100 67 100 100 100 100 100 100 100 100 100 100 100 100 100 100 100 100
100 100 100 100 100 100 100 100 100 100 100 100 100 5 5 0 61 0 0 28 100 6 0 0 2 0 47 100 95 100 100 96 96 51 84 100 100 100 100 100 100 100 100 100 100 100 100 100 100
100 100 100 100 100 100 100 100 100 100 100 100 100 11 6 4 0 5 0 0 4 2 5 0 2 5 4 44 98 100 100 100 97 67 47 60 81 91 100 100 100 100 100 100 100 100 100 100 100
100 100 100 100 100 100 100 100 100 100 100 100 100 35 5 32 5 100 2 0 1 1 5 5 0 0 9 5 31 43 38 57 99 23 23 100 100 100 100 80 75 65 99 100 100 100 100 100 86
100 100 100 100 100 100 100 100 100 84 86 100 100 99 52 10 5 100 5 22 19 0 0 4 4 4 0 5 3 0 20 29 20 3 15 12 100 100 100 100 100 100 100 84 6 5 5 5 20

GFSSGP_prec_cloud_084.txt.gz
Cloud_Cover
0 0 0 0 0 0 0 2 0 0 0 0 0 0 0 0 0 0 2 5 5 5 0 0 0 0 0 0 6 34 0 0 0 0 2 16 13 5 5 5 5 5 81 30 100 97 100 91 40
0 0 0 0 0 0 48 32 0 0 0 0 0 1 1 0 5 3 0 0 0 8 8 11 0 0 0 4 5 4 3 1 0 3 5 100 96 74 5 5 5 5 69 96 100 100 100 100 100
0 0 0 0 0 0 25 1 0 0 0 0 0 31 0 19 1 0 0 0 0 0 2 34 0 0 0 0 0 0 0 3 33 5 17 100 100 100 52 5 1 5 92 70 100 100 100 80 62
0 2 0 0 0 0 2 0 0 0 0 0 0 0 0 0 0 0 0 0 0 0 26 25 0 0 0 0 8 21 55 55 76 96 96 100 100 100 100 100 5 5 94 61 100 100 100 100 99
0 0 0 0 0 0 0 0 0 0 0 0 0 0 20 0 0 0 0 0 0 0 16 16 0 0 3 9 100 100 100 100 100 100 100 100 100 100 100 100 52 40 92 100 100 100 100 92 69
0 0 0 0 0 95 9 0 0 0 0 0 0 0 1 0 0 0 0 0 0 0 7 33 10 5 5 22 100 100 100 100 100 100 100 100 100 100 100 100 99 98 100 100 100 100 77 74 100
0 0 0 0 0 1 4 0 0 0 0 0 0 0 0 0 0 0 0 0 0 0 39 98 29 5 84 97 98 100 100 100 100 100 100 100 100 100 100 100 100 100 100 100 100 100 100 100 51
0 0 0 0 0 4 4 0 0 0 0 0 0 0 0 0 0 0 0 0 0 63 99 100 82 45 92 67 100 100 100 100 100 100 100 100 100 100 100 100 100 100 100 100 100 100 100 100 75
0 0 0 3 0 63 26 0 4 4 0 0 0 0 0 0 0 0 0 0 0 70 100 74 100 8 96 100 100 75 100 100 100 100 100 100 100 100 100 100 100 100 100 100 100 99 100 100 100
1 2 3 0 2 4 2 2 4 8 9 0 0 5 0 0 0 0 0 0 0 3 100 100 47 78 97 100 100 100 100 100 100 100 100 100 100 100 100 100 99 100 100 99 94 100 100 100 100
0 4 5 5 1 0 5 2 0 5 6 5 0 0 6 1 0 0 0 0 0 0 99 94 93 34 100 100 100 100 100 100 100 100 100 100 100 100 100 100 98 95 100 96 90 99 100 100 100
1 5 0 0 0 1 0 2 5 9 92 5 0 0 0 0 1 0 0 0 0 0 46 100 52 90 49 100 99 99 100 100 100 100 100 100 100 100 100 100 100 100 88 100 98 100 100 100 100
6 5 5 0 0 0 5 2 5 94 67 5 4 0 0 22 56 2 0 0 0 0 44 37 90 53 50 5 87 100 100 100 100 100 100 100 100 100 100 100 100 100 100 100 91 100 100 100 100
1 0 5 4 0 0 0 5 4 94 69 5 5 0 12 100 74 0 0 0 0 0 0 7 51 97 64 59 65 69 100 100 100 100 100 100 100 100 100 100 100 100 100 100 100 100 100 100 100
5 0 26 5 36 2 0 43 82 65 39 5 5 4 100 80 1 0 0 0 0 0 2 8 0 100 100 58 100 96 92 92 99 100 100 100 100 100 100 100 100 100 100 100 100 100 100 100 100
1 5 0 99 60 35 9 85 44 87 31 5 5 5 8 0 0 0 0 0 0 0 31 0 0 99 100 100 53 95 100 100 96 100 100 100 100 100 100 100 100 100 100 84 100 100 100 100 100
46 20 100 100 44 11 5 100 11 18 85 6 5 5 5 0 0 0 0 0 0 0 0 0 0 99 82 100 99 100 100 100 100 100 100 100 100 100 100 100 100 100 100 100 100 100 100 100 100
75 100 100 100 100 56 64 100 46 42 100 6 5 5 5 4 2 0 0 0 0 0 0 0 0 60 95 88 100 100 100 100 100 100 100 100 100 100 100 100 100 100 100 100 100 100 100 100 100
100 87 95 100 100 100 59 100 16 95 100 43 5 24 12 5 5 2 0 0 0 0 0 0 1 68 42 100 100 100 100 100 100 100 100 100 100 100 100 100 100 100 100 100 100 100 100 100 100
100 100 100 100 100 100 100 100 100 100 100 99 8 84 30 5 3 4 0 0 0 0 0 0 7 82 100 95 98 99 100 100 100 100 100 100 100 100 100 100 100 100 100 100 95 100 100 100 100
100 100 100 100 100 98 100 100 100 100 100 44 38 21 25 5 2 0 0 0 0 0 0 0 89 56 68 100 99 100 100 100 100 100 100 100 100 100 100 100 100 100 100 100 100 100 100 100 100
100 100 100 100 100 88 100 100 100 100 100 14 6 5 5 0 0 0 0 0 0 0 0 0 100 82 81 100 100 100 100 100 100 100 100 100 100 100 100 100 100 100 100 100 100 100 100 100 100
100 100 100 100 100 90 74 100 100 100 100 100 100 8 5 5 5 5 2 97 1 0 0 0 100 86 100 100 91 100 100 100 100 100 100 100 100 100 100 100 100 100 100 100 100 100 100 100 100
100 100 100 100 100 78 100 100 100 100 100 100 100 35 12 5 5 5 4 29 0 0 0 0 100 100 100 80 100 85 100 100 100 100 100 100 100 100 100 100 100 100 100 100 100 100 100 100 100
100 100 100 100 97 76 100 100 100 100 100 100 98 100 18 45 40 5 5 0 0 1 91 1 100 100 100 100 100 98 94 100 88 100 100 100 100 100 100 100 100 100 100 100 100 100 100 100 100
100 100 100 100 100 91 100 100 100 100 100 100 100 100 100 100 98 7 5 5 0 0 100 8 30 100 100 100 100 100 97 100 44 87 100 100 100 100 100 100 100 100 100 100 100 100 100 100 100
100 100 100 100 100 100 100 100 100 100 100 100 100 100 100 100 100 93 60 38 5 0 0 0 0 41 100 100 100 100 100 44 99 100 70 100 100 100 100 100 100 100 100 100 100 100 100 100 100
100 100 100 100 100 100 100 100 98 100 100 100 100 100 100 100 82 75 5 49 4 0 0 0 0 0 10 100 100 100 100 100 100 100 86 90 100 100 100 100 100 100 100 100 100 100 100 100 100
100 100 100 100 100 100 100 100 100 100 100 100 100 100 100 100 100 5 14 14 28 59 0 1 0 0 0 1 91 100 98 100 100 100 98 42 6 34 98 100 100 100 100 100 100 100 100 100 100
100 100 100 100 100 100 100 100 100 100 100 100 100 100 100 100 100 6 46 48 72 100 1 0 5 0 0 0 0 36 100 100 100 100 100 82 8 3 21 80 88 77 100 100 100 100 100 100 100

GFSSGP_prec_cloud_087.txt.gz
Cloud_Cover
0 0 0 0 0 0 0 0 0 0 0 0 0 0 0 0 0 0 0 0 0 3 5 5 4 0 0 0 0 24 0 0 0 0 5 5 5 5 5 5 4 7 77 52 78 80 100 96 57
0 0 0 0 0 0 0 0 0 0 0 0 0 0 0 0 0 4 0 0 0 0 0 0 0 0 0 0 1 4 2 1 2 3 2 5 33 92 100 9 5 94 79 91 100 100 98 96 53
0 0 0 0 0 0 0 0 0 0 0 0 0 0 0 0 1 0 0 0 0 0 0 0 0 0 0 0 0 2 4 4 5 5 5 22 19 55 98 96 18 5 12 90 88 100 5 99 100
0 0 0 0 0 0 0 0 0 0 0 0 0 0 0 0 0 0 0 0 0 0 0 0 0 0 0 0 0 0 38 41 5 98 100 99 78 97 9 100 100 100 90 50 69 24 67 56 100
0 0 0 0 0 0 0 0 0 0 0 0 0 0 0 0 0 0 0 0 0 0 0 0 0 0 0 0 0 2 22 36 100 100 100 100 100 100 100 100 100 100 100 83 99 84 77 99 91
0 0 0 0 0 0 0 0 0 0 0 0 0 0 0 0 0 0 0 0 0 0 0 68 13 0 0 0 0 1 60 76 100 100 100 100 100 100 91 100 100 100 100 100 100 92 15 100 100
0 1 0 0 0 0 0 0 0 0 0 0 1 0 0 0 0 0 0 0 0 0 1 31 100 15 0 0 1 97 79 100 100 89 100 100 100 100 100 100 100 100 98 100 100 87 81 100 100
0 0 0 0 0 0 0 0 0 0 0 0 0 0 0 0 0 0 0 0 0 0 0 55 60 100 53 0 13 95 100 100 100 100 100 100 100 100 100 100 100 100 100 100 100 95 99 73 100
0 0 0 0 0 0 0 1 0 0 0 0 0 0 4 0 0 0 0 0 0 0 0 86 100 100 12 17 84 100 100 100 100 100 100 100 100 100 100 100 100 100 100 100 100 100 98 100 100
0 0 0 0 0 0 1 4 0 0 0 0 0 2 5 0 0 0 0 0 0 5 0 82 100 100 15 24 87 100 100 100 100 100 100 100 100 100 100 100 98 98 100 100 96 95 100 98 100
0 0 0 0 3 0 3 1 0 0 0 0 0 1 5 5 0 0 0 0 0 0 0 91 54 82 100 22 96 99 100 100 100 100 100 100 100 100 100 100 100 98 100 73 83 78 97 100 49
0 0 1 5 3 0 0 3 0 0 0 0 0 2 5 0 2 0 0 15 4 0 0 0 52 100 100 92 85 100 100 100 100 100 100 100 100 100 100 100 100 100 100 98 99 66 79 31 66
0 33 4 0 0 0 0 2 0 0 0 0 2 15 35 0 0 0 3 6 4 0 0 0 2 54 54 74 89 100 100 100 100 100 100 100 100 100 100 100 100 100 100 83 90 70 93 94 100
100 30 2 0 4 4 0 0 0 2 0 0 5 18 40 5 0 1 52 8 0 0 0 0 0 5 70 50 1 85 100 100 100 100 100 100 100 100 100 100 100 100 100 90 100 100 100 87 100
5 1 1 11 15 3 5 0 0 100 0 3 90 32 37 4 0 3 1 0 0 0 0 0 0 0 54 100 95 63 32 100 100 100 100 100 100 100 100 100 100 100 100 93 79 99 61 100 100
4 0 5 90 1 13 71 0 88 100 2 45 100 100 13 5 0 1 0 0 0 0 0 0 0 0 26 46 82 56 27 98 100 100 100 100 100 100 100 100 100 100 100 100 90 90 96 100 100
5 4 0 0 3 41 100 0 100 79 1 83 100 100 66 5 5 5 0 0 0 0 17 20 0 0 2 100 99 89 80 92 100 97 100 100 100 100 100 100 100 100 100 100 100 98 100 100 100
2 12 4 53 100 100 100 0 99 60 0 96 100 100 54 39 5 5 0 0 0 0 0 0 0 0 42 100 100 100 100 100 100 93 100 100 100 100 100 100 100 100 100 100 100 100 99 100 100
100 99 50 51 60 100 32 5 56 63 5 100 100 100 98 46 66 8 0 0 0 0 2 0 0 35 87 100 100 100 100 100 100 100 100 100 100 100 100 100 100 100 100 100 100 100 100 100 100
67 65 23 100 100 100 100 40 87 86 34 100 100 100 100 72 92 5 5 0 0 0 0 0 0 15 80 100 100 100 100 100 100 100 100 100 100 100 100 100 100 100 100 100 100 100 97 100 100
5 10 92 100 100 100 23 5 68 100 100 100 100 100 100 64 8 13 5 0 0 0 0 0 0 0 85 100 100 100 100 100 100 100 100 100 100 100 100 100 100 100 100 100 100 100 99 100 99
5 99 100 100 100 100 100 53 100 100 82 9 100 100 100 94 73 78 6 5 3 11 7 0 0 0 93 100 100 100 100 100 100 100 100 100 100 100 100 100 100 100 100 100 100 100 100 100 100
93 100 100 100 100 100 89 76 100 100 100 100 100 100 100 96 100 98 5 0 0 0 0 0 0 0 45 100 100 99 66 100 100 100 100 100 100 100 100 100 100 100 100 100 100 100 100 100 100
88 100 100 100 100 97 95 80 100 100 100 67 84 80 100 100 100 93 3 4 1 5 0 0 35 0 100 100 100 100 100 96 94 96 100 100 100 100 100 100 100 100 100 100 100 100 100 100 100
100 100 100 100 100 38 100 79 100 100 100 65 5 98 100 100 97 56 6 68 5 5 4 1 3 15 100 100 100 100 98 72 1 91 100 100 100 100 100 100 100 100 100 100 100 100 100 100 100
100 100 100 89 99 40 100 41 100 100 100 92 30 91 100 100 100 95 94 100 80 5 5 5 2 0 100 100 100 100 100 98 100 100 80 100 100 100 100 100 100 100 100 100 100 100 100 100 100
100 100 100 100 100 96 56 50 100 100 100 100 86 100 74 100 100 100 100 100 100 5 5 3 5 0 92 100 100 100 100 99 99 65 13 99 100 100 100 100 100 97 100 100 100 100 100 100 100
100 100 100 100 100 100 99 100 100 100 100 100 100 100 95 78 100 100 100 100 100 19 5 5 3 0 0 100 100 100 98 94 8 11 26 2 88 100 100 100 100 100 100 100 100 100 100 100 100
100 100 100 100 100 98 100 100 100 100 100 100 100 100 100 100 100 100 100 100 100 73 5 5 40 3 0 5 98 100 100 100 49 2 27 36 1 83 100 100 100 100 100 100 100 100 100 100 100
100 100 100 100 100 100 100 100 100 100 100 100 100 100 100 100 100 100 100 100 100 99 10 5 6 15 1 0 1 99 100 100 60 99 4 24 17 1 8 70 100 100 100 100 100 100 100 100 100

GFSSGP_prec_cloud_090.txt.gz
Cloud_Cover
0 0 0 0 0 0 0 0 0 0 0 0 0 0 0 0 0 0 0 0 0 0 8 20 4 3 1 0 0 0 13 24 4 0 0 3 4 5 2 4 4 0 6 90 69 99 100 100 8
0 0 0 0 0 0 0 0 0 0 0 0 0 0 0 0 0 0 0 0 0 0 0 2 0 0 0 0 0 0 0 98 3 5 5 5 5 5 5 5 5 3 3 18 91 94 96 64 5
0 0 0 0 0 0 0 0 0 0 0 0 0 0 0 0 0 0 0 0 0 0 0 0 0 0 0 0 0 32 1 1 1 0 2 5 3 5 81 12 75 48 5 7 90 65 50 16 5
0 0 0 0 0 0 0 0 0 0 0 0 0 0 0 0 0 0 0 0 0 0 0 0 0 0 0 0 0 2 30 96 4 2 0 5 64 100 100 78 11 86 99 6 98 92 76 11 5
0 0 0 0 0 0 0 0 0 0 0 0 0 0 0 0 0 0 0 0 0 0 0 0 0 0 17 17 0 0 6 5 19 80 18 100 100 100 100 100 100 32 12 5 80 100 100 93 94
0 0 0 0 0 0 0 0 0 0 0 0 0 0 0 0 0 0 0 0 0 3 0 0 0 0 11 26 29 2 39 2 30 100 100 100 100 100 100 100 100 100 72 100 100 100 100 100 100
0 0 0 0 0 0 0 0 0 0 0 0 0 0 0 0 0 0 0 0 0 4 8 71 97 60 0 5 46 65 59 29 100 100 100 100 100 100 100 100 100 100 97 93 100 98 100 96 98
0 0 2 20 0 0 0 0 0 0 0 0 0 0 0 0 0 0 0 0 0 0 0 34 8 99 78 47 55 31 12 18 100 100 100 100 100 100 100 100 100 100 99 56 98 100 47 5 88
0 0 2 46 1 0 0 0 0 0 0 0 0 0 0 0 0 0 5 0 0 0 1 56 24 21 98 95 13 0 0 95 100 100 100 100 100 100 100 100 100 100 89 99 10 21 76 11 40
6 1 9 6 2 0 0 0 0 0 0 5 0 0 0 0 0 0 5 4 0 0 0 15 34 8 96 51 86 17 4 100 100 100 100 100 100 100 100 100 100 100 100 87 64 6 50 87 100
100 91 93 96 77 4 0 0 3 6 0 5 0 0 0 0 0 0 2 0 0 0 0 8 27 16 98 47 33 31 33 100 100 100 100 100 100 100 100 100 100 100 100 74 62 90 36 96 100
43 45 67 84 64 5 10 54 4 0 3 1 0 0 0 0 5 2 5 0 2 7 1 9 20 32 88 93 20 26 32 100 100 100 100 100 100 100 100 100 100 100 100 93 67 82 78 100 100
7 100 3 7 83 67 58 4 0 0 0 0 0 0 0 0 96 82 5 0 0 1 4 10 19 3 23 100 100 47 30 100 100 100 100 100 100 100 100 100 100 100 91 63 91 15 29 70 100
100 36 14 5 97 98 24 3 4 5 5 0 0 0 0 0 80 100 7 2 0 0 0 6 11 2 12 10 68 100 43 100 100 100 100 100 100 100 100 100 100 100 93 100 100 66 98 76 80
100 43 5 44 91 41 89 0 0 5 16 4 0 0 0 0 74 99 5 0 0 0 0 12 8 4 1 0 23 35 40 100 100 100 100 100 100 100 100 100 100 100 100 100 99 77 75 52 100
100 96 31 100 100 36 32 1 5 5 5 52 0 0 0 14 100 100 3 1 0 0 0 0 1 11 1 0 42 100 35 84 100 100 100 100 100 100 100 100 100 100 100 100 99 87 76 99 100
92 100 73 60 7 5 15 0 5 94 4 0 0 0 0 96 100 100 5 5 4 0 2 11 18 19 19 27 22 79 100 88 99 100 100 100 100 100 100 100 100 100 100 100 100 70 100 97 100
41 2 0 0 25 5 4 16 0 71 38 0 0 4 1 100 100 100 6 20 5 1 8 29 26 26 89 99 77 83 100 96 46 79 100 100 100 100 100 100 100 100 100 100 100 100 100 99 100
5 5 0 3 55 2 90 22 0 0 56 0 0 5 5 100 92 100 49 43 6 45 50 47 40 97 100 100 100 100 100 100 100 96 73 100 100 100 100 100 100 100 100 100 100 100 100 100 90
5 5 4 0 5 82 2 0 0 0 46 4 3 76 51 100 100 98 56 15 5 52 39 40 43 100 100 57 60 88 97 100 100 85 88 100 100 100 100 100 100 100 100 100 100 100 100 100 96
5 5 3 4 5 94 2 2 75 2 17 4 65 100 67 100 100 100 76 38 11 46 43 39 94 100 98 4 98 99 100 100 100 100 100 100 100 100 100 100 100 100 100 100 100 100 100 100 100
5 3 5 92 18 5 90 11 0 31 5 100 78 76 99 100 100 100 100 87 5 9 12 36 77 87 90 17 100 100 100 100 100 100 100 100 100 100 100 100 100 100 100 100 100 100 100 100 100
5 4 1 19 18 71 100 84 31 5 100 100 100 100 100 100 100 100 100 39 5 11 31 44 60 65 90 15 100 100 100 79 100 100 100 100 100 100 100 100 100 100 100 100 100 100 100 100 100
16 81 53 65 91 96 100 69 95 72 100 100 100 100 100 100 100 100 100 68 22 47 20 50 50 40 71 31 100 100 100 81 64 100 100 100 100 100 100 100 100 100 100 100 100 100 100 100 100
52 100 100 100 100 42 100 15 100 100 100 100 100 99 100 100 100 100 100 100 94 27 35 52 47 77 70 44 100 100 100 31 100 94 94 100 100 100 100 100 100 100 100 100 100 100 100 100 100
46 100 100 95 83 93 100 30 100 100 100 100 100 75 100 100 100 100 100 100 86 19 99 93 41 66 90 78 80 100 100 95 77 94 97 99 100 100 100 100 100 100 100 100 100 100 100 100 100
41 100 100 100 99 89 85 84 100 100 100 100 100 77 100 100 100 100 100 100 100 16 96 100 89 20 45 100 61 66 14 68 0 34 96 25 41 60 100 100 100 100 100 100 100 100 100 100 76
100 100 100 100 100 100 100 82 100 100 100 100 96 18 14 100 100 100 100 100 100 100 100 100 100 46 28 100 92 46 100 91 94 50 11 0 0 67 97 99 100 100 100 100 100 100 100 100 63
100 100 100 100 100 100 100 100 100 100 100 100 73 84 100 82 100 100 100 100 100 100 100 100 99 99 85 76 94 34 99 100 100 18 0 0 0 0 2 61 100 100 100 100 100 100 100 100 100
100 100 100 100 100 98 100 100 100 100 100 100 100 74 100 5 100 100 100 100 98 87 100 100 100 100 100 77 92 6 80 100 100 65 0 0 0 0 0 0 2 21 100 100 100 100 100 100 100

GFSSGP_prec_cloud_093.txt.gz
Cloud_Cover
0 0 0 0 0 0 0 0 0 0 0 0 0 0 0 0 0 0 0 0 0 38 70 23 0 0 0 0 0 0 0 4 97 93 19 0 0 0 1 0 0 0 47 56 23 96 62 100 30
0 0 0 0 0 0 0 0 0 0 0 0 0 0 0 0 0 0 0 0 0 19 68 36 0 0 3 0 0 0 0 42 23 14 41 5 2 4 37 28 4 4 94 64 5 5 15 100 100
0 0 0 0 0 0 0 0 0 0 0 0 0 0 0 0 0 0 0 0 0 3 47 53 0 0 0 0 0 0 62 100 44 50 7 3 5 60 89 96 81 61 5 3 0 50 95 18 100
2 0 0 0 0 0 0 0 0 0 0 0 0 0 0 0 0 0 0 0 0 0 0 4 4 0 0 0 0 9 98 14 97 90 40 84 9 5 5 5 8 80 93 6 5 5 100 100 100
0 0 0 0 0 0 0 0 0 0 0 0 0 0 0 0 0 0 0 0 0 0 0 0 5 15 5 0 4 14 6 86 63 86 100 18 18 43 10 58 100 100 100 67 5 5 96 100 100
5 0 0 0 0 0 0 0 0 0 0 0 0 0 0 0 0 0 0 0 0 5 1 0 0 7 45 16 10 9 37 54 27 43 72 81 100 100 100 100 100 100 100 100 65 5 74 100 100
0 0 0 0 23 16 0 0 0 0 0 0 0 0 0 0 0 0 0 12 9 8 5 2 0 0 42 35 15 32 100 92 0 17 99 100 100 100 100 100 100 100 100 87 100 100 100 100 100
0 0 2 34 100 98 0 0 0 0 0 0 0 0 0 0 0 0 0 19 27 29 10 21 18 14 27 22 44 82 90 100 46 48 100 100 100 100 100 100 100 100 100 100 93 99 100 100 100
5 10 4 30 97 68 0 0 0 0 0 0 3 4 0 0 0 0 3 26 52 40 24 24 27 22 26 68 72 98 100 100 66 46 80 94 100 100 100 96 100 100 100 100 59 94 100 87 22
3 4 14 57 33 66 35 47 38 5 0 0 90 26 0 0 0 2 3 9 3 20 55 100 35 27 26 32 100 100 100 97 100 100 100 81 100 100 100 100 100 100 100 100 100 100 100 98 60
5 5 35 83 100 100 100 100 20 1 0 87 78 5 5 0 0 0 0 0 0 0 8 98 54 22 19 25 100 100 100 39 36 100 100 100 100 100 100 100 100 100 100 100 100 100 98 99 100
9 39 98 100 100 42 5 1 0 0 0 38 5 0 0 1 0 0 0 0 0 4 5 24 71 57 32 71 65 82 80 87 97 100 100 100 100 100 100 100 100 100 100 100 100 86 96 87 97
16 94 100 100 100 80 9 3 5 1 24 84 1 0 1 11 5 0 0 0 0 4 5 13 46 48 61 100 93 38 48 100 100 100 100 100 100 100 100 100 100 100 100 100 100 100 90 100 100
100 45 98 100 100 73 8 15 4 12 97 5 0 0 1 12 5 0 0 0 0 4 5 11 25 31 32 40 79 97 66 99 100 100 100 100 100 100 100 100 100 100 100 100 100 71 100 100 98
81 68 37 66 89 100 100 2 2 10 74 36 0 0 0 4 17 0 0 5 2 32 10 20 40 25 23 20 12 100 100 98 100 100 100 100 100 100 100 100 100 100 100 100 100 100 100 100 54
100 94 100 100 100 100 68 4 5 34 15 0 0 0 0 5 6 0 3 33 4 41 5 20 51 39 29 23 23 27 100 92 100 100 100 100 100 100 100 100 100 100 100 100 100 54 100 100 100
100 66 84 89 72 42 8 0 0 4 0 0 1 0 0 0 1 0 0 97 6 65 5 41 43 38 31 24 34 33 33 86 96 100 100 100 100 100 100 100 100 100 100 100 100 99 100 100 100
42 6 5 3 71 30 4 0 0 23 4 0 0 0 0 0 0 0 26 99 11 49 5 23 57 51 41 91 81 64 50 44 100 95 100 100 100 100 100 100 100 100 100 100 100 100 100 100 100
5 5 5 69 100 86 3 0 5 8 5 0 0 0 0 0 89 6 100 48 5 6 27 66 100 100 100 100 100 100 100 73 75 100 70 100 100 100 100 100 100 100 100 100 100 92 100 100 100
4 5 12 77 100 81 5 0 4 5 5 0 0 0 0 11 100 100 100 41 100 47 66 100 100 100 100 100 100 98 100 64 98 53 68 82 100 100 100 100 100 100 100 100 100 100 100 100 100
2 3 35 10 65 5 5 1 5 0 0 0 0 5 3 97 100 100 100 21 100 78 100 100 100 100 100 99 80 92 92 94 93 70 100 59 92 100 100 100 100 100 100 100 100 100 100 100 100
5 18 6 5 5 2 1 1 57 0 0 0 0 0 14 98 100 100 100 91 100 100 97 89 100 100 100 44 39 78 61 100 92 68 100 100 100 98 100 100 100 100 100 100 100 100 100 100 100
33 24 5 5 2 2 3 24 50 2 0 2 4 61 100 100 100 100 100 7 100 100 90 91 100 100 100 49 10 25 44 69 35 88 100 100 100 100 100 100 100 100 100 100 100 100 100 100 100
5 32 5 5 49 44 59 5 5 5 5 34 100 100 100 100 100 100 100 6 100 100 97 100 100 100 100 39 9 1 29 99 80 88 100 100 100 100 100 100 100 100 100 100 100 100 100 100 100
9 21 48 96 100 50 5 53 3 98 32 99 100 100 100 100 100 100 100 52 100 100 100 100 100 100 100 65 24 0 29 88 64 58 100 100 100 100 100 100 100 100 100 100 100 100 100 100 100
99 78 88 80 83 9 5 9 48 100 47 100 98 86 58 59 40 100 100 7 100 100 100 100 100 100 100 97 28 4 93 49 47 11 95 100 100 100 100 100 100 100 100 100 100 100 100 100 100
96 100 91 100 100 99 8 2 96 100 94 100 56 100 21 18 100 100 100 97 100 100 92 66 99 100 100 100 36 7 100 98 0 1 2 53 86 100 100 86 100 100 100 100 100 100 100 100 100
11 94 100 100 100 90 7 94 100 100 100 100 5 33 100 100 97 100 100 100 100 100 100 84 35 77 100 100 75 12 87 94 63 0 0 2 4 50 29 39 80 98 100 100 100 100 100 100 100
48 98 100 100 100 85 79 100 100 100 100 100 5 11 51 31 100 100 100 100 100 100 100 100 100 94 100 100 100 97 7 4 7 0 0 0 0 3 28 35 38 33 84 100 100 100 100 100 100
92 67 100 100 100 96 100 100 100 100 100 100 100 69 8 77 100 100 100 100 96 64 100 100 100 100 100 100 100 100 50 5 5 3 0 0 0 0 0 25 63 44 13 18 87 100 100 100 100